<?xml version="1.0" encoding="UTF-8" standalone="no" ?>
<gpx xmlns="http://www.topografix.com/GPX/1/1" xmlns:xsi="http://www.w3.org/2001/XMLSchema-instance" xsi:schemaLocation="http://www.topografix.com/GPX/1/1 http://www.topografix.com/GPX/1/1/gpx.xsd" version="1.1" creator="VisuGPX - https://www.visugpx.com">
  <metadata>
    <name>sortie du 20/04/2019</name>
    <desc><![CDATA[belle sortie de 36km au nord d'Artix]]></desc>
  </metadata>
  <trk>
    <name><![CDATA[Tracé actuel: 20 AVR 2019 08:22]]></name>
    <trkseg>
      <trkpt lat="43.40486" lon="-0.56684">
        <ele>136.64</ele>
        <time>2019-04-20T06:22:56Z</time>
      </trkpt>
      <trkpt lat="43.40494" lon="-0.56849">
        <ele>127.03</ele>
        <time>2019-04-20T06:23:13Z</time>
      </trkpt>
      <trkpt lat="43.40489" lon="-0.56851">
        <ele>131.36</ele>
        <time>2019-04-20T06:23:44Z</time>
      </trkpt>
      <trkpt lat="43.40488" lon="-0.56852">
        <ele>132.8</ele>
        <time>2019-04-20T06:24:09Z</time>
      </trkpt>
      <trkpt lat="43.4049" lon="-0.5685">
        <ele>129.43</ele>
        <time>2019-04-20T06:24:42Z</time>
      </trkpt>
      <trkpt lat="43.40489" lon="-0.5685">
        <ele>129.43</ele>
        <time>2019-04-20T06:25:03Z</time>
      </trkpt>
      <trkpt lat="43.40488" lon="-0.56851">
        <ele>130.88</ele>
        <time>2019-04-20T06:25:26Z</time>
      </trkpt>
      <trkpt lat="43.40487" lon="-0.56852">
        <ele>131.84</ele>
        <time>2019-04-20T06:25:36Z</time>
      </trkpt>
      <trkpt lat="43.40488" lon="-0.56862">
        <ele>132.32</ele>
        <time>2019-04-20T06:25:41Z</time>
      </trkpt>
      <trkpt lat="43.40479" lon="-0.56879">
        <ele>132.32</ele>
        <time>2019-04-20T06:25:47Z</time>
      </trkpt>
      <trkpt lat="43.40476" lon="-0.56879">
        <ele>131.84</ele>
        <time>2019-04-20T06:25:48Z</time>
      </trkpt>
      <trkpt lat="43.40473" lon="-0.5688">
        <ele>131.36</ele>
        <time>2019-04-20T06:25:49Z</time>
      </trkpt>
      <trkpt lat="43.4047" lon="-0.56879">
        <ele>131.36</ele>
        <time>2019-04-20T06:25:50Z</time>
      </trkpt>
      <trkpt lat="43.40468" lon="-0.56879">
        <ele>130.88</ele>
        <time>2019-04-20T06:25:51Z</time>
      </trkpt>
      <trkpt lat="43.40465" lon="-0.56877">
        <ele>130.88</ele>
        <time>2019-04-20T06:25:52Z</time>
      </trkpt>
      <trkpt lat="43.40463" lon="-0.56875">
        <ele>130.88</ele>
        <time>2019-04-20T06:25:53Z</time>
      </trkpt>
      <trkpt lat="43.4042" lon="-0.56876">
        <ele>132.8</ele>
        <time>2019-04-20T06:26:07Z</time>
      </trkpt>
      <trkpt lat="43.40368" lon="-0.56886">
        <ele>132.8</ele>
        <time>2019-04-20T06:26:23Z</time>
      </trkpt>
      <trkpt lat="43.40316" lon="-0.56899">
        <ele>131.84</ele>
        <time>2019-04-20T06:26:38Z</time>
      </trkpt>
      <trkpt lat="43.40248" lon="-0.5692">
        <ele>132.32</ele>
        <time>2019-04-20T06:26:54Z</time>
      </trkpt>
      <trkpt lat="43.40244" lon="-0.56919">
        <ele>132.32</ele>
        <time>2019-04-20T06:26:55Z</time>
      </trkpt>
      <trkpt lat="43.4024" lon="-0.56917">
        <ele>132.8</ele>
        <time>2019-04-20T06:26:57Z</time>
      </trkpt>
      <trkpt lat="43.4024" lon="-0.56914">
        <ele>132.8</ele>
        <time>2019-04-20T06:26:58Z</time>
      </trkpt>
      <trkpt lat="43.40241" lon="-0.56913">
        <ele>133.28</ele>
        <time>2019-04-20T06:26:59Z</time>
      </trkpt>
      <trkpt lat="43.40244" lon="-0.56916">
        <ele>132.8</ele>
        <time>2019-04-20T06:27:11Z</time>
      </trkpt>
      <trkpt lat="43.40245" lon="-0.56914">
        <ele>133.28</ele>
        <time>2019-04-20T06:27:29Z</time>
      </trkpt>
      <trkpt lat="43.4024" lon="-0.5691">
        <ele>134.24</ele>
        <time>2019-04-20T06:28:12Z</time>
      </trkpt>
      <trkpt lat="43.40243" lon="-0.56914">
        <ele>137.13</ele>
        <time>2019-04-20T06:28:34Z</time>
      </trkpt>
      <trkpt lat="43.40245" lon="-0.56914">
        <ele>137.13</ele>
        <time>2019-04-20T06:28:35Z</time>
      </trkpt>
      <trkpt lat="43.40247" lon="-0.56914">
        <ele>136.64</ele>
        <time>2019-04-20T06:28:36Z</time>
      </trkpt>
      <trkpt lat="43.4025" lon="-0.56914">
        <ele>136.64</ele>
        <time>2019-04-20T06:28:37Z</time>
      </trkpt>
      <trkpt lat="43.40252" lon="-0.56913">
        <ele>136.16</ele>
        <time>2019-04-20T06:28:38Z</time>
      </trkpt>
      <trkpt lat="43.40255" lon="-0.56912">
        <ele>135.68</ele>
        <time>2019-04-20T06:28:39Z</time>
      </trkpt>
      <trkpt lat="43.40306" lon="-0.56901">
        <ele>135.2</ele>
        <time>2019-04-20T06:28:53Z</time>
      </trkpt>
      <trkpt lat="43.40384" lon="-0.56885">
        <ele>134.72</ele>
        <time>2019-04-20T06:29:12Z</time>
      </trkpt>
      <trkpt lat="43.40454" lon="-0.56868">
        <ele>134.24</ele>
        <time>2019-04-20T06:29:28Z</time>
      </trkpt>
      <trkpt lat="43.40457" lon="-0.56864">
        <ele>134.24</ele>
        <time>2019-04-20T06:29:29Z</time>
      </trkpt>
      <trkpt lat="43.4046" lon="-0.56858">
        <ele>134.24</ele>
        <time>2019-04-20T06:29:30Z</time>
      </trkpt>
      <trkpt lat="43.40462" lon="-0.56854">
        <ele>134.24</ele>
        <time>2019-04-20T06:29:31Z</time>
      </trkpt>
      <trkpt lat="43.40465" lon="-0.5685">
        <ele>134.24</ele>
        <time>2019-04-20T06:29:32Z</time>
      </trkpt>
      <trkpt lat="43.40468" lon="-0.56847">
        <ele>134.24</ele>
        <time>2019-04-20T06:29:33Z</time>
      </trkpt>
      <trkpt lat="43.40472" lon="-0.56846">
        <ele>133.76</ele>
        <time>2019-04-20T06:29:34Z</time>
      </trkpt>
      <trkpt lat="43.40476" lon="-0.56846">
        <ele>134.24</ele>
        <time>2019-04-20T06:29:35Z</time>
      </trkpt>
      <trkpt lat="43.40479" lon="-0.56847">
        <ele>134.24</ele>
        <time>2019-04-20T06:29:36Z</time>
      </trkpt>
      <trkpt lat="43.40483" lon="-0.56849">
        <ele>133.76</ele>
        <time>2019-04-20T06:29:37Z</time>
      </trkpt>
      <trkpt lat="43.40487" lon="-0.56852">
        <ele>133.28</ele>
        <time>2019-04-20T06:29:38Z</time>
      </trkpt>
      <trkpt lat="43.40492" lon="-0.56855">
        <ele>133.28</ele>
        <time>2019-04-20T06:29:39Z</time>
      </trkpt>
      <trkpt lat="43.40496" lon="-0.56856">
        <ele>133.28</ele>
        <time>2019-04-20T06:29:40Z</time>
      </trkpt>
      <trkpt lat="43.405" lon="-0.56856">
        <ele>132.8</ele>
        <time>2019-04-20T06:29:41Z</time>
      </trkpt>
      <trkpt lat="43.40505" lon="-0.56855">
        <ele>133.28</ele>
        <time>2019-04-20T06:29:42Z</time>
      </trkpt>
      <trkpt lat="43.4051" lon="-0.56853">
        <ele>133.28</ele>
        <time>2019-04-20T06:29:43Z</time>
      </trkpt>
      <trkpt lat="43.40515" lon="-0.5685">
        <ele>133.28</ele>
        <time>2019-04-20T06:29:44Z</time>
      </trkpt>
      <trkpt lat="43.40591" lon="-0.56811">
        <ele>131.84</ele>
        <time>2019-04-20T06:29:59Z</time>
      </trkpt>
      <trkpt lat="43.40671" lon="-0.56775">
        <ele>130.4</ele>
        <time>2019-04-20T06:30:15Z</time>
      </trkpt>
      <trkpt lat="43.40738" lon="-0.56747">
        <ele>129.92</ele>
        <time>2019-04-20T06:30:28Z</time>
      </trkpt>
      <trkpt lat="43.40817" lon="-0.56745">
        <ele>129.92</ele>
        <time>2019-04-20T06:30:43Z</time>
      </trkpt>
      <trkpt lat="43.40868" lon="-0.56737">
        <ele>130.4</ele>
        <time>2019-04-20T06:30:54Z</time>
      </trkpt>
      <trkpt lat="43.4087" lon="-0.56741">
        <ele>130.88</ele>
        <time>2019-04-20T06:30:55Z</time>
      </trkpt>
      <trkpt lat="43.40871" lon="-0.56745">
        <ele>131.36</ele>
        <time>2019-04-20T06:30:56Z</time>
      </trkpt>
      <trkpt lat="43.40876" lon="-0.56759">
        <ele>131.84</ele>
        <time>2019-04-20T06:30:59Z</time>
      </trkpt>
      <trkpt lat="43.40878" lon="-0.56764">
        <ele>131.84</ele>
        <time>2019-04-20T06:31:00Z</time>
      </trkpt>
      <trkpt lat="43.40881" lon="-0.56776">
        <ele>132.32</ele>
        <time>2019-04-20T06:31:02Z</time>
      </trkpt>
      <trkpt lat="43.40882" lon="-0.56782">
        <ele>132.8</ele>
        <time>2019-04-20T06:31:03Z</time>
      </trkpt>
      <trkpt lat="43.40905" lon="-0.5689">
        <ele>131.36</ele>
        <time>2019-04-20T06:31:19Z</time>
      </trkpt>
      <trkpt lat="43.40933" lon="-0.57006">
        <ele>127.51</ele>
        <time>2019-04-20T06:31:35Z</time>
      </trkpt>
      <trkpt lat="43.40961" lon="-0.57127">
        <ele>126.55</ele>
        <time>2019-04-20T06:31:51Z</time>
      </trkpt>
      <trkpt lat="43.40987" lon="-0.57209">
        <ele>126.55</ele>
        <time>2019-04-20T06:32:03Z</time>
      </trkpt>
      <trkpt lat="43.4099" lon="-0.57215">
        <ele>126.55</ele>
        <time>2019-04-20T06:32:04Z</time>
      </trkpt>
      <trkpt lat="43.41048" lon="-0.57292">
        <ele>127.51</ele>
        <time>2019-04-20T06:32:19Z</time>
      </trkpt>
      <trkpt lat="43.41052" lon="-0.57298">
        <ele>127.03</ele>
        <time>2019-04-20T06:32:20Z</time>
      </trkpt>
      <trkpt lat="43.41054" lon="-0.57304">
        <ele>127.03</ele>
        <time>2019-04-20T06:32:21Z</time>
      </trkpt>
      <trkpt lat="43.41057" lon="-0.57311">
        <ele>127.03</ele>
        <time>2019-04-20T06:32:22Z</time>
      </trkpt>
      <trkpt lat="43.41059" lon="-0.57319">
        <ele>127.03</ele>
        <time>2019-04-20T06:32:23Z</time>
      </trkpt>
      <trkpt lat="43.4106" lon="-0.57327">
        <ele>127.03</ele>
        <time>2019-04-20T06:32:24Z</time>
      </trkpt>
      <trkpt lat="43.41061" lon="-0.57334">
        <ele>127.03</ele>
        <time>2019-04-20T06:32:25Z</time>
      </trkpt>
      <trkpt lat="43.41062" lon="-0.57342">
        <ele>127.03</ele>
        <time>2019-04-20T06:32:26Z</time>
      </trkpt>
      <trkpt lat="43.41063" lon="-0.5735">
        <ele>126.55</ele>
        <time>2019-04-20T06:32:27Z</time>
      </trkpt>
      <trkpt lat="43.4108" lon="-0.57462">
        <ele>126.07</ele>
        <time>2019-04-20T06:32:42Z</time>
      </trkpt>
      <trkpt lat="43.41082" lon="-0.57468">
        <ele>126.07</ele>
        <time>2019-04-20T06:32:43Z</time>
      </trkpt>
      <trkpt lat="43.41085" lon="-0.57474">
        <ele>126.07</ele>
        <time>2019-04-20T06:32:44Z</time>
      </trkpt>
      <trkpt lat="43.41088" lon="-0.57479">
        <ele>126.55</ele>
        <time>2019-04-20T06:32:45Z</time>
      </trkpt>
      <trkpt lat="43.41091" lon="-0.57484">
        <ele>126.55</ele>
        <time>2019-04-20T06:32:46Z</time>
      </trkpt>
      <trkpt lat="43.41095" lon="-0.57488">
        <ele>126.55</ele>
        <time>2019-04-20T06:32:47Z</time>
      </trkpt>
      <trkpt lat="43.41098" lon="-0.57492">
        <ele>126.55</ele>
        <time>2019-04-20T06:32:48Z</time>
      </trkpt>
      <trkpt lat="43.41102" lon="-0.57496">
        <ele>126.55</ele>
        <time>2019-04-20T06:32:49Z</time>
      </trkpt>
      <trkpt lat="43.41107" lon="-0.57499">
        <ele>126.55</ele>
        <time>2019-04-20T06:32:50Z</time>
      </trkpt>
      <trkpt lat="43.41111" lon="-0.575">
        <ele>126.55</ele>
        <time>2019-04-20T06:32:51Z</time>
      </trkpt>
      <trkpt lat="43.41116" lon="-0.575">
        <ele>127.03</ele>
        <time>2019-04-20T06:32:52Z</time>
      </trkpt>
      <trkpt lat="43.4112" lon="-0.57499">
        <ele>127.03</ele>
        <time>2019-04-20T06:32:53Z</time>
      </trkpt>
      <trkpt lat="43.4113" lon="-0.57497">
        <ele>127.99</ele>
        <time>2019-04-20T06:32:55Z</time>
      </trkpt>
      <trkpt lat="43.41134" lon="-0.57495">
        <ele>127.99</ele>
        <time>2019-04-20T06:32:56Z</time>
      </trkpt>
      <trkpt lat="43.4124" lon="-0.57468">
        <ele>129.92</ele>
        <time>2019-04-20T06:33:15Z</time>
      </trkpt>
      <trkpt lat="43.41316" lon="-0.57456">
        <ele>131.36</ele>
        <time>2019-04-20T06:33:29Z</time>
      </trkpt>
      <trkpt lat="43.41384" lon="-0.57466">
        <ele>136.64</ele>
        <time>2019-04-20T06:33:43Z</time>
      </trkpt>
      <trkpt lat="43.41459" lon="-0.57496">
        <ele>140.97</ele>
        <time>2019-04-20T06:33:58Z</time>
      </trkpt>
      <trkpt lat="43.41547" lon="-0.57543">
        <ele>137.13</ele>
        <time>2019-04-20T06:34:13Z</time>
      </trkpt>
      <trkpt lat="43.41624" lon="-0.57593">
        <ele>132.32</ele>
        <time>2019-04-20T06:34:24Z</time>
      </trkpt>
      <trkpt lat="43.41631" lon="-0.57595">
        <ele>132.32</ele>
        <time>2019-04-20T06:34:25Z</time>
      </trkpt>
      <trkpt lat="43.41638" lon="-0.57594">
        <ele>132.32</ele>
        <time>2019-04-20T06:34:26Z</time>
      </trkpt>
      <trkpt lat="43.41643" lon="-0.5759">
        <ele>131.84</ele>
        <time>2019-04-20T06:34:27Z</time>
      </trkpt>
      <trkpt lat="43.41647" lon="-0.57583">
        <ele>131.84</ele>
        <time>2019-04-20T06:34:28Z</time>
      </trkpt>
      <trkpt lat="43.41649" lon="-0.57577">
        <ele>131.84</ele>
        <time>2019-04-20T06:34:29Z</time>
      </trkpt>
      <trkpt lat="43.41651" lon="-0.57569">
        <ele>131.84</ele>
        <time>2019-04-20T06:34:30Z</time>
      </trkpt>
      <trkpt lat="43.41684" lon="-0.57454">
        <ele>132.32</ele>
        <time>2019-04-20T06:34:46Z</time>
      </trkpt>
      <trkpt lat="43.41722" lon="-0.57322">
        <ele>130.88</ele>
        <time>2019-04-20T06:35:05Z</time>
      </trkpt>
      <trkpt lat="43.41744" lon="-0.57233">
        <ele>131.84</ele>
        <time>2019-04-20T06:35:18Z</time>
      </trkpt>
      <trkpt lat="43.41746" lon="-0.57229">
        <ele>131.84</ele>
        <time>2019-04-20T06:35:19Z</time>
      </trkpt>
      <trkpt lat="43.41749" lon="-0.57225">
        <ele>131.36</ele>
        <time>2019-04-20T06:35:20Z</time>
      </trkpt>
      <trkpt lat="43.41752" lon="-0.57222">
        <ele>131.36</ele>
        <time>2019-04-20T06:35:21Z</time>
      </trkpt>
      <trkpt lat="43.41756" lon="-0.5722">
        <ele>131.36</ele>
        <time>2019-04-20T06:35:22Z</time>
      </trkpt>
      <trkpt lat="43.41762" lon="-0.57219">
        <ele>131.36</ele>
        <time>2019-04-20T06:35:23Z</time>
      </trkpt>
      <trkpt lat="43.41766" lon="-0.57218">
        <ele>131.36</ele>
        <time>2019-04-20T06:35:24Z</time>
      </trkpt>
      <trkpt lat="43.41772" lon="-0.57218">
        <ele>131.36</ele>
        <time>2019-04-20T06:35:25Z</time>
      </trkpt>
      <trkpt lat="43.41777" lon="-0.57219">
        <ele>131.36</ele>
        <time>2019-04-20T06:35:26Z</time>
      </trkpt>
      <trkpt lat="43.41782" lon="-0.57219">
        <ele>131.36</ele>
        <time>2019-04-20T06:35:27Z</time>
      </trkpt>
      <trkpt lat="43.41829" lon="-0.57225">
        <ele>130.4</ele>
        <time>2019-04-20T06:35:35Z</time>
      </trkpt>
      <trkpt lat="43.4184" lon="-0.57222">
        <ele>130.4</ele>
        <time>2019-04-20T06:35:37Z</time>
      </trkpt>
      <trkpt lat="43.41897" lon="-0.572">
        <ele>130.88</ele>
        <time>2019-04-20T06:35:48Z</time>
      </trkpt>
      <trkpt lat="43.419" lon="-0.57199">
        <ele>130.88</ele>
        <time>2019-04-20T06:35:49Z</time>
      </trkpt>
      <trkpt lat="43.41905" lon="-0.57198">
        <ele>130.88</ele>
        <time>2019-04-20T06:35:50Z</time>
      </trkpt>
      <trkpt lat="43.41986" lon="-0.57195">
        <ele>132.32</ele>
        <time>2019-04-20T06:36:07Z</time>
      </trkpt>
      <trkpt lat="43.42043" lon="-0.57194">
        <ele>134.72</ele>
        <time>2019-04-20T06:36:20Z</time>
      </trkpt>
      <trkpt lat="43.42094" lon="-0.57195">
        <ele>138.57</ele>
        <time>2019-04-20T06:36:35Z</time>
      </trkpt>
      <trkpt lat="43.42145" lon="-0.57193">
        <ele>141.45</ele>
        <time>2019-04-20T06:36:50Z</time>
      </trkpt>
      <trkpt lat="43.42189" lon="-0.57185">
        <ele>143.85</ele>
        <time>2019-04-20T06:37:03Z</time>
      </trkpt>
      <trkpt lat="43.42251" lon="-0.5717">
        <ele>144.82</ele>
        <time>2019-04-20T06:37:19Z</time>
      </trkpt>
      <trkpt lat="43.42309" lon="-0.5715">
        <ele>146.26</ele>
        <time>2019-04-20T06:37:35Z</time>
      </trkpt>
      <trkpt lat="43.42361" lon="-0.57123">
        <ele>149.62</ele>
        <time>2019-04-20T06:37:51Z</time>
      </trkpt>
      <trkpt lat="43.42399" lon="-0.57103">
        <ele>152.51</ele>
        <time>2019-04-20T06:38:05Z</time>
      </trkpt>
      <trkpt lat="43.42438" lon="-0.57082">
        <ele>156.35</ele>
        <time>2019-04-20T06:38:21Z</time>
      </trkpt>
      <trkpt lat="43.42467" lon="-0.57049">
        <ele>158.75</ele>
        <time>2019-04-20T06:38:36Z</time>
      </trkpt>
      <trkpt lat="43.42492" lon="-0.57016">
        <ele>163.56</ele>
        <time>2019-04-20T06:38:52Z</time>
      </trkpt>
      <trkpt lat="43.42517" lon="-0.56993">
        <ele>167.41</ele>
        <time>2019-04-20T06:39:06Z</time>
      </trkpt>
      <trkpt lat="43.42521" lon="-0.56963">
        <ele>168.85</ele>
        <time>2019-04-20T06:39:19Z</time>
      </trkpt>
      <trkpt lat="43.42528" lon="-0.56933">
        <ele>170.29</ele>
        <time>2019-04-20T06:39:32Z</time>
      </trkpt>
      <trkpt lat="43.42542" lon="-0.56907">
        <ele>173.17</ele>
        <time>2019-04-20T06:39:45Z</time>
      </trkpt>
      <trkpt lat="43.42554" lon="-0.56876">
        <ele>175.58</ele>
        <time>2019-04-20T06:39:58Z</time>
      </trkpt>
      <trkpt lat="43.42559" lon="-0.56863">
        <ele>175.58</ele>
        <time>2019-04-20T06:40:03Z</time>
      </trkpt>
      <trkpt lat="43.4256" lon="-0.5686">
        <ele>175.1</ele>
        <time>2019-04-20T06:40:04Z</time>
      </trkpt>
      <trkpt lat="43.42562" lon="-0.56858">
        <ele>175.1</ele>
        <time>2019-04-20T06:40:05Z</time>
      </trkpt>
      <trkpt lat="43.42587" lon="-0.56824">
        <ele>172.21</ele>
        <time>2019-04-20T06:40:20Z</time>
      </trkpt>
      <trkpt lat="43.42609" lon="-0.56805">
        <ele>169.33</ele>
        <time>2019-04-20T06:40:33Z</time>
      </trkpt>
      <trkpt lat="43.42629" lon="-0.56787">
        <ele>177.02</ele>
        <time>2019-04-20T06:40:47Z</time>
      </trkpt>
      <trkpt lat="43.42638" lon="-0.56779">
        <ele>177.98</ele>
        <time>2019-04-20T06:40:55Z</time>
      </trkpt>
      <trkpt lat="43.42639" lon="-0.56778">
        <ele>177.98</ele>
        <time>2019-04-20T06:40:56Z</time>
      </trkpt>
      <trkpt lat="43.4264" lon="-0.56777">
        <ele>178.46</ele>
        <time>2019-04-20T06:40:57Z</time>
      </trkpt>
      <trkpt lat="43.42641" lon="-0.56775">
        <ele>178.46</ele>
        <time>2019-04-20T06:40:58Z</time>
      </trkpt>
      <trkpt lat="43.42642" lon="-0.56774">
        <ele>178.94</ele>
        <time>2019-04-20T06:40:59Z</time>
      </trkpt>
      <trkpt lat="43.42648" lon="-0.56768">
        <ele>179.9</ele>
        <time>2019-04-20T06:41:05Z</time>
      </trkpt>
      <trkpt lat="43.42645" lon="-0.56757">
        <ele>181.83</ele>
        <time>2019-04-20T06:41:18Z</time>
      </trkpt>
      <trkpt lat="43.42646" lon="-0.56756">
        <ele>189.52</ele>
        <time>2019-04-20T06:41:39Z</time>
      </trkpt>
      <trkpt lat="43.42646" lon="-0.56758">
        <ele>189.52</ele>
        <time>2019-04-20T06:42:03Z</time>
      </trkpt>
      <trkpt lat="43.42646" lon="-0.56757">
        <ele>191.92</ele>
        <time>2019-04-20T06:42:12Z</time>
      </trkpt>
      <trkpt lat="43.42646" lon="-0.56753">
        <ele>191.92</ele>
        <time>2019-04-20T06:42:14Z</time>
      </trkpt>
      <trkpt lat="43.42645" lon="-0.5675">
        <ele>192.4</ele>
        <time>2019-04-20T06:42:15Z</time>
      </trkpt>
      <trkpt lat="43.42644" lon="-0.56747">
        <ele>192.4</ele>
        <time>2019-04-20T06:42:16Z</time>
      </trkpt>
      <trkpt lat="43.42636" lon="-0.56716">
        <ele>196.25</ele>
        <time>2019-04-20T06:42:28Z</time>
      </trkpt>
      <trkpt lat="43.42622" lon="-0.56674">
        <ele>200.57</ele>
        <time>2019-04-20T06:42:42Z</time>
      </trkpt>
      <trkpt lat="43.42605" lon="-0.56647">
        <ele>200.57</ele>
        <time>2019-04-20T06:42:54Z</time>
      </trkpt>
      <trkpt lat="43.42594" lon="-0.56621">
        <ele>202.01</ele>
        <time>2019-04-20T06:43:06Z</time>
      </trkpt>
      <trkpt lat="43.42584" lon="-0.56594">
        <ele>203.94</ele>
        <time>2019-04-20T06:43:19Z</time>
      </trkpt>
      <trkpt lat="43.42573" lon="-0.5657">
        <ele>204.42</ele>
        <time>2019-04-20T06:43:32Z</time>
      </trkpt>
      <trkpt lat="43.42559" lon="-0.56538">
        <ele>202.98</ele>
        <time>2019-04-20T06:43:44Z</time>
      </trkpt>
      <trkpt lat="43.42543" lon="-0.56503">
        <ele>209.7</ele>
        <time>2019-04-20T06:43:59Z</time>
      </trkpt>
      <trkpt lat="43.42513" lon="-0.56468">
        <ele>215.47</ele>
        <time>2019-04-20T06:44:14Z</time>
      </trkpt>
      <trkpt lat="43.42493" lon="-0.56449">
        <ele>217.88</ele>
        <time>2019-04-20T06:44:27Z</time>
      </trkpt>
      <trkpt lat="43.42472" lon="-0.56419">
        <ele>220.28</ele>
        <time>2019-04-20T06:44:41Z</time>
      </trkpt>
      <trkpt lat="43.42447" lon="-0.56367">
        <ele>217.4</ele>
        <time>2019-04-20T06:44:52Z</time>
      </trkpt>
      <trkpt lat="43.42417" lon="-0.56267">
        <ele>213.55</ele>
        <time>2019-04-20T06:45:03Z</time>
      </trkpt>
      <trkpt lat="43.42387" lon="-0.56154">
        <ele>212.11</ele>
        <time>2019-04-20T06:45:18Z</time>
      </trkpt>
      <trkpt lat="43.4238" lon="-0.5613">
        <ele>212.11</ele>
        <time>2019-04-20T06:45:21Z</time>
      </trkpt>
      <trkpt lat="43.42374" lon="-0.56115">
        <ele>211.63</ele>
        <time>2019-04-20T06:45:23Z</time>
      </trkpt>
      <trkpt lat="43.42371" lon="-0.56108">
        <ele>211.63</ele>
        <time>2019-04-20T06:45:24Z</time>
      </trkpt>
      <trkpt lat="43.42367" lon="-0.56102">
        <ele>211.63</ele>
        <time>2019-04-20T06:45:25Z</time>
      </trkpt>
      <trkpt lat="43.42337" lon="-0.5605">
        <ele>214.03</ele>
        <time>2019-04-20T06:45:34Z</time>
      </trkpt>
      <trkpt lat="43.42334" lon="-0.56046">
        <ele>214.51</ele>
        <time>2019-04-20T06:45:35Z</time>
      </trkpt>
      <trkpt lat="43.42308" lon="-0.56">
        <ele>219.8</ele>
        <time>2019-04-20T06:45:47Z</time>
      </trkpt>
      <trkpt lat="43.42277" lon="-0.55942">
        <ele>227.01</ele>
        <time>2019-04-20T06:46:02Z</time>
      </trkpt>
      <trkpt lat="43.42257" lon="-0.55906">
        <ele>228.93</ele>
        <time>2019-04-20T06:46:13Z</time>
      </trkpt>
      <trkpt lat="43.42236" lon="-0.55874">
        <ele>230.85</ele>
        <time>2019-04-20T06:46:24Z</time>
      </trkpt>
      <trkpt lat="43.42206" lon="-0.55831">
        <ele>233.74</ele>
        <time>2019-04-20T06:46:37Z</time>
      </trkpt>
      <trkpt lat="43.42187" lon="-0.55801">
        <ele>235.18</ele>
        <time>2019-04-20T06:46:48Z</time>
      </trkpt>
      <trkpt lat="43.42164" lon="-0.55738">
        <ele>239.99</ele>
        <time>2019-04-20T06:47:03Z</time>
      </trkpt>
      <trkpt lat="43.42143" lon="-0.55659">
        <ele>243.83</ele>
        <time>2019-04-20T06:47:17Z</time>
      </trkpt>
      <trkpt lat="43.42133" lon="-0.55606">
        <ele>244.31</ele>
        <time>2019-04-20T06:47:25Z</time>
      </trkpt>
      <trkpt lat="43.42132" lon="-0.55599">
        <ele>244.31</ele>
        <time>2019-04-20T06:47:26Z</time>
      </trkpt>
      <trkpt lat="43.42129" lon="-0.55586">
        <ele>244.31</ele>
        <time>2019-04-20T06:47:28Z</time>
      </trkpt>
      <trkpt lat="43.42123" lon="-0.55567">
        <ele>243.83</ele>
        <time>2019-04-20T06:47:31Z</time>
      </trkpt>
      <trkpt lat="43.42122" lon="-0.55562">
        <ele>243.83</ele>
        <time>2019-04-20T06:47:32Z</time>
      </trkpt>
      <trkpt lat="43.421" lon="-0.55469">
        <ele>236.14</ele>
        <time>2019-04-20T06:47:46Z</time>
      </trkpt>
      <trkpt lat="43.42065" lon="-0.5537">
        <ele>229.89</ele>
        <time>2019-04-20T06:48:02Z</time>
      </trkpt>
      <trkpt lat="43.42031" lon="-0.55267">
        <ele>225.57</ele>
        <time>2019-04-20T06:48:15Z</time>
      </trkpt>
      <trkpt lat="43.42018" lon="-0.55218">
        <ele>223.64</ele>
        <time>2019-04-20T06:48:22Z</time>
      </trkpt>
      <trkpt lat="43.42016" lon="-0.55212">
        <ele>223.64</ele>
        <time>2019-04-20T06:48:23Z</time>
      </trkpt>
      <trkpt lat="43.42012" lon="-0.55206">
        <ele>223.16</ele>
        <time>2019-04-20T06:48:24Z</time>
      </trkpt>
      <trkpt lat="43.41956" lon="-0.55126">
        <ele>219.8</ele>
        <time>2019-04-20T06:48:39Z</time>
      </trkpt>
      <trkpt lat="43.4195" lon="-0.55121">
        <ele>219.8</ele>
        <time>2019-04-20T06:48:40Z</time>
      </trkpt>
      <trkpt lat="43.41944" lon="-0.55118">
        <ele>219.8</ele>
        <time>2019-04-20T06:48:41Z</time>
      </trkpt>
      <trkpt lat="43.41938" lon="-0.55115">
        <ele>219.32</ele>
        <time>2019-04-20T06:48:42Z</time>
      </trkpt>
      <trkpt lat="43.4193" lon="-0.55113">
        <ele>219.32</ele>
        <time>2019-04-20T06:48:43Z</time>
      </trkpt>
      <trkpt lat="43.41923" lon="-0.55112">
        <ele>218.84</ele>
        <time>2019-04-20T06:48:44Z</time>
      </trkpt>
      <trkpt lat="43.41915" lon="-0.55111">
        <ele>218.36</ele>
        <time>2019-04-20T06:48:45Z</time>
      </trkpt>
      <trkpt lat="43.41878" lon="-0.55102">
        <ele>214.99</ele>
        <time>2019-04-20T06:48:50Z</time>
      </trkpt>
      <trkpt lat="43.41838" lon="-0.5508">
        <ele>210.19</ele>
        <time>2019-04-20T06:48:57Z</time>
      </trkpt>
      <trkpt lat="43.41834" lon="-0.55076">
        <ele>209.7</ele>
        <time>2019-04-20T06:48:58Z</time>
      </trkpt>
      <trkpt lat="43.41832" lon="-0.55072">
        <ele>209.22</ele>
        <time>2019-04-20T06:48:59Z</time>
      </trkpt>
      <trkpt lat="43.4183" lon="-0.55067">
        <ele>208.74</ele>
        <time>2019-04-20T06:49:00Z</time>
      </trkpt>
      <trkpt lat="43.41828" lon="-0.55059">
        <ele>208.26</ele>
        <time>2019-04-20T06:49:01Z</time>
      </trkpt>
      <trkpt lat="43.41827" lon="-0.55054">
        <ele>208.26</ele>
        <time>2019-04-20T06:49:02Z</time>
      </trkpt>
      <trkpt lat="43.41825" lon="-0.55048">
        <ele>208.26</ele>
        <time>2019-04-20T06:49:03Z</time>
      </trkpt>
      <trkpt lat="43.41821" lon="-0.5504">
        <ele>207.78</ele>
        <time>2019-04-20T06:49:04Z</time>
      </trkpt>
      <trkpt lat="43.41818" lon="-0.55036">
        <ele>207.78</ele>
        <time>2019-04-20T06:49:05Z</time>
      </trkpt>
      <trkpt lat="43.41814" lon="-0.55031">
        <ele>207.78</ele>
        <time>2019-04-20T06:49:06Z</time>
      </trkpt>
      <trkpt lat="43.41809" lon="-0.55028">
        <ele>207.78</ele>
        <time>2019-04-20T06:49:07Z</time>
      </trkpt>
      <trkpt lat="43.41804" lon="-0.55024">
        <ele>207.78</ele>
        <time>2019-04-20T06:49:08Z</time>
      </trkpt>
      <trkpt lat="43.41799" lon="-0.55022">
        <ele>208.26</ele>
        <time>2019-04-20T06:49:09Z</time>
      </trkpt>
      <trkpt lat="43.41788" lon="-0.55017">
        <ele>209.22</ele>
        <time>2019-04-20T06:49:11Z</time>
      </trkpt>
      <trkpt lat="43.4171" lon="-0.54993">
        <ele>212.59</ele>
        <time>2019-04-20T06:49:27Z</time>
      </trkpt>
      <trkpt lat="43.41637" lon="-0.54991">
        <ele>215.95</ele>
        <time>2019-04-20T06:49:42Z</time>
      </trkpt>
      <trkpt lat="43.41585" lon="-0.54992">
        <ele>220.76</ele>
        <time>2019-04-20T06:49:56Z</time>
      </trkpt>
      <trkpt lat="43.41557" lon="-0.54954">
        <ele>222.2</ele>
        <time>2019-04-20T06:50:08Z</time>
      </trkpt>
      <trkpt lat="43.41527" lon="-0.54904">
        <ele>225.57</ele>
        <time>2019-04-20T06:50:23Z</time>
      </trkpt>
      <trkpt lat="43.41488" lon="-0.54855">
        <ele>226.05</ele>
        <time>2019-04-20T06:50:38Z</time>
      </trkpt>
      <trkpt lat="43.41462" lon="-0.54835">
        <ele>225.57</ele>
        <time>2019-04-20T06:50:44Z</time>
      </trkpt>
      <trkpt lat="43.41422" lon="-0.54763">
        <ele>225.09</ele>
        <time>2019-04-20T06:50:56Z</time>
      </trkpt>
      <trkpt lat="43.41418" lon="-0.54751">
        <ele>225.09</ele>
        <time>2019-04-20T06:50:58Z</time>
      </trkpt>
      <trkpt lat="43.41415" lon="-0.54746">
        <ele>225.09</ele>
        <time>2019-04-20T06:50:59Z</time>
      </trkpt>
      <trkpt lat="43.41413" lon="-0.54741">
        <ele>225.09</ele>
        <time>2019-04-20T06:51:00Z</time>
      </trkpt>
      <trkpt lat="43.41378" lon="-0.54665">
        <ele>227.01</ele>
        <time>2019-04-20T06:51:15Z</time>
      </trkpt>
      <trkpt lat="43.41358" lon="-0.5459">
        <ele>227.97</ele>
        <time>2019-04-20T06:51:30Z</time>
      </trkpt>
      <trkpt lat="43.41364" lon="-0.54555">
        <ele>230.85</ele>
        <time>2019-04-20T06:51:42Z</time>
      </trkpt>
      <trkpt lat="43.41368" lon="-0.54549">
        <ele>232.78</ele>
        <time>2019-04-20T06:51:46Z</time>
      </trkpt>
      <trkpt lat="43.41368" lon="-0.54548">
        <ele>233.26</ele>
        <time>2019-04-20T06:51:47Z</time>
      </trkpt>
      <trkpt lat="43.41369" lon="-0.54546">
        <ele>233.26</ele>
        <time>2019-04-20T06:51:48Z</time>
      </trkpt>
      <trkpt lat="43.4137" lon="-0.54545">
        <ele>233.74</ele>
        <time>2019-04-20T06:51:49Z</time>
      </trkpt>
      <trkpt lat="43.41371" lon="-0.54543">
        <ele>234.22</ele>
        <time>2019-04-20T06:51:50Z</time>
      </trkpt>
      <trkpt lat="43.41371" lon="-0.54541">
        <ele>234.7</ele>
        <time>2019-04-20T06:51:51Z</time>
      </trkpt>
      <trkpt lat="43.41374" lon="-0.5452">
        <ele>239.51</ele>
        <time>2019-04-20T06:52:01Z</time>
      </trkpt>
      <trkpt lat="43.41377" lon="-0.54492">
        <ele>243.35</ele>
        <time>2019-04-20T06:52:14Z</time>
      </trkpt>
      <trkpt lat="43.41383" lon="-0.54459">
        <ele>247.2</ele>
        <time>2019-04-20T06:52:30Z</time>
      </trkpt>
      <trkpt lat="43.41384" lon="-0.5443">
        <ele>251.52</ele>
        <time>2019-04-20T06:52:44Z</time>
      </trkpt>
      <trkpt lat="43.41389" lon="-0.54392">
        <ele>252</ele>
        <time>2019-04-20T06:52:57Z</time>
      </trkpt>
      <trkpt lat="43.41404" lon="-0.54349">
        <ele>251.04</ele>
        <time>2019-04-20T06:53:09Z</time>
      </trkpt>
      <trkpt lat="43.41429" lon="-0.54302">
        <ele>247.68</ele>
        <time>2019-04-20T06:53:21Z</time>
      </trkpt>
      <trkpt lat="43.4144" lon="-0.54281">
        <ele>247.2</ele>
        <time>2019-04-20T06:53:31Z</time>
      </trkpt>
      <trkpt lat="43.41458" lon="-0.54244">
        <ele>247.2</ele>
        <time>2019-04-20T06:53:45Z</time>
      </trkpt>
      <trkpt lat="43.41469" lon="-0.54181">
        <ele>245.75</ele>
        <time>2019-04-20T06:53:58Z</time>
      </trkpt>
      <trkpt lat="43.4146" lon="-0.54117">
        <ele>245.27</ele>
        <time>2019-04-20T06:54:09Z</time>
      </trkpt>
      <trkpt lat="43.41459" lon="-0.54112">
        <ele>245.27</ele>
        <time>2019-04-20T06:54:10Z</time>
      </trkpt>
      <trkpt lat="43.41458" lon="-0.54107">
        <ele>244.79</ele>
        <time>2019-04-20T06:54:11Z</time>
      </trkpt>
      <trkpt lat="43.41456" lon="-0.54101">
        <ele>244.79</ele>
        <time>2019-04-20T06:54:12Z</time>
      </trkpt>
      <trkpt lat="43.41455" lon="-0.54096">
        <ele>244.31</ele>
        <time>2019-04-20T06:54:13Z</time>
      </trkpt>
      <trkpt lat="43.41453" lon="-0.5409">
        <ele>243.83</ele>
        <time>2019-04-20T06:54:14Z</time>
      </trkpt>
      <trkpt lat="43.41451" lon="-0.54083">
        <ele>243.35</ele>
        <time>2019-04-20T06:54:15Z</time>
      </trkpt>
      <trkpt lat="43.41449" lon="-0.54077">
        <ele>242.87</ele>
        <time>2019-04-20T06:54:16Z</time>
      </trkpt>
      <trkpt lat="43.41443" lon="-0.54058">
        <ele>243.35</ele>
        <time>2019-04-20T06:54:19Z</time>
      </trkpt>
      <trkpt lat="43.41439" lon="-0.54044">
        <ele>243.35</ele>
        <time>2019-04-20T06:54:21Z</time>
      </trkpt>
      <trkpt lat="43.41433" lon="-0.53951">
        <ele>239.99</ele>
        <time>2019-04-20T06:54:31Z</time>
      </trkpt>
      <trkpt lat="43.41441" lon="-0.53879">
        <ele>237.1</ele>
        <time>2019-04-20T06:54:38Z</time>
      </trkpt>
      <trkpt lat="43.41441" lon="-0.53868">
        <ele>236.62</ele>
        <time>2019-04-20T06:54:39Z</time>
      </trkpt>
      <trkpt lat="43.4144" lon="-0.53857">
        <ele>236.14</ele>
        <time>2019-04-20T06:54:40Z</time>
      </trkpt>
      <trkpt lat="43.41437" lon="-0.53846">
        <ele>235.66</ele>
        <time>2019-04-20T06:54:41Z</time>
      </trkpt>
      <trkpt lat="43.41433" lon="-0.53837">
        <ele>235.18</ele>
        <time>2019-04-20T06:54:42Z</time>
      </trkpt>
      <trkpt lat="43.41428" lon="-0.53829">
        <ele>234.7</ele>
        <time>2019-04-20T06:54:43Z</time>
      </trkpt>
      <trkpt lat="43.41421" lon="-0.53822">
        <ele>234.22</ele>
        <time>2019-04-20T06:54:44Z</time>
      </trkpt>
      <trkpt lat="43.41414" lon="-0.53817">
        <ele>233.74</ele>
        <time>2019-04-20T06:54:45Z</time>
      </trkpt>
      <trkpt lat="43.41406" lon="-0.53813">
        <ele>233.26</ele>
        <time>2019-04-20T06:54:46Z</time>
      </trkpt>
      <trkpt lat="43.41366" lon="-0.53788">
        <ele>230.85</ele>
        <time>2019-04-20T06:54:53Z</time>
      </trkpt>
      <trkpt lat="43.41362" lon="-0.53782">
        <ele>230.37</ele>
        <time>2019-04-20T06:54:54Z</time>
      </trkpt>
      <trkpt lat="43.4136" lon="-0.53778">
        <ele>230.37</ele>
        <time>2019-04-20T06:54:55Z</time>
      </trkpt>
      <trkpt lat="43.4136" lon="-0.53773">
        <ele>230.37</ele>
        <time>2019-04-20T06:54:56Z</time>
      </trkpt>
      <trkpt lat="43.41359" lon="-0.53768">
        <ele>230.85</ele>
        <time>2019-04-20T06:54:57Z</time>
      </trkpt>
      <trkpt lat="43.41359" lon="-0.53763">
        <ele>230.85</ele>
        <time>2019-04-20T06:54:58Z</time>
      </trkpt>
      <trkpt lat="43.4136" lon="-0.53759">
        <ele>230.85</ele>
        <time>2019-04-20T06:54:59Z</time>
      </trkpt>
      <trkpt lat="43.4136" lon="-0.53755">
        <ele>230.85</ele>
        <time>2019-04-20T06:55:00Z</time>
      </trkpt>
      <trkpt lat="43.41361" lon="-0.53752">
        <ele>231.33</ele>
        <time>2019-04-20T06:55:01Z</time>
      </trkpt>
      <trkpt lat="43.41378" lon="-0.53709">
        <ele>234.7</ele>
        <time>2019-04-20T06:55:15Z</time>
      </trkpt>
      <trkpt lat="43.41391" lon="-0.53664">
        <ele>238.54</ele>
        <time>2019-04-20T06:55:29Z</time>
      </trkpt>
      <trkpt lat="43.41378" lon="-0.53652">
        <ele>238.06</ele>
        <time>2019-04-20T06:55:33Z</time>
      </trkpt>
      <trkpt lat="43.41317" lon="-0.5361">
        <ele>235.66</ele>
        <time>2019-04-20T06:55:45Z</time>
      </trkpt>
      <trkpt lat="43.4123" lon="-0.53551">
        <ele>232.3</ele>
        <time>2019-04-20T06:56:00Z</time>
      </trkpt>
      <trkpt lat="43.4117" lon="-0.53505">
        <ele>233.26</ele>
        <time>2019-04-20T06:56:13Z</time>
      </trkpt>
      <trkpt lat="43.4116" lon="-0.53494">
        <ele>234.7</ele>
        <time>2019-04-20T06:56:16Z</time>
      </trkpt>
      <trkpt lat="43.41157" lon="-0.53489">
        <ele>234.7</ele>
        <time>2019-04-20T06:56:17Z</time>
      </trkpt>
      <trkpt lat="43.41154" lon="-0.53484">
        <ele>235.18</ele>
        <time>2019-04-20T06:56:18Z</time>
      </trkpt>
      <trkpt lat="43.41119" lon="-0.53404">
        <ele>236.62</ele>
        <time>2019-04-20T06:56:33Z</time>
      </trkpt>
      <trkpt lat="43.41104" lon="-0.5335">
        <ele>238.06</ele>
        <time>2019-04-20T06:56:44Z</time>
      </trkpt>
      <trkpt lat="43.41102" lon="-0.53286">
        <ele>239.99</ele>
        <time>2019-04-20T06:56:57Z</time>
      </trkpt>
      <trkpt lat="43.41103" lon="-0.53283">
        <ele>239.99</ele>
        <time>2019-04-20T06:56:58Z</time>
      </trkpt>
      <trkpt lat="43.41104" lon="-0.53282">
        <ele>239.99</ele>
        <time>2019-04-20T06:56:59Z</time>
      </trkpt>
      <trkpt lat="43.41106" lon="-0.53281">
        <ele>240.47</ele>
        <time>2019-04-20T06:57:00Z</time>
      </trkpt>
      <trkpt lat="43.41137" lon="-0.53287">
        <ele>239.02</ele>
        <time>2019-04-20T06:57:10Z</time>
      </trkpt>
      <trkpt lat="43.41142" lon="-0.53289">
        <ele>238.54</ele>
        <time>2019-04-20T06:57:11Z</time>
      </trkpt>
      <trkpt lat="43.41152" lon="-0.53292">
        <ele>236.62</ele>
        <time>2019-04-20T06:57:13Z</time>
      </trkpt>
      <trkpt lat="43.41222" lon="-0.53315">
        <ele>229.41</ele>
        <time>2019-04-20T06:57:25Z</time>
      </trkpt>
      <trkpt lat="43.41295" lon="-0.53335">
        <ele>224.61</ele>
        <time>2019-04-20T06:57:37Z</time>
      </trkpt>
      <trkpt lat="43.41339" lon="-0.53345">
        <ele>223.64</ele>
        <time>2019-04-20T06:57:46Z</time>
      </trkpt>
      <trkpt lat="43.4135" lon="-0.53348">
        <ele>223.16</ele>
        <time>2019-04-20T06:57:48Z</time>
      </trkpt>
      <trkpt lat="43.4136" lon="-0.53351">
        <ele>222.2</ele>
        <time>2019-04-20T06:57:50Z</time>
      </trkpt>
      <trkpt lat="43.41397" lon="-0.53356">
        <ele>218.36</ele>
        <time>2019-04-20T06:57:57Z</time>
      </trkpt>
      <trkpt lat="43.41402" lon="-0.53355">
        <ele>217.88</ele>
        <time>2019-04-20T06:57:58Z</time>
      </trkpt>
      <trkpt lat="43.41407" lon="-0.53354">
        <ele>217.4</ele>
        <time>2019-04-20T06:57:59Z</time>
      </trkpt>
      <trkpt lat="43.41412" lon="-0.53351">
        <ele>216.91</ele>
        <time>2019-04-20T06:58:00Z</time>
      </trkpt>
      <trkpt lat="43.41415" lon="-0.53348">
        <ele>216.43</ele>
        <time>2019-04-20T06:58:01Z</time>
      </trkpt>
      <trkpt lat="43.41419" lon="-0.53344">
        <ele>215.95</ele>
        <time>2019-04-20T06:58:02Z</time>
      </trkpt>
      <trkpt lat="43.41422" lon="-0.53339">
        <ele>215.47</ele>
        <time>2019-04-20T06:58:03Z</time>
      </trkpt>
      <trkpt lat="43.4145" lon="-0.53268">
        <ele>211.63</ele>
        <time>2019-04-20T06:58:15Z</time>
      </trkpt>
      <trkpt lat="43.41458" lon="-0.53244">
        <ele>209.7</ele>
        <time>2019-04-20T06:58:20Z</time>
      </trkpt>
      <trkpt lat="43.4146" lon="-0.53239">
        <ele>209.7</ele>
        <time>2019-04-20T06:58:21Z</time>
      </trkpt>
      <trkpt lat="43.41461" lon="-0.53234">
        <ele>209.7</ele>
        <time>2019-04-20T06:58:22Z</time>
      </trkpt>
      <trkpt lat="43.41462" lon="-0.53229">
        <ele>209.7</ele>
        <time>2019-04-20T06:58:23Z</time>
      </trkpt>
      <trkpt lat="43.41461" lon="-0.53225">
        <ele>209.22</ele>
        <time>2019-04-20T06:58:24Z</time>
      </trkpt>
      <trkpt lat="43.41461" lon="-0.53221">
        <ele>208.74</ele>
        <time>2019-04-20T06:58:25Z</time>
      </trkpt>
      <trkpt lat="43.4146" lon="-0.53216">
        <ele>208.26</ele>
        <time>2019-04-20T06:58:26Z</time>
      </trkpt>
      <trkpt lat="43.41459" lon="-0.53188">
        <ele>206.34</ele>
        <time>2019-04-20T06:58:31Z</time>
      </trkpt>
      <trkpt lat="43.4146" lon="-0.53183">
        <ele>205.86</ele>
        <time>2019-04-20T06:58:32Z</time>
      </trkpt>
      <trkpt lat="43.41463" lon="-0.53179">
        <ele>205.86</ele>
        <time>2019-04-20T06:58:33Z</time>
      </trkpt>
      <trkpt lat="43.41467" lon="-0.53179">
        <ele>205.86</ele>
        <time>2019-04-20T06:58:34Z</time>
      </trkpt>
      <trkpt lat="43.41472" lon="-0.5318">
        <ele>205.86</ele>
        <time>2019-04-20T06:58:35Z</time>
      </trkpt>
      <trkpt lat="43.41476" lon="-0.53182">
        <ele>205.38</ele>
        <time>2019-04-20T06:58:36Z</time>
      </trkpt>
      <trkpt lat="43.41482" lon="-0.53184">
        <ele>205.38</ele>
        <time>2019-04-20T06:58:37Z</time>
      </trkpt>
      <trkpt lat="43.41515" lon="-0.53197">
        <ele>203.94</ele>
        <time>2019-04-20T06:58:43Z</time>
      </trkpt>
      <trkpt lat="43.41518" lon="-0.53198">
        <ele>203.46</ele>
        <time>2019-04-20T06:58:44Z</time>
      </trkpt>
      <trkpt lat="43.41543" lon="-0.53184">
        <ele>202.49</ele>
        <time>2019-04-20T06:58:53Z</time>
      </trkpt>
      <trkpt lat="43.41552" lon="-0.53171">
        <ele>201.53</ele>
        <time>2019-04-20T06:58:56Z</time>
      </trkpt>
      <trkpt lat="43.41556" lon="-0.53159">
        <ele>200.57</ele>
        <time>2019-04-20T06:58:58Z</time>
      </trkpt>
      <trkpt lat="43.4156" lon="-0.53139">
        <ele>199.13</ele>
        <time>2019-04-20T06:59:01Z</time>
      </trkpt>
      <trkpt lat="43.41564" lon="-0.53119">
        <ele>197.21</ele>
        <time>2019-04-20T06:59:04Z</time>
      </trkpt>
      <trkpt lat="43.41564" lon="-0.53112">
        <ele>196.73</ele>
        <time>2019-04-20T06:59:05Z</time>
      </trkpt>
      <trkpt lat="43.41563" lon="-0.53098">
        <ele>195.77</ele>
        <time>2019-04-20T06:59:07Z</time>
      </trkpt>
      <trkpt lat="43.41562" lon="-0.53091">
        <ele>195.28</ele>
        <time>2019-04-20T06:59:08Z</time>
      </trkpt>
      <trkpt lat="43.41551" lon="-0.53038">
        <ele>191.92</ele>
        <time>2019-04-20T06:59:18Z</time>
      </trkpt>
      <trkpt lat="43.4155" lon="-0.5303">
        <ele>193.84</ele>
        <time>2019-04-20T06:59:32Z</time>
      </trkpt>
      <trkpt lat="43.41549" lon="-0.53029">
        <ele>193.36</ele>
        <time>2019-04-20T06:59:33Z</time>
      </trkpt>
      <trkpt lat="43.4155" lon="-0.53028">
        <ele>193.84</ele>
        <time>2019-04-20T06:59:34Z</time>
      </trkpt>
      <trkpt lat="43.41549" lon="-0.53025">
        <ele>193.84</ele>
        <time>2019-04-20T06:59:35Z</time>
      </trkpt>
      <trkpt lat="43.4154" lon="-0.52994">
        <ele>196.25</ele>
        <time>2019-04-20T06:59:44Z</time>
      </trkpt>
      <trkpt lat="43.41536" lon="-0.52984">
        <ele>196.25</ele>
        <time>2019-04-20T06:59:46Z</time>
      </trkpt>
      <trkpt lat="43.41534" lon="-0.52977">
        <ele>196.25</ele>
        <time>2019-04-20T06:59:47Z</time>
      </trkpt>
      <trkpt lat="43.4151" lon="-0.5291">
        <ele>193.84</ele>
        <time>2019-04-20T06:59:57Z</time>
      </trkpt>
      <trkpt lat="43.41497" lon="-0.52858">
        <ele>191.44</ele>
        <time>2019-04-20T07:00:02Z</time>
      </trkpt>
      <trkpt lat="43.41487" lon="-0.52823">
        <ele>189.04</ele>
        <time>2019-04-20T07:00:06Z</time>
      </trkpt>
      <trkpt lat="43.41488" lon="-0.52816">
        <ele>188.56</ele>
        <time>2019-04-20T07:00:07Z</time>
      </trkpt>
      <trkpt lat="43.41489" lon="-0.52809">
        <ele>187.59</ele>
        <time>2019-04-20T07:00:08Z</time>
      </trkpt>
      <trkpt lat="43.41491" lon="-0.52802">
        <ele>187.11</ele>
        <time>2019-04-20T07:00:09Z</time>
      </trkpt>
      <trkpt lat="43.41493" lon="-0.52795">
        <ele>186.15</ele>
        <time>2019-04-20T07:00:10Z</time>
      </trkpt>
      <trkpt lat="43.41494" lon="-0.52788">
        <ele>185.67</ele>
        <time>2019-04-20T07:00:11Z</time>
      </trkpt>
      <trkpt lat="43.41494" lon="-0.5278">
        <ele>185.19</ele>
        <time>2019-04-20T07:00:12Z</time>
      </trkpt>
      <trkpt lat="43.41494" lon="-0.52772">
        <ele>184.71</ele>
        <time>2019-04-20T07:00:13Z</time>
      </trkpt>
      <trkpt lat="43.41494" lon="-0.52764">
        <ele>184.23</ele>
        <time>2019-04-20T07:00:14Z</time>
      </trkpt>
      <trkpt lat="43.41494" lon="-0.52757">
        <ele>183.75</ele>
        <time>2019-04-20T07:00:15Z</time>
      </trkpt>
      <trkpt lat="43.41494" lon="-0.5275">
        <ele>183.27</ele>
        <time>2019-04-20T07:00:16Z</time>
      </trkpt>
      <trkpt lat="43.41495" lon="-0.52744">
        <ele>182.79</ele>
        <time>2019-04-20T07:00:17Z</time>
      </trkpt>
      <trkpt lat="43.41496" lon="-0.52738">
        <ele>182.31</ele>
        <time>2019-04-20T07:00:18Z</time>
      </trkpt>
      <trkpt lat="43.415" lon="-0.52725">
        <ele>181.35</ele>
        <time>2019-04-20T07:00:20Z</time>
      </trkpt>
      <trkpt lat="43.41501" lon="-0.52718">
        <ele>180.87</ele>
        <time>2019-04-20T07:00:21Z</time>
      </trkpt>
      <trkpt lat="43.41503" lon="-0.52711">
        <ele>180.38</ele>
        <time>2019-04-20T07:00:22Z</time>
      </trkpt>
      <trkpt lat="43.41505" lon="-0.52704">
        <ele>179.9</ele>
        <time>2019-04-20T07:00:23Z</time>
      </trkpt>
      <trkpt lat="43.41507" lon="-0.52698">
        <ele>179.9</ele>
        <time>2019-04-20T07:00:24Z</time>
      </trkpt>
      <trkpt lat="43.41511" lon="-0.52694">
        <ele>179.9</ele>
        <time>2019-04-20T07:00:25Z</time>
      </trkpt>
      <trkpt lat="43.41514" lon="-0.52692">
        <ele>179.9</ele>
        <time>2019-04-20T07:00:26Z</time>
      </trkpt>
      <trkpt lat="43.41516" lon="-0.52691">
        <ele>180.38</ele>
        <time>2019-04-20T07:00:27Z</time>
      </trkpt>
      <trkpt lat="43.41549" lon="-0.5268">
        <ele>183.75</ele>
        <time>2019-04-20T07:00:37Z</time>
      </trkpt>
      <trkpt lat="43.41552" lon="-0.5268">
        <ele>184.23</ele>
        <time>2019-04-20T07:00:38Z</time>
      </trkpt>
      <trkpt lat="43.41553" lon="-0.5268">
        <ele>184.23</ele>
        <time>2019-04-20T07:00:39Z</time>
      </trkpt>
      <trkpt lat="43.41565" lon="-0.52694">
        <ele>182.79</ele>
        <time>2019-04-20T07:00:49Z</time>
      </trkpt>
      <trkpt lat="43.41564" lon="-0.52693">
        <ele>182.79</ele>
        <time>2019-04-20T07:00:50Z</time>
      </trkpt>
      <trkpt lat="43.41564" lon="-0.52691">
        <ele>182.79</ele>
        <time>2019-04-20T07:00:51Z</time>
      </trkpt>
      <trkpt lat="43.41559" lon="-0.52678">
        <ele>182.79</ele>
        <time>2019-04-20T07:01:04Z</time>
      </trkpt>
      <trkpt lat="43.41559" lon="-0.52669">
        <ele>180.87</ele>
        <time>2019-04-20T07:01:17Z</time>
      </trkpt>
      <trkpt lat="43.41559" lon="-0.52668">
        <ele>181.35</ele>
        <time>2019-04-20T07:01:18Z</time>
      </trkpt>
      <trkpt lat="43.41558" lon="-0.52666">
        <ele>181.35</ele>
        <time>2019-04-20T07:01:19Z</time>
      </trkpt>
      <trkpt lat="43.41556" lon="-0.52664">
        <ele>181.35</ele>
        <time>2019-04-20T07:01:20Z</time>
      </trkpt>
      <trkpt lat="43.41555" lon="-0.52663">
        <ele>181.83</ele>
        <time>2019-04-20T07:01:21Z</time>
      </trkpt>
      <trkpt lat="43.41554" lon="-0.52661">
        <ele>181.83</ele>
        <time>2019-04-20T07:01:22Z</time>
      </trkpt>
      <trkpt lat="43.41553" lon="-0.52659">
        <ele>182.31</ele>
        <time>2019-04-20T07:01:23Z</time>
      </trkpt>
      <trkpt lat="43.41552" lon="-0.52657">
        <ele>182.31</ele>
        <time>2019-04-20T07:01:24Z</time>
      </trkpt>
      <trkpt lat="43.41551" lon="-0.52654">
        <ele>182.79</ele>
        <time>2019-04-20T07:01:25Z</time>
      </trkpt>
      <trkpt lat="43.41549" lon="-0.52651">
        <ele>183.27</ele>
        <time>2019-04-20T07:01:26Z</time>
      </trkpt>
      <trkpt lat="43.41548" lon="-0.52648">
        <ele>183.75</ele>
        <time>2019-04-20T07:01:27Z</time>
      </trkpt>
      <trkpt lat="43.41544" lon="-0.52633">
        <ele>185.19</ele>
        <time>2019-04-20T07:01:33Z</time>
      </trkpt>
      <trkpt lat="43.41544" lon="-0.52631">
        <ele>186.15</ele>
        <time>2019-04-20T07:01:34Z</time>
      </trkpt>
      <trkpt lat="43.41543" lon="-0.52628">
        <ele>186.63</ele>
        <time>2019-04-20T07:01:35Z</time>
      </trkpt>
      <trkpt lat="43.41543" lon="-0.52625">
        <ele>186.63</ele>
        <time>2019-04-20T07:01:36Z</time>
      </trkpt>
      <trkpt lat="43.41542" lon="-0.52622">
        <ele>187.11</ele>
        <time>2019-04-20T07:01:37Z</time>
      </trkpt>
      <trkpt lat="43.41541" lon="-0.52618">
        <ele>187.11</ele>
        <time>2019-04-20T07:01:38Z</time>
      </trkpt>
      <trkpt lat="43.41541" lon="-0.52615">
        <ele>187.59</ele>
        <time>2019-04-20T07:01:39Z</time>
      </trkpt>
      <trkpt lat="43.41538" lon="-0.52604">
        <ele>188.56</ele>
        <time>2019-04-20T07:01:43Z</time>
      </trkpt>
      <trkpt lat="43.41538" lon="-0.52601">
        <ele>189.04</ele>
        <time>2019-04-20T07:01:44Z</time>
      </trkpt>
      <trkpt lat="43.41537" lon="-0.52599">
        <ele>189.52</ele>
        <time>2019-04-20T07:01:45Z</time>
      </trkpt>
      <trkpt lat="43.4154" lon="-0.52564">
        <ele>193.36</ele>
        <time>2019-04-20T07:01:58Z</time>
      </trkpt>
      <trkpt lat="43.41539" lon="-0.52541">
        <ele>195.77</ele>
        <time>2019-04-20T07:02:11Z</time>
      </trkpt>
      <trkpt lat="43.41533" lon="-0.52501">
        <ele>196.73</ele>
        <time>2019-04-20T07:02:27Z</time>
      </trkpt>
      <trkpt lat="43.41516" lon="-0.5245">
        <ele>196.73</ele>
        <time>2019-04-20T07:02:44Z</time>
      </trkpt>
      <trkpt lat="43.41498" lon="-0.52397">
        <ele>195.28</ele>
        <time>2019-04-20T07:02:57Z</time>
      </trkpt>
      <trkpt lat="43.41496" lon="-0.52392">
        <ele>195.28</ele>
        <time>2019-04-20T07:02:58Z</time>
      </trkpt>
      <trkpt lat="43.41469" lon="-0.52329">
        <ele>195.28</ele>
        <time>2019-04-20T07:03:11Z</time>
      </trkpt>
      <trkpt lat="43.41457" lon="-0.52269">
        <ele>195.77</ele>
        <time>2019-04-20T07:03:23Z</time>
      </trkpt>
      <trkpt lat="43.41465" lon="-0.52233">
        <ele>196.73</ele>
        <time>2019-04-20T07:03:36Z</time>
      </trkpt>
      <trkpt lat="43.4146" lon="-0.52225">
        <ele>197.21</ele>
        <time>2019-04-20T07:03:41Z</time>
      </trkpt>
      <trkpt lat="43.41431" lon="-0.52226">
        <ele>200.09</ele>
        <time>2019-04-20T07:03:56Z</time>
      </trkpt>
      <trkpt lat="43.41424" lon="-0.52222">
        <ele>200.09</ele>
        <time>2019-04-20T07:04:00Z</time>
      </trkpt>
      <trkpt lat="43.41408" lon="-0.52193">
        <ele>202.49</ele>
        <time>2019-04-20T07:04:13Z</time>
      </trkpt>
      <trkpt lat="43.414" lon="-0.5217">
        <ele>203.94</ele>
        <time>2019-04-20T07:04:26Z</time>
      </trkpt>
      <trkpt lat="43.41387" lon="-0.52142">
        <ele>209.22</ele>
        <time>2019-04-20T07:04:40Z</time>
      </trkpt>
      <trkpt lat="43.41376" lon="-0.52108">
        <ele>214.03</ele>
        <time>2019-04-20T07:04:58Z</time>
      </trkpt>
      <trkpt lat="43.41371" lon="-0.52081">
        <ele>218.36</ele>
        <time>2019-04-20T07:05:13Z</time>
      </trkpt>
      <trkpt lat="43.41366" lon="-0.52042">
        <ele>221.72</ele>
        <time>2019-04-20T07:05:30Z</time>
      </trkpt>
      <trkpt lat="43.41359" lon="-0.52013">
        <ele>223.64</ele>
        <time>2019-04-20T07:05:43Z</time>
      </trkpt>
      <trkpt lat="43.41356" lon="-0.52005">
        <ele>224.61</ele>
        <time>2019-04-20T07:05:47Z</time>
      </trkpt>
      <trkpt lat="43.41348" lon="-0.51979">
        <ele>226.05</ele>
        <time>2019-04-20T07:05:58Z</time>
      </trkpt>
      <trkpt lat="43.4134" lon="-0.51956">
        <ele>230.85</ele>
        <time>2019-04-20T07:06:10Z</time>
      </trkpt>
      <trkpt lat="43.41337" lon="-0.51945">
        <ele>232.78</ele>
        <time>2019-04-20T07:06:16Z</time>
      </trkpt>
      <trkpt lat="43.41336" lon="-0.51939">
        <ele>233.26</ele>
        <time>2019-04-20T07:06:19Z</time>
      </trkpt>
      <trkpt lat="43.41336" lon="-0.51936">
        <ele>233.26</ele>
        <time>2019-04-20T07:06:20Z</time>
      </trkpt>
      <trkpt lat="43.41336" lon="-0.51933">
        <ele>233.26</ele>
        <time>2019-04-20T07:06:21Z</time>
      </trkpt>
      <trkpt lat="43.41336" lon="-0.51931">
        <ele>233.74</ele>
        <time>2019-04-20T07:06:22Z</time>
      </trkpt>
      <trkpt lat="43.4133" lon="-0.51905">
        <ele>235.18</ele>
        <time>2019-04-20T07:06:31Z</time>
      </trkpt>
      <trkpt lat="43.4133" lon="-0.51902">
        <ele>234.7</ele>
        <time>2019-04-20T07:06:32Z</time>
      </trkpt>
      <trkpt lat="43.4133" lon="-0.51899">
        <ele>234.7</ele>
        <time>2019-04-20T07:06:33Z</time>
      </trkpt>
      <trkpt lat="43.41329" lon="-0.51896">
        <ele>234.7</ele>
        <time>2019-04-20T07:06:34Z</time>
      </trkpt>
      <trkpt lat="43.41328" lon="-0.51893">
        <ele>234.22</ele>
        <time>2019-04-20T07:06:35Z</time>
      </trkpt>
      <trkpt lat="43.41328" lon="-0.5189">
        <ele>234.22</ele>
        <time>2019-04-20T07:06:36Z</time>
      </trkpt>
      <trkpt lat="43.41328" lon="-0.51888">
        <ele>234.22</ele>
        <time>2019-04-20T07:06:37Z</time>
      </trkpt>
      <trkpt lat="43.41327" lon="-0.51881">
        <ele>234.22</ele>
        <time>2019-04-20T07:06:40Z</time>
      </trkpt>
      <trkpt lat="43.41327" lon="-0.51878">
        <ele>233.74</ele>
        <time>2019-04-20T07:06:41Z</time>
      </trkpt>
      <trkpt lat="43.41325" lon="-0.51844">
        <ele>232.78</ele>
        <time>2019-04-20T07:06:55Z</time>
      </trkpt>
      <trkpt lat="43.41325" lon="-0.51832">
        <ele>234.22</ele>
        <time>2019-04-20T07:07:00Z</time>
      </trkpt>
      <trkpt lat="43.41324" lon="-0.5183">
        <ele>234.7</ele>
        <time>2019-04-20T07:07:01Z</time>
      </trkpt>
      <trkpt lat="43.41323" lon="-0.51803">
        <ele>236.14</ele>
        <time>2019-04-20T07:07:12Z</time>
      </trkpt>
      <trkpt lat="43.41323" lon="-0.51801">
        <ele>236.62</ele>
        <time>2019-04-20T07:07:13Z</time>
      </trkpt>
      <trkpt lat="43.41316" lon="-0.51773">
        <ele>240.47</ele>
        <time>2019-04-20T07:07:26Z</time>
      </trkpt>
      <trkpt lat="43.4131" lon="-0.51744">
        <ele>241.43</ele>
        <time>2019-04-20T07:07:40Z</time>
      </trkpt>
      <trkpt lat="43.41303" lon="-0.5171">
        <ele>240.95</ele>
        <time>2019-04-20T07:07:55Z</time>
      </trkpt>
      <trkpt lat="43.41296" lon="-0.5168">
        <ele>241.43</ele>
        <time>2019-04-20T07:08:09Z</time>
      </trkpt>
      <trkpt lat="43.41288" lon="-0.51655">
        <ele>241.91</ele>
        <time>2019-04-20T07:08:21Z</time>
      </trkpt>
      <trkpt lat="43.41287" lon="-0.51653">
        <ele>241.91</ele>
        <time>2019-04-20T07:08:22Z</time>
      </trkpt>
      <trkpt lat="43.41286" lon="-0.51651">
        <ele>241.91</ele>
        <time>2019-04-20T07:08:23Z</time>
      </trkpt>
      <trkpt lat="43.41279" lon="-0.51624">
        <ele>246.23</ele>
        <time>2019-04-20T07:08:35Z</time>
      </trkpt>
      <trkpt lat="43.41274" lon="-0.51589">
        <ele>246.23</ele>
        <time>2019-04-20T07:08:48Z</time>
      </trkpt>
      <trkpt lat="43.4127" lon="-0.51544">
        <ele>248.16</ele>
        <time>2019-04-20T07:09:05Z</time>
      </trkpt>
      <trkpt lat="43.4127" lon="-0.51541">
        <ele>248.64</ele>
        <time>2019-04-20T07:09:06Z</time>
      </trkpt>
      <trkpt lat="43.41269" lon="-0.51539">
        <ele>249.12</ele>
        <time>2019-04-20T07:09:07Z</time>
      </trkpt>
      <trkpt lat="43.41269" lon="-0.51537">
        <ele>249.6</ele>
        <time>2019-04-20T07:09:08Z</time>
      </trkpt>
      <trkpt lat="43.41269" lon="-0.51534">
        <ele>249.6</ele>
        <time>2019-04-20T07:09:09Z</time>
      </trkpt>
      <trkpt lat="43.41269" lon="-0.51532">
        <ele>250.08</ele>
        <time>2019-04-20T07:09:10Z</time>
      </trkpt>
      <trkpt lat="43.4127" lon="-0.51495">
        <ele>252</ele>
        <time>2019-04-20T07:09:24Z</time>
      </trkpt>
      <trkpt lat="43.41271" lon="-0.51453">
        <ele>253.93</ele>
        <time>2019-04-20T07:09:39Z</time>
      </trkpt>
      <trkpt lat="43.41261" lon="-0.51404">
        <ele>254.89</ele>
        <time>2019-04-20T07:09:53Z</time>
      </trkpt>
      <trkpt lat="43.41248" lon="-0.51347">
        <ele>256.33</ele>
        <time>2019-04-20T07:10:07Z</time>
      </trkpt>
      <trkpt lat="43.41227" lon="-0.51298">
        <ele>254.41</ele>
        <time>2019-04-20T07:10:19Z</time>
      </trkpt>
      <trkpt lat="43.41225" lon="-0.51259">
        <ele>253.44</ele>
        <time>2019-04-20T07:10:29Z</time>
      </trkpt>
      <trkpt lat="43.41224" lon="-0.51259">
        <ele>252.96</ele>
        <time>2019-04-20T07:10:30Z</time>
      </trkpt>
      <trkpt lat="43.41223" lon="-0.5126">
        <ele>252.96</ele>
        <time>2019-04-20T07:10:31Z</time>
      </trkpt>
      <trkpt lat="43.41222" lon="-0.51262">
        <ele>253.44</ele>
        <time>2019-04-20T07:10:32Z</time>
      </trkpt>
      <trkpt lat="43.41209" lon="-0.51285">
        <ele>252.96</ele>
        <time>2019-04-20T07:10:44Z</time>
      </trkpt>
      <trkpt lat="43.41202" lon="-0.5129">
        <ele>251.52</ele>
        <time>2019-04-20T07:10:48Z</time>
      </trkpt>
      <trkpt lat="43.41201" lon="-0.5129">
        <ele>251.52</ele>
        <time>2019-04-20T07:10:49Z</time>
      </trkpt>
      <trkpt lat="43.41199" lon="-0.5129">
        <ele>251.04</ele>
        <time>2019-04-20T07:10:50Z</time>
      </trkpt>
      <trkpt lat="43.41195" lon="-0.51288">
        <ele>250.08</ele>
        <time>2019-04-20T07:11:01Z</time>
      </trkpt>
      <trkpt lat="43.41197" lon="-0.51288">
        <ele>249.6</ele>
        <time>2019-04-20T07:11:32Z</time>
      </trkpt>
      <trkpt lat="43.41196" lon="-0.51286">
        <ele>247.2</ele>
        <time>2019-04-20T07:12:04Z</time>
      </trkpt>
      <trkpt lat="43.41193" lon="-0.51285">
        <ele>248.64</ele>
        <time>2019-04-20T07:12:34Z</time>
      </trkpt>
      <trkpt lat="43.41196" lon="-0.51287">
        <ele>249.6</ele>
        <time>2019-04-20T07:12:59Z</time>
      </trkpt>
      <trkpt lat="43.41198" lon="-0.51288">
        <ele>250.08</ele>
        <time>2019-04-20T07:13:27Z</time>
      </trkpt>
      <trkpt lat="43.41198" lon="-0.51288">
        <ele>250.56</ele>
        <time>2019-04-20T07:13:40Z</time>
      </trkpt>
      <trkpt lat="43.4122" lon="-0.51267">
        <ele>253.93</ele>
        <time>2019-04-20T07:13:53Z</time>
      </trkpt>
      <trkpt lat="43.41235" lon="-0.51204">
        <ele>254.41</ele>
        <time>2019-04-20T07:14:06Z</time>
      </trkpt>
      <trkpt lat="43.41266" lon="-0.51131">
        <ele>255.37</ele>
        <time>2019-04-20T07:14:23Z</time>
      </trkpt>
      <trkpt lat="43.41301" lon="-0.51057">
        <ele>256.33</ele>
        <time>2019-04-20T07:14:41Z</time>
      </trkpt>
      <trkpt lat="43.41337" lon="-0.50985">
        <ele>256.81</ele>
        <time>2019-04-20T07:14:59Z</time>
      </trkpt>
      <trkpt lat="43.4136" lon="-0.50906">
        <ele>257.29</ele>
        <time>2019-04-20T07:15:15Z</time>
      </trkpt>
      <trkpt lat="43.41383" lon="-0.50805">
        <ele>257.29</ele>
        <time>2019-04-20T07:15:34Z</time>
      </trkpt>
      <trkpt lat="43.414" lon="-0.50713">
        <ele>259.21</ele>
        <time>2019-04-20T07:15:49Z</time>
      </trkpt>
      <trkpt lat="43.41421" lon="-0.50638">
        <ele>261.14</ele>
        <time>2019-04-20T07:16:05Z</time>
      </trkpt>
      <trkpt lat="43.41423" lon="-0.50632">
        <ele>260.65</ele>
        <time>2019-04-20T07:16:08Z</time>
      </trkpt>
      <trkpt lat="43.41422" lon="-0.5063">
        <ele>260.65</ele>
        <time>2019-04-20T07:16:09Z</time>
      </trkpt>
      <trkpt lat="43.41421" lon="-0.50627">
        <ele>260.65</ele>
        <time>2019-04-20T07:16:10Z</time>
      </trkpt>
      <trkpt lat="43.4142" lon="-0.50625">
        <ele>260.65</ele>
        <time>2019-04-20T07:16:11Z</time>
      </trkpt>
      <trkpt lat="43.41418" lon="-0.50623">
        <ele>260.65</ele>
        <time>2019-04-20T07:16:12Z</time>
      </trkpt>
      <trkpt lat="43.41391" lon="-0.50573">
        <ele>259.21</ele>
        <time>2019-04-20T07:16:25Z</time>
      </trkpt>
      <trkpt lat="43.4135" lon="-0.50501">
        <ele>257.77</ele>
        <time>2019-04-20T07:16:41Z</time>
      </trkpt>
      <trkpt lat="43.41315" lon="-0.50447">
        <ele>257.77</ele>
        <time>2019-04-20T07:16:54Z</time>
      </trkpt>
      <trkpt lat="43.41274" lon="-0.5038">
        <ele>258.73</ele>
        <time>2019-04-20T07:17:09Z</time>
      </trkpt>
      <trkpt lat="43.41227" lon="-0.50312">
        <ele>258.73</ele>
        <time>2019-04-20T07:17:24Z</time>
      </trkpt>
      <trkpt lat="43.41191" lon="-0.50255">
        <ele>258.25</ele>
        <time>2019-04-20T07:17:38Z</time>
      </trkpt>
      <trkpt lat="43.41163" lon="-0.50205">
        <ele>259.21</ele>
        <time>2019-04-20T07:17:49Z</time>
      </trkpt>
      <trkpt lat="43.41139" lon="-0.50147">
        <ele>261.62</ele>
        <time>2019-04-20T07:18:02Z</time>
      </trkpt>
      <trkpt lat="43.41108" lon="-0.50075">
        <ele>262.1</ele>
        <time>2019-04-20T07:18:16Z</time>
      </trkpt>
      <trkpt lat="43.41073" lon="-0.50001">
        <ele>262.1</ele>
        <time>2019-04-20T07:18:30Z</time>
      </trkpt>
      <trkpt lat="43.4107" lon="-0.49996">
        <ele>262.1</ele>
        <time>2019-04-20T07:18:31Z</time>
      </trkpt>
      <trkpt lat="43.41068" lon="-0.49992">
        <ele>262.58</ele>
        <time>2019-04-20T07:18:32Z</time>
      </trkpt>
      <trkpt lat="43.41066" lon="-0.49987">
        <ele>262.58</ele>
        <time>2019-04-20T07:18:33Z</time>
      </trkpt>
      <trkpt lat="43.41066" lon="-0.49981">
        <ele>262.58</ele>
        <time>2019-04-20T07:18:34Z</time>
      </trkpt>
      <trkpt lat="43.41069" lon="-0.49977">
        <ele>263.06</ele>
        <time>2019-04-20T07:18:35Z</time>
      </trkpt>
      <trkpt lat="43.41073" lon="-0.49973">
        <ele>263.06</ele>
        <time>2019-04-20T07:18:36Z</time>
      </trkpt>
      <trkpt lat="43.41076" lon="-0.49972">
        <ele>263.06</ele>
        <time>2019-04-20T07:18:37Z</time>
      </trkpt>
      <trkpt lat="43.41081" lon="-0.4997">
        <ele>263.54</ele>
        <time>2019-04-20T07:18:38Z</time>
      </trkpt>
      <trkpt lat="43.41093" lon="-0.49966">
        <ele>264.5</ele>
        <time>2019-04-20T07:18:42Z</time>
      </trkpt>
      <trkpt lat="43.41095" lon="-0.49965">
        <ele>264.5</ele>
        <time>2019-04-20T07:18:43Z</time>
      </trkpt>
      <trkpt lat="43.41098" lon="-0.49964">
        <ele>264.98</ele>
        <time>2019-04-20T07:18:44Z</time>
      </trkpt>
      <trkpt lat="43.41099" lon="-0.49963">
        <ele>264.98</ele>
        <time>2019-04-20T07:18:45Z</time>
      </trkpt>
      <trkpt lat="43.411" lon="-0.49962">
        <ele>265.46</ele>
        <time>2019-04-20T07:18:46Z</time>
      </trkpt>
      <trkpt lat="43.41102" lon="-0.49962">
        <ele>265.94</ele>
        <time>2019-04-20T07:18:47Z</time>
      </trkpt>
      <trkpt lat="43.41103" lon="-0.49964">
        <ele>265.94</ele>
        <time>2019-04-20T07:18:48Z</time>
      </trkpt>
      <trkpt lat="43.41101" lon="-0.49968">
        <ele>265.94</ele>
        <time>2019-04-20T07:18:50Z</time>
      </trkpt>
      <trkpt lat="43.41099" lon="-0.49968">
        <ele>265.94</ele>
        <time>2019-04-20T07:18:51Z</time>
      </trkpt>
      <trkpt lat="43.41076" lon="-0.49967">
        <ele>265.46</ele>
        <time>2019-04-20T07:18:58Z</time>
      </trkpt>
      <trkpt lat="43.41074" lon="-0.49962">
        <ele>264.98</ele>
        <time>2019-04-20T07:18:59Z</time>
      </trkpt>
      <trkpt lat="43.41074" lon="-0.49957">
        <ele>264.98</ele>
        <time>2019-04-20T07:19:00Z</time>
      </trkpt>
      <trkpt lat="43.41074" lon="-0.49951">
        <ele>264.98</ele>
        <time>2019-04-20T07:19:01Z</time>
      </trkpt>
      <trkpt lat="43.41074" lon="-0.49945">
        <ele>264.5</ele>
        <time>2019-04-20T07:19:02Z</time>
      </trkpt>
      <trkpt lat="43.41074" lon="-0.49938">
        <ele>264.5</ele>
        <time>2019-04-20T07:19:03Z</time>
      </trkpt>
      <trkpt lat="43.41076" lon="-0.49932">
        <ele>264.02</ele>
        <time>2019-04-20T07:19:04Z</time>
      </trkpt>
      <trkpt lat="43.41077" lon="-0.49926">
        <ele>264.02</ele>
        <time>2019-04-20T07:19:05Z</time>
      </trkpt>
      <trkpt lat="43.41084" lon="-0.49901">
        <ele>263.54</ele>
        <time>2019-04-20T07:19:09Z</time>
      </trkpt>
      <trkpt lat="43.41085" lon="-0.49894">
        <ele>263.54</ele>
        <time>2019-04-20T07:19:10Z</time>
      </trkpt>
      <trkpt lat="43.41085" lon="-0.49887">
        <ele>263.54</ele>
        <time>2019-04-20T07:19:11Z</time>
      </trkpt>
      <trkpt lat="43.41085" lon="-0.49849">
        <ele>263.54</ele>
        <time>2019-04-20T07:19:16Z</time>
      </trkpt>
      <trkpt lat="43.41084" lon="-0.49833">
        <ele>262.58</ele>
        <time>2019-04-20T07:19:18Z</time>
      </trkpt>
      <trkpt lat="43.41082" lon="-0.49824">
        <ele>261.62</ele>
        <time>2019-04-20T07:19:19Z</time>
      </trkpt>
      <trkpt lat="43.41073" lon="-0.49777">
        <ele>259.21</ele>
        <time>2019-04-20T07:19:24Z</time>
      </trkpt>
      <trkpt lat="43.41072" lon="-0.49767">
        <ele>258.73</ele>
        <time>2019-04-20T07:19:25Z</time>
      </trkpt>
      <trkpt lat="43.4107" lon="-0.49694">
        <ele>256.33</ele>
        <time>2019-04-20T07:19:32Z</time>
      </trkpt>
      <trkpt lat="43.41071" lon="-0.49673">
        <ele>256.33</ele>
        <time>2019-04-20T07:19:34Z</time>
      </trkpt>
      <trkpt lat="43.41075" lon="-0.49601">
        <ele>254.89</ele>
        <time>2019-04-20T07:19:41Z</time>
      </trkpt>
      <trkpt lat="43.41074" lon="-0.49591">
        <ele>254.41</ele>
        <time>2019-04-20T07:19:42Z</time>
      </trkpt>
      <trkpt lat="43.41044" lon="-0.49439">
        <ele>252.96</ele>
        <time>2019-04-20T07:19:57Z</time>
      </trkpt>
      <trkpt lat="43.4101" lon="-0.49293">
        <ele>251.52</ele>
        <time>2019-04-20T07:20:13Z</time>
      </trkpt>
      <trkpt lat="43.41002" lon="-0.49167">
        <ele>247.2</ele>
        <time>2019-04-20T07:20:26Z</time>
      </trkpt>
      <trkpt lat="43.41008" lon="-0.49115">
        <ele>245.75</ele>
        <time>2019-04-20T07:20:33Z</time>
      </trkpt>
      <trkpt lat="43.41011" lon="-0.49114">
        <ele>245.27</ele>
        <time>2019-04-20T07:20:34Z</time>
      </trkpt>
      <trkpt lat="43.41014" lon="-0.49112">
        <ele>245.27</ele>
        <time>2019-04-20T07:20:35Z</time>
      </trkpt>
      <trkpt lat="43.4105" lon="-0.4909">
        <ele>240.47</ele>
        <time>2019-04-20T07:20:41Z</time>
      </trkpt>
      <trkpt lat="43.41056" lon="-0.49084">
        <ele>239.99</ele>
        <time>2019-04-20T07:20:42Z</time>
      </trkpt>
      <trkpt lat="43.41059" lon="-0.49077">
        <ele>238.54</ele>
        <time>2019-04-20T07:20:43Z</time>
      </trkpt>
      <trkpt lat="43.41062" lon="-0.49069">
        <ele>238.06</ele>
        <time>2019-04-20T07:20:44Z</time>
      </trkpt>
      <trkpt lat="43.41063" lon="-0.4906">
        <ele>237.1</ele>
        <time>2019-04-20T07:20:45Z</time>
      </trkpt>
      <trkpt lat="43.41063" lon="-0.49051">
        <ele>236.14</ele>
        <time>2019-04-20T07:20:46Z</time>
      </trkpt>
      <trkpt lat="43.41063" lon="-0.49041">
        <ele>235.66</ele>
        <time>2019-04-20T07:20:47Z</time>
      </trkpt>
      <trkpt lat="43.41064" lon="-0.49022">
        <ele>234.7</ele>
        <time>2019-04-20T07:20:49Z</time>
      </trkpt>
      <trkpt lat="43.41066" lon="-0.49014">
        <ele>233.74</ele>
        <time>2019-04-20T07:20:50Z</time>
      </trkpt>
      <trkpt lat="43.4107" lon="-0.49007">
        <ele>233.26</ele>
        <time>2019-04-20T07:20:51Z</time>
      </trkpt>
      <trkpt lat="43.41075" lon="-0.49001">
        <ele>232.78</ele>
        <time>2019-04-20T07:20:52Z</time>
      </trkpt>
      <trkpt lat="43.41081" lon="-0.48996">
        <ele>231.81</ele>
        <time>2019-04-20T07:20:53Z</time>
      </trkpt>
      <trkpt lat="43.41122" lon="-0.48951">
        <ele>225.09</ele>
        <time>2019-04-20T07:20:59Z</time>
      </trkpt>
      <trkpt lat="43.41136" lon="-0.4893">
        <ele>223.16</ele>
        <time>2019-04-20T07:21:02Z</time>
      </trkpt>
      <trkpt lat="43.41138" lon="-0.48926">
        <ele>223.16</ele>
        <time>2019-04-20T07:21:03Z</time>
      </trkpt>
      <trkpt lat="43.41141" lon="-0.48922">
        <ele>222.68</ele>
        <time>2019-04-20T07:21:04Z</time>
      </trkpt>
      <trkpt lat="43.41144" lon="-0.48918">
        <ele>222.2</ele>
        <time>2019-04-20T07:21:05Z</time>
      </trkpt>
      <trkpt lat="43.41147" lon="-0.48914">
        <ele>222.2</ele>
        <time>2019-04-20T07:21:06Z</time>
      </trkpt>
      <trkpt lat="43.41162" lon="-0.4889">
        <ele>220.76</ele>
        <time>2019-04-20T07:21:11Z</time>
      </trkpt>
      <trkpt lat="43.41165" lon="-0.48886">
        <ele>220.76</ele>
        <time>2019-04-20T07:21:12Z</time>
      </trkpt>
      <trkpt lat="43.41169" lon="-0.48883">
        <ele>220.28</ele>
        <time>2019-04-20T07:21:13Z</time>
      </trkpt>
      <trkpt lat="43.41174" lon="-0.4888">
        <ele>219.8</ele>
        <time>2019-04-20T07:21:14Z</time>
      </trkpt>
      <trkpt lat="43.41179" lon="-0.48878">
        <ele>218.84</ele>
        <time>2019-04-20T07:21:15Z</time>
      </trkpt>
      <trkpt lat="43.41229" lon="-0.48858">
        <ele>213.07</ele>
        <time>2019-04-20T07:21:22Z</time>
      </trkpt>
      <trkpt lat="43.41234" lon="-0.48854">
        <ele>212.11</ele>
        <time>2019-04-20T07:21:23Z</time>
      </trkpt>
      <trkpt lat="43.41238" lon="-0.48849">
        <ele>211.63</ele>
        <time>2019-04-20T07:21:24Z</time>
      </trkpt>
      <trkpt lat="43.4124" lon="-0.48842">
        <ele>210.67</ele>
        <time>2019-04-20T07:21:25Z</time>
      </trkpt>
      <trkpt lat="43.41242" lon="-0.48834">
        <ele>209.7</ele>
        <time>2019-04-20T07:21:26Z</time>
      </trkpt>
      <trkpt lat="43.41244" lon="-0.48825">
        <ele>209.22</ele>
        <time>2019-04-20T07:21:27Z</time>
      </trkpt>
      <trkpt lat="43.41245" lon="-0.48815">
        <ele>208.26</ele>
        <time>2019-04-20T07:21:28Z</time>
      </trkpt>
      <trkpt lat="43.41247" lon="-0.488">
        <ele>206.82</ele>
        <time>2019-04-20T07:21:30Z</time>
      </trkpt>
      <trkpt lat="43.41249" lon="-0.48793">
        <ele>206.34</ele>
        <time>2019-04-20T07:21:31Z</time>
      </trkpt>
      <trkpt lat="43.41252" lon="-0.48785">
        <ele>205.38</ele>
        <time>2019-04-20T07:21:32Z</time>
      </trkpt>
      <trkpt lat="43.41256" lon="-0.48777">
        <ele>204.42</ele>
        <time>2019-04-20T07:21:33Z</time>
      </trkpt>
      <trkpt lat="43.41262" lon="-0.48768">
        <ele>203.46</ele>
        <time>2019-04-20T07:21:34Z</time>
      </trkpt>
      <trkpt lat="43.41268" lon="-0.48759">
        <ele>202.01</ele>
        <time>2019-04-20T07:21:35Z</time>
      </trkpt>
      <trkpt lat="43.41303" lon="-0.48711">
        <ele>192.4</ele>
        <time>2019-04-20T07:21:40Z</time>
      </trkpt>
      <trkpt lat="43.41308" lon="-0.48707">
        <ele>190.96</ele>
        <time>2019-04-20T07:21:41Z</time>
      </trkpt>
      <trkpt lat="43.41313" lon="-0.48704">
        <ele>189.04</ele>
        <time>2019-04-20T07:21:42Z</time>
      </trkpt>
      <trkpt lat="43.41317" lon="-0.48703">
        <ele>188.08</ele>
        <time>2019-04-20T07:21:43Z</time>
      </trkpt>
      <trkpt lat="43.41323" lon="-0.48702">
        <ele>187.11</ele>
        <time>2019-04-20T07:21:44Z</time>
      </trkpt>
      <trkpt lat="43.4133" lon="-0.48702">
        <ele>186.15</ele>
        <time>2019-04-20T07:21:45Z</time>
      </trkpt>
      <trkpt lat="43.41338" lon="-0.48702">
        <ele>184.71</ele>
        <time>2019-04-20T07:21:46Z</time>
      </trkpt>
      <trkpt lat="43.41348" lon="-0.48703">
        <ele>183.75</ele>
        <time>2019-04-20T07:21:47Z</time>
      </trkpt>
      <trkpt lat="43.41376" lon="-0.48708">
        <ele>182.31</ele>
        <time>2019-04-20T07:21:51Z</time>
      </trkpt>
      <trkpt lat="43.41382" lon="-0.48708">
        <ele>182.31</ele>
        <time>2019-04-20T07:21:52Z</time>
      </trkpt>
      <trkpt lat="43.41385" lon="-0.48707">
        <ele>182.31</ele>
        <time>2019-04-20T07:21:53Z</time>
      </trkpt>
      <trkpt lat="43.4139" lon="-0.48705">
        <ele>181.83</ele>
        <time>2019-04-20T07:21:56Z</time>
      </trkpt>
      <trkpt lat="43.41389" lon="-0.48705">
        <ele>181.83</ele>
        <time>2019-04-20T07:22:09Z</time>
      </trkpt>
      <trkpt lat="43.4139" lon="-0.48703">
        <ele>181.35</ele>
        <time>2019-04-20T07:22:15Z</time>
      </trkpt>
      <trkpt lat="43.41391" lon="-0.48701">
        <ele>180.87</ele>
        <time>2019-04-20T07:22:16Z</time>
      </trkpt>
      <trkpt lat="43.41392" lon="-0.48699">
        <ele>180.87</ele>
        <time>2019-04-20T07:22:17Z</time>
      </trkpt>
      <trkpt lat="43.414" lon="-0.48686">
        <ele>180.38</ele>
        <time>2019-04-20T07:22:21Z</time>
      </trkpt>
      <trkpt lat="43.41459" lon="-0.48633">
        <ele>177.5</ele>
        <time>2019-04-20T07:22:36Z</time>
      </trkpt>
      <trkpt lat="43.41479" lon="-0.48617">
        <ele>176.54</ele>
        <time>2019-04-20T07:22:40Z</time>
      </trkpt>
      <trkpt lat="43.41484" lon="-0.48613">
        <ele>176.06</ele>
        <time>2019-04-20T07:22:41Z</time>
      </trkpt>
      <trkpt lat="43.41534" lon="-0.4857">
        <ele>173.17</ele>
        <time>2019-04-20T07:22:52Z</time>
      </trkpt>
      <trkpt lat="43.41562" lon="-0.48524">
        <ele>171.25</ele>
        <time>2019-04-20T07:23:00Z</time>
      </trkpt>
      <trkpt lat="43.41563" lon="-0.48517">
        <ele>171.25</ele>
        <time>2019-04-20T07:23:01Z</time>
      </trkpt>
      <trkpt lat="43.41564" lon="-0.48491">
        <ele>170.29</ele>
        <time>2019-04-20T07:23:04Z</time>
      </trkpt>
      <trkpt lat="43.41571" lon="-0.48386">
        <ele>166.45</ele>
        <time>2019-04-20T07:23:17Z</time>
      </trkpt>
      <trkpt lat="43.41591" lon="-0.4832">
        <ele>165</ele>
        <time>2019-04-20T07:23:25Z</time>
      </trkpt>
      <trkpt lat="43.41594" lon="-0.48313">
        <ele>165</ele>
        <time>2019-04-20T07:23:26Z</time>
      </trkpt>
      <trkpt lat="43.41598" lon="-0.48306">
        <ele>165</ele>
        <time>2019-04-20T07:23:27Z</time>
      </trkpt>
      <trkpt lat="43.41602" lon="-0.48301">
        <ele>164.52</ele>
        <time>2019-04-20T07:23:28Z</time>
      </trkpt>
      <trkpt lat="43.41606" lon="-0.48295">
        <ele>164.52</ele>
        <time>2019-04-20T07:23:29Z</time>
      </trkpt>
      <trkpt lat="43.4162" lon="-0.48284">
        <ele>164.52</ele>
        <time>2019-04-20T07:23:37Z</time>
      </trkpt>
      <trkpt lat="43.4162" lon="-0.48284">
        <ele>165.48</ele>
        <time>2019-04-20T07:23:58Z</time>
      </trkpt>
      <trkpt lat="43.41622" lon="-0.48282">
        <ele>165.48</ele>
        <time>2019-04-20T07:23:59Z</time>
      </trkpt>
      <trkpt lat="43.41624" lon="-0.4828">
        <ele>165.48</ele>
        <time>2019-04-20T07:24:00Z</time>
      </trkpt>
      <trkpt lat="43.41626" lon="-0.48278">
        <ele>165.48</ele>
        <time>2019-04-20T07:24:01Z</time>
      </trkpt>
      <trkpt lat="43.41628" lon="-0.48275">
        <ele>165.48</ele>
        <time>2019-04-20T07:24:02Z</time>
      </trkpt>
      <trkpt lat="43.41649" lon="-0.48248">
        <ele>165.48</ele>
        <time>2019-04-20T07:24:09Z</time>
      </trkpt>
      <trkpt lat="43.41653" lon="-0.48243">
        <ele>165</ele>
        <time>2019-04-20T07:24:10Z</time>
      </trkpt>
      <trkpt lat="43.41715" lon="-0.48156">
        <ele>161.64</ele>
        <time>2019-04-20T07:24:23Z</time>
      </trkpt>
      <trkpt lat="43.41781" lon="-0.48074">
        <ele>159.24</ele>
        <time>2019-04-20T07:24:37Z</time>
      </trkpt>
      <trkpt lat="43.41786" lon="-0.48066">
        <ele>158.75</ele>
        <time>2019-04-20T07:24:39Z</time>
      </trkpt>
      <trkpt lat="43.41789" lon="-0.48061">
        <ele>158.75</ele>
        <time>2019-04-20T07:24:40Z</time>
      </trkpt>
      <trkpt lat="43.41807" lon="-0.48034">
        <ele>159.24</ele>
        <time>2019-04-20T07:24:46Z</time>
      </trkpt>
      <trkpt lat="43.4181" lon="-0.4803">
        <ele>159.24</ele>
        <time>2019-04-20T07:24:47Z</time>
      </trkpt>
      <trkpt lat="43.41814" lon="-0.48027">
        <ele>158.75</ele>
        <time>2019-04-20T07:24:48Z</time>
      </trkpt>
      <trkpt lat="43.41818" lon="-0.48027">
        <ele>158.75</ele>
        <time>2019-04-20T07:24:49Z</time>
      </trkpt>
      <trkpt lat="43.41822" lon="-0.48029">
        <ele>158.75</ele>
        <time>2019-04-20T07:24:50Z</time>
      </trkpt>
      <trkpt lat="43.41825" lon="-0.48033">
        <ele>158.75</ele>
        <time>2019-04-20T07:24:51Z</time>
      </trkpt>
      <trkpt lat="43.41828" lon="-0.48038">
        <ele>158.75</ele>
        <time>2019-04-20T07:24:52Z</time>
      </trkpt>
      <trkpt lat="43.41831" lon="-0.48043">
        <ele>158.75</ele>
        <time>2019-04-20T07:24:53Z</time>
      </trkpt>
      <trkpt lat="43.41868" lon="-0.48127">
        <ele>161.16</ele>
        <time>2019-04-20T07:25:06Z</time>
      </trkpt>
      <trkpt lat="43.41899" lon="-0.48236">
        <ele>161.16</ele>
        <time>2019-04-20T07:25:22Z</time>
      </trkpt>
      <trkpt lat="43.41903" lon="-0.48255">
        <ele>161.16</ele>
        <time>2019-04-20T07:25:25Z</time>
      </trkpt>
      <trkpt lat="43.41903" lon="-0.48259">
        <ele>161.16</ele>
        <time>2019-04-20T07:25:26Z</time>
      </trkpt>
      <trkpt lat="43.41903" lon="-0.48262">
        <ele>161.16</ele>
        <time>2019-04-20T07:25:27Z</time>
      </trkpt>
      <trkpt lat="43.41904" lon="-0.48263">
        <ele>160.68</ele>
        <time>2019-04-20T07:25:28Z</time>
      </trkpt>
      <trkpt lat="43.41905" lon="-0.48264">
        <ele>160.68</ele>
        <time>2019-04-20T07:25:31Z</time>
      </trkpt>
      <trkpt lat="43.41907" lon="-0.48265">
        <ele>160.68</ele>
        <time>2019-04-20T07:25:32Z</time>
      </trkpt>
      <trkpt lat="43.41931" lon="-0.48254">
        <ele>159.24</ele>
        <time>2019-04-20T07:25:42Z</time>
      </trkpt>
      <trkpt lat="43.41974" lon="-0.48215">
        <ele>158.27</ele>
        <time>2019-04-20T07:25:59Z</time>
      </trkpt>
      <trkpt lat="43.41974" lon="-0.48214">
        <ele>158.75</ele>
        <time>2019-04-20T07:26:15Z</time>
      </trkpt>
      <trkpt lat="43.41982" lon="-0.48206">
        <ele>158.75</ele>
        <time>2019-04-20T07:26:39Z</time>
      </trkpt>
      <trkpt lat="43.42016" lon="-0.48174">
        <ele>156.83</ele>
        <time>2019-04-20T07:26:49Z</time>
      </trkpt>
      <trkpt lat="43.42078" lon="-0.48114">
        <ele>155.39</ele>
        <time>2019-04-20T07:27:02Z</time>
      </trkpt>
      <trkpt lat="43.42086" lon="-0.48107">
        <ele>154.91</ele>
        <time>2019-04-20T07:27:04Z</time>
      </trkpt>
      <trkpt lat="43.42097" lon="-0.48098">
        <ele>154.91</ele>
        <time>2019-04-20T07:27:07Z</time>
      </trkpt>
      <trkpt lat="43.42133" lon="-0.48069">
        <ele>155.39</ele>
        <time>2019-04-20T07:27:20Z</time>
      </trkpt>
      <trkpt lat="43.42156" lon="-0.48016">
        <ele>154.91</ele>
        <time>2019-04-20T07:27:36Z</time>
      </trkpt>
      <trkpt lat="43.42179" lon="-0.47953">
        <ele>154.91</ele>
        <time>2019-04-20T07:27:51Z</time>
      </trkpt>
      <trkpt lat="43.42179" lon="-0.47946">
        <ele>154.91</ele>
        <time>2019-04-20T07:27:53Z</time>
      </trkpt>
      <trkpt lat="43.42179" lon="-0.47942">
        <ele>154.91</ele>
        <time>2019-04-20T07:27:54Z</time>
      </trkpt>
      <trkpt lat="43.42166" lon="-0.47903">
        <ele>155.39</ele>
        <time>2019-04-20T07:28:07Z</time>
      </trkpt>
      <trkpt lat="43.42165" lon="-0.47899">
        <ele>154.91</ele>
        <time>2019-04-20T07:28:20Z</time>
      </trkpt>
      <trkpt lat="43.42165" lon="-0.47899">
        <ele>157.31</ele>
        <time>2019-04-20T07:28:49Z</time>
      </trkpt>
      <trkpt lat="43.42162" lon="-0.47888">
        <ele>156.83</ele>
        <time>2019-04-20T07:29:22Z</time>
      </trkpt>
      <trkpt lat="43.42142" lon="-0.47828">
        <ele>160.2</ele>
        <time>2019-04-20T07:29:36Z</time>
      </trkpt>
      <trkpt lat="43.42119" lon="-0.4777">
        <ele>158.27</ele>
        <time>2019-04-20T07:29:51Z</time>
      </trkpt>
      <trkpt lat="43.42119" lon="-0.47766">
        <ele>158.27</ele>
        <time>2019-04-20T07:29:52Z</time>
      </trkpt>
      <trkpt lat="43.4212" lon="-0.47763">
        <ele>157.79</ele>
        <time>2019-04-20T07:29:53Z</time>
      </trkpt>
      <trkpt lat="43.42123" lon="-0.47761">
        <ele>157.79</ele>
        <time>2019-04-20T07:29:54Z</time>
      </trkpt>
      <trkpt lat="43.42126" lon="-0.47758">
        <ele>157.79</ele>
        <time>2019-04-20T07:29:55Z</time>
      </trkpt>
      <trkpt lat="43.4213" lon="-0.47756">
        <ele>157.31</ele>
        <time>2019-04-20T07:29:56Z</time>
      </trkpt>
      <trkpt lat="43.42133" lon="-0.47753">
        <ele>157.31</ele>
        <time>2019-04-20T07:29:57Z</time>
      </trkpt>
      <trkpt lat="43.42137" lon="-0.47751">
        <ele>157.31</ele>
        <time>2019-04-20T07:29:58Z</time>
      </trkpt>
      <trkpt lat="43.42142" lon="-0.47748">
        <ele>156.83</ele>
        <time>2019-04-20T07:29:59Z</time>
      </trkpt>
      <trkpt lat="43.42146" lon="-0.47746">
        <ele>156.83</ele>
        <time>2019-04-20T07:30:00Z</time>
      </trkpt>
      <trkpt lat="43.42151" lon="-0.47745">
        <ele>156.83</ele>
        <time>2019-04-20T07:30:01Z</time>
      </trkpt>
      <trkpt lat="43.42156" lon="-0.47743">
        <ele>156.83</ele>
        <time>2019-04-20T07:30:02Z</time>
      </trkpt>
      <trkpt lat="43.42171" lon="-0.47738">
        <ele>156.35</ele>
        <time>2019-04-20T07:30:05Z</time>
      </trkpt>
      <trkpt lat="43.42265" lon="-0.47725">
        <ele>155.39</ele>
        <time>2019-04-20T07:30:21Z</time>
      </trkpt>
      <trkpt lat="43.4238" lon="-0.47718">
        <ele>155.39</ele>
        <time>2019-04-20T07:30:39Z</time>
      </trkpt>
      <trkpt lat="43.42471" lon="-0.47721">
        <ele>155.39</ele>
        <time>2019-04-20T07:30:54Z</time>
      </trkpt>
      <trkpt lat="43.42476" lon="-0.47724">
        <ele>155.39</ele>
        <time>2019-04-20T07:30:55Z</time>
      </trkpt>
      <trkpt lat="43.4252" lon="-0.47753">
        <ele>154.91</ele>
        <time>2019-04-20T07:31:06Z</time>
      </trkpt>
      <trkpt lat="43.42531" lon="-0.4776">
        <ele>154.43</ele>
        <time>2019-04-20T07:31:18Z</time>
      </trkpt>
      <trkpt lat="43.42531" lon="-0.47761">
        <ele>154.91</ele>
        <time>2019-04-20T07:31:40Z</time>
      </trkpt>
      <trkpt lat="43.42531" lon="-0.47762">
        <ele>152.51</ele>
        <time>2019-04-20T07:32:06Z</time>
      </trkpt>
      <trkpt lat="43.42532" lon="-0.47767">
        <ele>152.51</ele>
        <time>2019-04-20T07:32:10Z</time>
      </trkpt>
      <trkpt lat="43.42514" lon="-0.47804">
        <ele>150.1</ele>
        <time>2019-04-20T07:32:23Z</time>
      </trkpt>
      <trkpt lat="43.42489" lon="-0.4786">
        <ele>151.54</ele>
        <time>2019-04-20T07:32:37Z</time>
      </trkpt>
      <trkpt lat="43.42484" lon="-0.4787">
        <ele>151.54</ele>
        <time>2019-04-20T07:32:41Z</time>
      </trkpt>
      <trkpt lat="43.42482" lon="-0.47877">
        <ele>154.91</ele>
        <time>2019-04-20T07:32:53Z</time>
      </trkpt>
      <trkpt lat="43.42481" lon="-0.47881">
        <ele>156.83</ele>
        <time>2019-04-20T07:33:07Z</time>
      </trkpt>
      <trkpt lat="43.4248" lon="-0.47883">
        <ele>156.35</ele>
        <time>2019-04-20T07:33:13Z</time>
      </trkpt>
      <trkpt lat="43.42479" lon="-0.47887">
        <ele>155.87</ele>
        <time>2019-04-20T07:33:21Z</time>
      </trkpt>
      <trkpt lat="43.42484" lon="-0.47891">
        <ele>156.35</ele>
        <time>2019-04-20T07:33:25Z</time>
      </trkpt>
      <trkpt lat="43.425" lon="-0.479">
        <ele>156.83</ele>
        <time>2019-04-20T07:33:41Z</time>
      </trkpt>
      <trkpt lat="43.42505" lon="-0.47903">
        <ele>155.39</ele>
        <time>2019-04-20T07:33:51Z</time>
      </trkpt>
      <trkpt lat="43.42506" lon="-0.47905">
        <ele>154.91</ele>
        <time>2019-04-20T07:33:53Z</time>
      </trkpt>
      <trkpt lat="43.4251" lon="-0.47908">
        <ele>154.91</ele>
        <time>2019-04-20T07:33:57Z</time>
      </trkpt>
      <trkpt lat="43.42516" lon="-0.47903">
        <ele>155.39</ele>
        <time>2019-04-20T07:34:02Z</time>
      </trkpt>
      <trkpt lat="43.42518" lon="-0.47901">
        <ele>155.39</ele>
        <time>2019-04-20T07:34:03Z</time>
      </trkpt>
      <trkpt lat="43.42544" lon="-0.47882">
        <ele>154.91</ele>
        <time>2019-04-20T07:34:16Z</time>
      </trkpt>
      <trkpt lat="43.42584" lon="-0.47929">
        <ele>154.91</ele>
        <time>2019-04-20T07:34:28Z</time>
      </trkpt>
      <trkpt lat="43.42591" lon="-0.47939">
        <ele>155.39</ele>
        <time>2019-04-20T07:34:30Z</time>
      </trkpt>
      <trkpt lat="43.42638" lon="-0.48017">
        <ele>154.91</ele>
        <time>2019-04-20T07:34:44Z</time>
      </trkpt>
      <trkpt lat="43.42683" lon="-0.48079">
        <ele>154.91</ele>
        <time>2019-04-20T07:34:57Z</time>
      </trkpt>
      <trkpt lat="43.42691" lon="-0.48093">
        <ele>154.91</ele>
        <time>2019-04-20T07:35:00Z</time>
      </trkpt>
      <trkpt lat="43.42696" lon="-0.48103">
        <ele>154.43</ele>
        <time>2019-04-20T07:35:02Z</time>
      </trkpt>
      <trkpt lat="43.42699" lon="-0.48109">
        <ele>154.43</ele>
        <time>2019-04-20T07:35:03Z</time>
      </trkpt>
      <trkpt lat="43.42701" lon="-0.48114">
        <ele>154.91</ele>
        <time>2019-04-20T07:35:04Z</time>
      </trkpt>
      <trkpt lat="43.42703" lon="-0.48121">
        <ele>154.43</ele>
        <time>2019-04-20T07:35:05Z</time>
      </trkpt>
      <trkpt lat="43.42705" lon="-0.48127">
        <ele>154.43</ele>
        <time>2019-04-20T07:35:06Z</time>
      </trkpt>
      <trkpt lat="43.42708" lon="-0.4814">
        <ele>154.43</ele>
        <time>2019-04-20T07:35:08Z</time>
      </trkpt>
      <trkpt lat="43.42699" lon="-0.48166">
        <ele>153.47</ele>
        <time>2019-04-20T07:35:13Z</time>
      </trkpt>
      <trkpt lat="43.42695" lon="-0.48169">
        <ele>153.47</ele>
        <time>2019-04-20T07:35:14Z</time>
      </trkpt>
      <trkpt lat="43.42691" lon="-0.48172">
        <ele>153.47</ele>
        <time>2019-04-20T07:35:15Z</time>
      </trkpt>
      <trkpt lat="43.42658" lon="-0.48199">
        <ele>154.43</ele>
        <time>2019-04-20T07:35:24Z</time>
      </trkpt>
      <trkpt lat="43.42655" lon="-0.48204">
        <ele>154.43</ele>
        <time>2019-04-20T07:35:25Z</time>
      </trkpt>
      <trkpt lat="43.42652" lon="-0.4821">
        <ele>153.95</ele>
        <time>2019-04-20T07:35:26Z</time>
      </trkpt>
      <trkpt lat="43.42649" lon="-0.48216">
        <ele>153.95</ele>
        <time>2019-04-20T07:35:27Z</time>
      </trkpt>
      <trkpt lat="43.42647" lon="-0.48223">
        <ele>153.95</ele>
        <time>2019-04-20T07:35:28Z</time>
      </trkpt>
      <trkpt lat="43.42625" lon="-0.4829">
        <ele>154.43</ele>
        <time>2019-04-20T07:35:37Z</time>
      </trkpt>
      <trkpt lat="43.42622" lon="-0.48297">
        <ele>154.43</ele>
        <time>2019-04-20T07:35:38Z</time>
      </trkpt>
      <trkpt lat="43.42593" lon="-0.48393">
        <ele>155.39</ele>
        <time>2019-04-20T07:35:53Z</time>
      </trkpt>
      <trkpt lat="43.4258" lon="-0.48436">
        <ele>155.87</ele>
        <time>2019-04-20T07:36:00Z</time>
      </trkpt>
      <trkpt lat="43.42579" lon="-0.48442">
        <ele>155.87</ele>
        <time>2019-04-20T07:36:01Z</time>
      </trkpt>
      <trkpt lat="43.42574" lon="-0.48467">
        <ele>155.39</ele>
        <time>2019-04-20T07:36:05Z</time>
      </trkpt>
      <trkpt lat="43.42572" lon="-0.48472">
        <ele>155.39</ele>
        <time>2019-04-20T07:36:06Z</time>
      </trkpt>
      <trkpt lat="43.4257" lon="-0.48477">
        <ele>155.39</ele>
        <time>2019-04-20T07:36:07Z</time>
      </trkpt>
      <trkpt lat="43.42566" lon="-0.4848">
        <ele>155.87</ele>
        <time>2019-04-20T07:36:08Z</time>
      </trkpt>
      <trkpt lat="43.42562" lon="-0.48483">
        <ele>155.87</ele>
        <time>2019-04-20T07:36:09Z</time>
      </trkpt>
      <trkpt lat="43.42558" lon="-0.48485">
        <ele>156.35</ele>
        <time>2019-04-20T07:36:10Z</time>
      </trkpt>
      <trkpt lat="43.42553" lon="-0.48488">
        <ele>156.35</ele>
        <time>2019-04-20T07:36:11Z</time>
      </trkpt>
      <trkpt lat="43.42549" lon="-0.4849">
        <ele>156.83</ele>
        <time>2019-04-20T07:36:12Z</time>
      </trkpt>
      <trkpt lat="43.42533" lon="-0.48497">
        <ele>158.27</ele>
        <time>2019-04-20T07:36:16Z</time>
      </trkpt>
      <trkpt lat="43.42508" lon="-0.48507">
        <ele>158.27</ele>
        <time>2019-04-20T07:36:22Z</time>
      </trkpt>
      <trkpt lat="43.425" lon="-0.48513">
        <ele>158.27</ele>
        <time>2019-04-20T07:36:24Z</time>
      </trkpt>
      <trkpt lat="43.42496" lon="-0.48517">
        <ele>158.27</ele>
        <time>2019-04-20T07:36:25Z</time>
      </trkpt>
      <trkpt lat="43.42493" lon="-0.48522">
        <ele>158.27</ele>
        <time>2019-04-20T07:36:26Z</time>
      </trkpt>
      <trkpt lat="43.42492" lon="-0.48527">
        <ele>158.27</ele>
        <time>2019-04-20T07:36:27Z</time>
      </trkpt>
      <trkpt lat="43.42491" lon="-0.48533">
        <ele>158.27</ele>
        <time>2019-04-20T07:36:28Z</time>
      </trkpt>
      <trkpt lat="43.42489" lon="-0.48538">
        <ele>158.27</ele>
        <time>2019-04-20T07:36:29Z</time>
      </trkpt>
      <trkpt lat="43.42484" lon="-0.48578">
        <ele>157.79</ele>
        <time>2019-04-20T07:36:35Z</time>
      </trkpt>
      <trkpt lat="43.42471" lon="-0.4866">
        <ele>157.79</ele>
        <time>2019-04-20T07:36:47Z</time>
      </trkpt>
      <trkpt lat="43.42457" lon="-0.48766">
        <ele>159.24</ele>
        <time>2019-04-20T07:37:02Z</time>
      </trkpt>
      <trkpt lat="43.42453" lon="-0.48818">
        <ele>160.2</ele>
        <time>2019-04-20T07:37:10Z</time>
      </trkpt>
      <trkpt lat="43.42451" lon="-0.4887">
        <ele>161.16</ele>
        <time>2019-04-20T07:37:22Z</time>
      </trkpt>
      <trkpt lat="43.42452" lon="-0.48876">
        <ele>162.12</ele>
        <time>2019-04-20T07:37:33Z</time>
      </trkpt>
      <trkpt lat="43.42451" lon="-0.48878">
        <ele>162.12</ele>
        <time>2019-04-20T07:37:34Z</time>
      </trkpt>
      <trkpt lat="43.4245" lon="-0.4888">
        <ele>162.12</ele>
        <time>2019-04-20T07:37:35Z</time>
      </trkpt>
      <trkpt lat="43.42448" lon="-0.48882">
        <ele>162.12</ele>
        <time>2019-04-20T07:37:36Z</time>
      </trkpt>
      <trkpt lat="43.42446" lon="-0.48883">
        <ele>162.12</ele>
        <time>2019-04-20T07:37:37Z</time>
      </trkpt>
      <trkpt lat="43.42444" lon="-0.48884">
        <ele>162.12</ele>
        <time>2019-04-20T07:37:38Z</time>
      </trkpt>
      <trkpt lat="43.42441" lon="-0.48886">
        <ele>162.12</ele>
        <time>2019-04-20T07:37:39Z</time>
      </trkpt>
      <trkpt lat="43.42438" lon="-0.48888">
        <ele>162.12</ele>
        <time>2019-04-20T07:37:40Z</time>
      </trkpt>
      <trkpt lat="43.4239" lon="-0.48924">
        <ele>163.08</ele>
        <time>2019-04-20T07:37:55Z</time>
      </trkpt>
      <trkpt lat="43.42351" lon="-0.48973">
        <ele>164.04</ele>
        <time>2019-04-20T07:38:08Z</time>
      </trkpt>
      <trkpt lat="43.42302" lon="-0.49048">
        <ele>164.04</ele>
        <time>2019-04-20T07:38:25Z</time>
      </trkpt>
      <trkpt lat="43.42256" lon="-0.49119">
        <ele>166.45</ele>
        <time>2019-04-20T07:38:42Z</time>
      </trkpt>
      <trkpt lat="43.42246" lon="-0.49128">
        <ele>166.93</ele>
        <time>2019-04-20T07:38:46Z</time>
      </trkpt>
      <trkpt lat="43.42244" lon="-0.49131">
        <ele>166.93</ele>
        <time>2019-04-20T07:38:47Z</time>
      </trkpt>
      <trkpt lat="43.42243" lon="-0.49134">
        <ele>167.41</ele>
        <time>2019-04-20T07:38:48Z</time>
      </trkpt>
      <trkpt lat="43.42242" lon="-0.49137">
        <ele>167.41</ele>
        <time>2019-04-20T07:38:49Z</time>
      </trkpt>
      <trkpt lat="43.42241" lon="-0.4914">
        <ele>167.41</ele>
        <time>2019-04-20T07:38:50Z</time>
      </trkpt>
      <trkpt lat="43.42239" lon="-0.49165">
        <ele>167.89</ele>
        <time>2019-04-20T07:38:57Z</time>
      </trkpt>
      <trkpt lat="43.4224" lon="-0.49169">
        <ele>168.37</ele>
        <time>2019-04-20T07:38:58Z</time>
      </trkpt>
      <trkpt lat="43.42241" lon="-0.49172">
        <ele>168.37</ele>
        <time>2019-04-20T07:38:59Z</time>
      </trkpt>
      <trkpt lat="43.42243" lon="-0.49176">
        <ele>168.85</ele>
        <time>2019-04-20T07:39:00Z</time>
      </trkpt>
      <trkpt lat="43.42245" lon="-0.49179">
        <ele>168.85</ele>
        <time>2019-04-20T07:39:01Z</time>
      </trkpt>
      <trkpt lat="43.42247" lon="-0.49183">
        <ele>169.33</ele>
        <time>2019-04-20T07:39:02Z</time>
      </trkpt>
      <trkpt lat="43.42271" lon="-0.49238">
        <ele>171.25</ele>
        <time>2019-04-20T07:39:16Z</time>
      </trkpt>
      <trkpt lat="43.42277" lon="-0.49251">
        <ele>170.77</ele>
        <time>2019-04-20T07:39:19Z</time>
      </trkpt>
      <trkpt lat="43.42279" lon="-0.49257">
        <ele>170.77</ele>
        <time>2019-04-20T07:39:20Z</time>
      </trkpt>
      <trkpt lat="43.42281" lon="-0.49263">
        <ele>170.77</ele>
        <time>2019-04-20T07:39:21Z</time>
      </trkpt>
      <trkpt lat="43.423" lon="-0.49345">
        <ele>170.77</ele>
        <time>2019-04-20T07:39:36Z</time>
      </trkpt>
      <trkpt lat="43.42305" lon="-0.49414">
        <ele>171.73</ele>
        <time>2019-04-20T07:39:49Z</time>
      </trkpt>
      <trkpt lat="43.42304" lon="-0.49419">
        <ele>171.73</ele>
        <time>2019-04-20T07:39:50Z</time>
      </trkpt>
      <trkpt lat="43.42303" lon="-0.49425">
        <ele>171.73</ele>
        <time>2019-04-20T07:39:51Z</time>
      </trkpt>
      <trkpt lat="43.42301" lon="-0.4943">
        <ele>171.73</ele>
        <time>2019-04-20T07:39:52Z</time>
      </trkpt>
      <trkpt lat="43.42299" lon="-0.49434">
        <ele>171.73</ele>
        <time>2019-04-20T07:39:53Z</time>
      </trkpt>
      <trkpt lat="43.42294" lon="-0.49494">
        <ele>172.69</ele>
        <time>2019-04-20T07:40:05Z</time>
      </trkpt>
      <trkpt lat="43.42303" lon="-0.49515">
        <ele>173.17</ele>
        <time>2019-04-20T07:40:11Z</time>
      </trkpt>
      <trkpt lat="43.42305" lon="-0.49515">
        <ele>173.66</ele>
        <time>2019-04-20T07:40:12Z</time>
      </trkpt>
      <trkpt lat="43.42307" lon="-0.49515">
        <ele>174.14</ele>
        <time>2019-04-20T07:40:13Z</time>
      </trkpt>
      <trkpt lat="43.42308" lon="-0.49516">
        <ele>176.54</ele>
        <time>2019-04-20T07:40:29Z</time>
      </trkpt>
      <trkpt lat="43.42325" lon="-0.49508">
        <ele>176.54</ele>
        <time>2019-04-20T07:40:39Z</time>
      </trkpt>
      <trkpt lat="43.42355" lon="-0.49493">
        <ele>179.9</ele>
        <time>2019-04-20T07:40:48Z</time>
      </trkpt>
      <trkpt lat="43.42391" lon="-0.49493">
        <ele>181.35</ele>
        <time>2019-04-20T07:40:57Z</time>
      </trkpt>
      <trkpt lat="43.42402" lon="-0.49495">
        <ele>179.9</ele>
        <time>2019-04-20T07:41:01Z</time>
      </trkpt>
      <trkpt lat="43.42437" lon="-0.49506">
        <ele>178.46</ele>
        <time>2019-04-20T07:41:14Z</time>
      </trkpt>
      <trkpt lat="43.42469" lon="-0.49535">
        <ele>177.98</ele>
        <time>2019-04-20T07:41:26Z</time>
      </trkpt>
      <trkpt lat="43.42498" lon="-0.49576">
        <ele>178.46</ele>
        <time>2019-04-20T07:41:37Z</time>
      </trkpt>
      <trkpt lat="43.42509" lon="-0.49586">
        <ele>178.94</ele>
        <time>2019-04-20T07:41:40Z</time>
      </trkpt>
      <trkpt lat="43.42532" lon="-0.49604">
        <ele>177.02</ele>
        <time>2019-04-20T07:41:46Z</time>
      </trkpt>
      <trkpt lat="43.42548" lon="-0.49636">
        <ele>175.58</ele>
        <time>2019-04-20T07:41:52Z</time>
      </trkpt>
      <trkpt lat="43.42556" lon="-0.49645">
        <ele>175.1</ele>
        <time>2019-04-20T07:41:54Z</time>
      </trkpt>
      <trkpt lat="43.42583" lon="-0.49709">
        <ele>175.58</ele>
        <time>2019-04-20T07:42:07Z</time>
      </trkpt>
      <trkpt lat="43.42605" lon="-0.49773">
        <ele>177.98</ele>
        <time>2019-04-20T07:42:20Z</time>
      </trkpt>
      <trkpt lat="43.42609" lon="-0.49821">
        <ele>177.02</ele>
        <time>2019-04-20T07:42:30Z</time>
      </trkpt>
      <trkpt lat="43.42603" lon="-0.49867">
        <ele>177.5</ele>
        <time>2019-04-20T07:42:40Z</time>
      </trkpt>
      <trkpt lat="43.42599" lon="-0.49899">
        <ele>176.54</ele>
        <time>2019-04-20T07:42:52Z</time>
      </trkpt>
      <trkpt lat="43.42603" lon="-0.49909">
        <ele>175.58</ele>
        <time>2019-04-20T07:43:01Z</time>
      </trkpt>
      <trkpt lat="43.42603" lon="-0.4991">
        <ele>177.98</ele>
        <time>2019-04-20T07:43:15Z</time>
      </trkpt>
      <trkpt lat="43.42614" lon="-0.49912">
        <ele>179.9</ele>
        <time>2019-04-20T07:43:21Z</time>
      </trkpt>
      <trkpt lat="43.42624" lon="-0.49912">
        <ele>181.35</ele>
        <time>2019-04-20T07:43:25Z</time>
      </trkpt>
      <trkpt lat="43.42661" lon="-0.49919">
        <ele>182.79</ele>
        <time>2019-04-20T07:43:36Z</time>
      </trkpt>
      <trkpt lat="43.42665" lon="-0.4992">
        <ele>182.79</ele>
        <time>2019-04-20T07:43:37Z</time>
      </trkpt>
      <trkpt lat="43.427" lon="-0.49948">
        <ele>185.19</ele>
        <time>2019-04-20T07:43:48Z</time>
      </trkpt>
      <trkpt lat="43.42744" lon="-0.4997">
        <ele>185.19</ele>
        <time>2019-04-20T07:43:59Z</time>
      </trkpt>
      <trkpt lat="43.42753" lon="-0.49974">
        <ele>184.71</ele>
        <time>2019-04-20T07:44:01Z</time>
      </trkpt>
      <trkpt lat="43.42776" lon="-0.49991">
        <ele>185.19</ele>
        <time>2019-04-20T07:44:07Z</time>
      </trkpt>
      <trkpt lat="43.42807" lon="-0.50029">
        <ele>183.75</ele>
        <time>2019-04-20T07:44:18Z</time>
      </trkpt>
      <trkpt lat="43.42834" lon="-0.50058">
        <ele>183.75</ele>
        <time>2019-04-20T07:44:29Z</time>
      </trkpt>
      <trkpt lat="43.42867" lon="-0.50081">
        <ele>185.67</ele>
        <time>2019-04-20T07:44:39Z</time>
      </trkpt>
      <trkpt lat="43.42876" lon="-0.50087">
        <ele>186.15</ele>
        <time>2019-04-20T07:44:42Z</time>
      </trkpt>
      <trkpt lat="43.42896" lon="-0.50086">
        <ele>189.04</ele>
        <time>2019-04-20T07:44:49Z</time>
      </trkpt>
      <trkpt lat="43.42906" lon="-0.50088">
        <ele>191.92</ele>
        <time>2019-04-20T07:45:01Z</time>
      </trkpt>
      <trkpt lat="43.42916" lon="-0.50089">
        <ele>187.11</ele>
        <time>2019-04-20T07:45:32Z</time>
      </trkpt>
      <trkpt lat="43.42924" lon="-0.50079">
        <ele>187.59</ele>
        <time>2019-04-20T07:45:37Z</time>
      </trkpt>
      <trkpt lat="43.42935" lon="-0.50071">
        <ele>190.48</ele>
        <time>2019-04-20T07:45:49Z</time>
      </trkpt>
      <trkpt lat="43.42939" lon="-0.50069">
        <ele>190</ele>
        <time>2019-04-20T07:45:57Z</time>
      </trkpt>
      <trkpt lat="43.42967" lon="-0.50042">
        <ele>189.04</ele>
        <time>2019-04-20T07:46:08Z</time>
      </trkpt>
      <trkpt lat="43.42975" lon="-0.50038">
        <ele>189.52</ele>
        <time>2019-04-20T07:46:10Z</time>
      </trkpt>
      <trkpt lat="43.42983" lon="-0.50035">
        <ele>190</ele>
        <time>2019-04-20T07:46:12Z</time>
      </trkpt>
      <trkpt lat="43.42991" lon="-0.50031">
        <ele>190.96</ele>
        <time>2019-04-20T07:46:14Z</time>
      </trkpt>
      <trkpt lat="43.43" lon="-0.50028">
        <ele>192.4</ele>
        <time>2019-04-20T07:46:16Z</time>
      </trkpt>
      <trkpt lat="43.43003" lon="-0.50029">
        <ele>192.88</ele>
        <time>2019-04-20T07:46:17Z</time>
      </trkpt>
      <trkpt lat="43.43008" lon="-0.5003">
        <ele>192.88</ele>
        <time>2019-04-20T07:46:18Z</time>
      </trkpt>
      <trkpt lat="43.43016" lon="-0.5003">
        <ele>192.4</ele>
        <time>2019-04-20T07:46:19Z</time>
      </trkpt>
      <trkpt lat="43.43022" lon="-0.5003">
        <ele>191.92</ele>
        <time>2019-04-20T07:46:20Z</time>
      </trkpt>
      <trkpt lat="43.43053" lon="-0.50043">
        <ele>188.08</ele>
        <time>2019-04-20T07:46:26Z</time>
      </trkpt>
      <trkpt lat="43.43121" lon="-0.501">
        <ele>181.35</ele>
        <time>2019-04-20T07:46:42Z</time>
      </trkpt>
      <trkpt lat="43.43149" lon="-0.50127">
        <ele>176.54</ele>
        <time>2019-04-20T07:46:51Z</time>
      </trkpt>
      <trkpt lat="43.43152" lon="-0.5014">
        <ele>175.1</ele>
        <time>2019-04-20T07:46:55Z</time>
      </trkpt>
      <trkpt lat="43.43142" lon="-0.50169">
        <ele>175.1</ele>
        <time>2019-04-20T07:47:02Z</time>
      </trkpt>
      <trkpt lat="43.43143" lon="-0.50198">
        <ele>174.14</ele>
        <time>2019-04-20T07:47:14Z</time>
      </trkpt>
      <trkpt lat="43.43143" lon="-0.50199">
        <ele>173.66</ele>
        <time>2019-04-20T07:47:15Z</time>
      </trkpt>
      <trkpt lat="43.43141" lon="-0.50201">
        <ele>173.66</ele>
        <time>2019-04-20T07:47:17Z</time>
      </trkpt>
      <trkpt lat="43.43139" lon="-0.50204">
        <ele>174.14</ele>
        <time>2019-04-20T07:47:19Z</time>
      </trkpt>
      <trkpt lat="43.43135" lon="-0.50205">
        <ele>173.66</ele>
        <time>2019-04-20T07:47:23Z</time>
      </trkpt>
      <trkpt lat="43.43131" lon="-0.50207">
        <ele>172.21</ele>
        <time>2019-04-20T07:47:36Z</time>
      </trkpt>
      <trkpt lat="43.4313" lon="-0.50208">
        <ele>170.29</ele>
        <time>2019-04-20T07:47:51Z</time>
      </trkpt>
      <trkpt lat="43.43124" lon="-0.50213">
        <ele>172.69</ele>
        <time>2019-04-20T07:47:57Z</time>
      </trkpt>
      <trkpt lat="43.43121" lon="-0.50216">
        <ele>173.66</ele>
        <time>2019-04-20T07:48:00Z</time>
      </trkpt>
      <trkpt lat="43.43111" lon="-0.50213">
        <ele>174.14</ele>
        <time>2019-04-20T07:48:06Z</time>
      </trkpt>
      <trkpt lat="43.43102" lon="-0.50213">
        <ele>174.62</ele>
        <time>2019-04-20T07:48:12Z</time>
      </trkpt>
      <trkpt lat="43.43094" lon="-0.50228">
        <ele>176.54</ele>
        <time>2019-04-20T07:48:26Z</time>
      </trkpt>
      <trkpt lat="43.43089" lon="-0.50235">
        <ele>176.54</ele>
        <time>2019-04-20T07:48:30Z</time>
      </trkpt>
      <trkpt lat="43.43082" lon="-0.50253">
        <ele>178.94</ele>
        <time>2019-04-20T07:48:44Z</time>
      </trkpt>
      <trkpt lat="43.43073" lon="-0.50271">
        <ele>188.56</ele>
        <time>2019-04-20T07:48:56Z</time>
      </trkpt>
      <trkpt lat="43.43068" lon="-0.50292">
        <ele>196.73</ele>
        <time>2019-04-20T07:49:12Z</time>
      </trkpt>
      <trkpt lat="43.43066" lon="-0.50306">
        <ele>202.01</ele>
        <time>2019-04-20T07:49:26Z</time>
      </trkpt>
      <trkpt lat="43.43065" lon="-0.50316">
        <ele>204.42</ele>
        <time>2019-04-20T07:49:38Z</time>
      </trkpt>
      <trkpt lat="43.43065" lon="-0.50324">
        <ele>206.82</ele>
        <time>2019-04-20T07:49:53Z</time>
      </trkpt>
      <trkpt lat="43.43063" lon="-0.50331">
        <ele>205.86</ele>
        <time>2019-04-20T07:50:07Z</time>
      </trkpt>
      <trkpt lat="43.43059" lon="-0.50342">
        <ele>208.26</ele>
        <time>2019-04-20T07:50:20Z</time>
      </trkpt>
      <trkpt lat="43.43059" lon="-0.50349">
        <ele>207.3</ele>
        <time>2019-04-20T07:50:36Z</time>
      </trkpt>
      <trkpt lat="43.43067" lon="-0.50358">
        <ele>206.34</ele>
        <time>2019-04-20T07:50:48Z</time>
      </trkpt>
      <trkpt lat="43.43068" lon="-0.50358">
        <ele>206.82</ele>
        <time>2019-04-20T07:50:49Z</time>
      </trkpt>
      <trkpt lat="43.43073" lon="-0.50368">
        <ele>207.78</ele>
        <time>2019-04-20T07:50:54Z</time>
      </trkpt>
      <trkpt lat="43.43075" lon="-0.50375">
        <ele>208.26</ele>
        <time>2019-04-20T07:50:57Z</time>
      </trkpt>
      <trkpt lat="43.43076" lon="-0.5038">
        <ele>207.78</ele>
        <time>2019-04-20T07:51:00Z</time>
      </trkpt>
      <trkpt lat="43.43082" lon="-0.50408">
        <ele>207.78</ele>
        <time>2019-04-20T07:51:14Z</time>
      </trkpt>
      <trkpt lat="43.4308" lon="-0.50434">
        <ele>209.7</ele>
        <time>2019-04-20T07:51:29Z</time>
      </trkpt>
      <trkpt lat="43.43072" lon="-0.50451">
        <ele>211.63</ele>
        <time>2019-04-20T07:51:42Z</time>
      </trkpt>
      <trkpt lat="43.43069" lon="-0.50455">
        <ele>211.63</ele>
        <time>2019-04-20T07:51:52Z</time>
      </trkpt>
      <trkpt lat="43.4306" lon="-0.50462">
        <ele>213.55</ele>
        <time>2019-04-20T07:51:58Z</time>
      </trkpt>
      <trkpt lat="43.43036" lon="-0.50461">
        <ele>215.47</ele>
        <time>2019-04-20T07:52:10Z</time>
      </trkpt>
      <trkpt lat="43.4302" lon="-0.50455">
        <ele>214.51</ele>
        <time>2019-04-20T07:52:18Z</time>
      </trkpt>
      <trkpt lat="43.43" lon="-0.50445">
        <ele>215.95</ele>
        <time>2019-04-20T07:52:32Z</time>
      </trkpt>
      <trkpt lat="43.43001" lon="-0.5044">
        <ele>218.84</ele>
        <time>2019-04-20T07:52:50Z</time>
      </trkpt>
      <trkpt lat="43.43005" lon="-0.50439">
        <ele>225.09</ele>
        <time>2019-04-20T07:53:26Z</time>
      </trkpt>
      <trkpt lat="43.43001" lon="-0.50437">
        <ele>231.81</ele>
        <time>2019-04-20T07:53:59Z</time>
      </trkpt>
      <trkpt lat="43.43006" lon="-0.50436">
        <ele>228.45</ele>
        <time>2019-04-20T07:54:28Z</time>
      </trkpt>
      <trkpt lat="43.43006" lon="-0.50446">
        <ele>237.1</ele>
        <time>2019-04-20T07:54:53Z</time>
      </trkpt>
      <trkpt lat="43.43004" lon="-0.50443">
        <ele>228.45</ele>
        <time>2019-04-20T07:55:28Z</time>
      </trkpt>
      <trkpt lat="43.43" lon="-0.50438">
        <ele>223.64</ele>
        <time>2019-04-20T07:56:08Z</time>
      </trkpt>
      <trkpt lat="43.43006" lon="-0.50446">
        <ele>230.85</ele>
        <time>2019-04-20T07:56:46Z</time>
      </trkpt>
      <trkpt lat="43.43008" lon="-0.50441">
        <ele>223.64</ele>
        <time>2019-04-20T07:57:10Z</time>
      </trkpt>
      <trkpt lat="43.43008" lon="-0.50444">
        <ele>226.05</ele>
        <time>2019-04-20T07:57:49Z</time>
      </trkpt>
      <trkpt lat="43.43005" lon="-0.50443">
        <ele>222.68</ele>
        <time>2019-04-20T07:58:30Z</time>
      </trkpt>
      <trkpt lat="43.43012" lon="-0.50437">
        <ele>228.93</ele>
        <time>2019-04-20T07:59:00Z</time>
      </trkpt>
      <trkpt lat="43.43009" lon="-0.50439">
        <ele>230.85</ele>
        <time>2019-04-20T07:59:11Z</time>
      </trkpt>
      <trkpt lat="43.43007" lon="-0.50438">
        <ele>230.37</ele>
        <time>2019-04-20T07:59:16Z</time>
      </trkpt>
      <trkpt lat="43.43002" lon="-0.50427">
        <ele>228.45</ele>
        <time>2019-04-20T07:59:23Z</time>
      </trkpt>
      <trkpt lat="43.42999" lon="-0.50424">
        <ele>227.97</ele>
        <time>2019-04-20T07:59:25Z</time>
      </trkpt>
      <trkpt lat="43.42998" lon="-0.50419">
        <ele>226.05</ele>
        <time>2019-04-20T07:59:28Z</time>
      </trkpt>
      <trkpt lat="43.42996" lon="-0.50396">
        <ele>223.16</ele>
        <time>2019-04-20T07:59:37Z</time>
      </trkpt>
      <trkpt lat="43.43003" lon="-0.50382">
        <ele>222.2</ele>
        <time>2019-04-20T07:59:43Z</time>
      </trkpt>
      <trkpt lat="43.43002" lon="-0.50371">
        <ele>221.24</ele>
        <time>2019-04-20T07:59:47Z</time>
      </trkpt>
      <trkpt lat="43.43004" lon="-0.50365">
        <ele>220.76</ele>
        <time>2019-04-20T07:59:49Z</time>
      </trkpt>
      <trkpt lat="43.4301" lon="-0.50362">
        <ele>220.28</ele>
        <time>2019-04-20T07:59:53Z</time>
      </trkpt>
      <trkpt lat="43.43013" lon="-0.50359">
        <ele>220.76</ele>
        <time>2019-04-20T07:59:56Z</time>
      </trkpt>
      <trkpt lat="43.43021" lon="-0.50333">
        <ele>216.43</ele>
        <time>2019-04-20T08:00:10Z</time>
      </trkpt>
      <trkpt lat="43.43024" lon="-0.50331">
        <ele>215.47</ele>
        <time>2019-04-20T08:00:12Z</time>
      </trkpt>
      <trkpt lat="43.43049" lon="-0.50334">
        <ele>210.19</ele>
        <time>2019-04-20T08:00:24Z</time>
      </trkpt>
      <trkpt lat="43.43055" lon="-0.50339">
        <ele>211.63</ele>
        <time>2019-04-20T08:00:37Z</time>
      </trkpt>
      <trkpt lat="43.43056" lon="-0.50341">
        <ele>212.59</ele>
        <time>2019-04-20T08:00:44Z</time>
      </trkpt>
      <trkpt lat="43.43064" lon="-0.50338">
        <ele>210.67</ele>
        <time>2019-04-20T08:00:56Z</time>
      </trkpt>
      <trkpt lat="43.43067" lon="-0.50336">
        <ele>208.74</ele>
        <time>2019-04-20T08:01:03Z</time>
      </trkpt>
      <trkpt lat="43.43068" lon="-0.50332">
        <ele>206.34</ele>
        <time>2019-04-20T08:01:06Z</time>
      </trkpt>
      <trkpt lat="43.43066" lon="-0.50322">
        <ele>203.46</ele>
        <time>2019-04-20T08:01:11Z</time>
      </trkpt>
      <trkpt lat="43.43064" lon="-0.50313">
        <ele>202.98</ele>
        <time>2019-04-20T08:01:14Z</time>
      </trkpt>
      <trkpt lat="43.43062" lon="-0.50306">
        <ele>202.49</ele>
        <time>2019-04-20T08:01:17Z</time>
      </trkpt>
      <trkpt lat="43.43066" lon="-0.50296">
        <ele>202.01</ele>
        <time>2019-04-20T08:01:21Z</time>
      </trkpt>
      <trkpt lat="43.43069" lon="-0.50251">
        <ele>197.69</ele>
        <time>2019-04-20T08:01:33Z</time>
      </trkpt>
      <trkpt lat="43.43074" lon="-0.50237">
        <ele>195.77</ele>
        <time>2019-04-20T08:01:38Z</time>
      </trkpt>
      <trkpt lat="43.43078" lon="-0.5023">
        <ele>194.8</ele>
        <time>2019-04-20T08:01:42Z</time>
      </trkpt>
      <trkpt lat="43.43086" lon="-0.50226">
        <ele>195.28</ele>
        <time>2019-04-20T08:01:46Z</time>
      </trkpt>
      <trkpt lat="43.43106" lon="-0.5022">
        <ele>195.28</ele>
        <time>2019-04-20T08:01:54Z</time>
      </trkpt>
      <trkpt lat="43.43109" lon="-0.5022">
        <ele>195.28</ele>
        <time>2019-04-20T08:01:55Z</time>
      </trkpt>
      <trkpt lat="43.43134" lon="-0.50214">
        <ele>189.52</ele>
        <time>2019-04-20T08:02:07Z</time>
      </trkpt>
      <trkpt lat="43.43139" lon="-0.50214">
        <ele>188.08</ele>
        <time>2019-04-20T08:02:11Z</time>
      </trkpt>
      <trkpt lat="43.43148" lon="-0.50222">
        <ele>188.56</ele>
        <time>2019-04-20T08:02:23Z</time>
      </trkpt>
      <trkpt lat="43.43165" lon="-0.50263">
        <ele>195.28</ele>
        <time>2019-04-20T08:02:36Z</time>
      </trkpt>
      <trkpt lat="43.4317" lon="-0.50273">
        <ele>199.13</ele>
        <time>2019-04-20T08:02:40Z</time>
      </trkpt>
      <trkpt lat="43.43177" lon="-0.50281">
        <ele>202.49</ele>
        <time>2019-04-20T08:02:46Z</time>
      </trkpt>
      <trkpt lat="43.43179" lon="-0.50292">
        <ele>202.49</ele>
        <time>2019-04-20T08:02:58Z</time>
      </trkpt>
      <trkpt lat="43.43186" lon="-0.50318">
        <ele>200.09</ele>
        <time>2019-04-20T08:03:10Z</time>
      </trkpt>
      <trkpt lat="43.43186" lon="-0.50334">
        <ele>197.69</ele>
        <time>2019-04-20T08:03:16Z</time>
      </trkpt>
      <trkpt lat="43.43188" lon="-0.50344">
        <ele>196.25</ele>
        <time>2019-04-20T08:03:20Z</time>
      </trkpt>
      <trkpt lat="43.43191" lon="-0.50369">
        <ele>193.36</ele>
        <time>2019-04-20T08:03:28Z</time>
      </trkpt>
      <trkpt lat="43.43195" lon="-0.50388">
        <ele>188.56</ele>
        <time>2019-04-20T08:03:33Z</time>
      </trkpt>
      <trkpt lat="43.43212" lon="-0.50444">
        <ele>183.27</ele>
        <time>2019-04-20T08:03:47Z</time>
      </trkpt>
      <trkpt lat="43.43232" lon="-0.50504">
        <ele>184.23</ele>
        <time>2019-04-20T08:04:00Z</time>
      </trkpt>
      <trkpt lat="43.43254" lon="-0.50552">
        <ele>185.19</ele>
        <time>2019-04-20T08:04:12Z</time>
      </trkpt>
      <trkpt lat="43.43248" lon="-0.50596">
        <ele>184.23</ele>
        <time>2019-04-20T08:04:21Z</time>
      </trkpt>
      <trkpt lat="43.43234" lon="-0.50622">
        <ele>183.75</ele>
        <time>2019-04-20T08:04:27Z</time>
      </trkpt>
      <trkpt lat="43.43228" lon="-0.50645">
        <ele>183.27</ele>
        <time>2019-04-20T08:04:31Z</time>
      </trkpt>
      <trkpt lat="43.43228" lon="-0.50681">
        <ele>182.31</ele>
        <time>2019-04-20T08:04:36Z</time>
      </trkpt>
      <trkpt lat="43.43228" lon="-0.50692">
        <ele>181.35</ele>
        <time>2019-04-20T08:04:38Z</time>
      </trkpt>
      <trkpt lat="43.43262" lon="-0.5073">
        <ele>183.27</ele>
        <time>2019-04-20T08:04:50Z</time>
      </trkpt>
      <trkpt lat="43.43297" lon="-0.5073">
        <ele>183.75</ele>
        <time>2019-04-20T08:05:00Z</time>
      </trkpt>
      <trkpt lat="43.43327" lon="-0.50732">
        <ele>187.11</ele>
        <time>2019-04-20T08:05:10Z</time>
      </trkpt>
      <trkpt lat="43.43361" lon="-0.50736">
        <ele>192.4</ele>
        <time>2019-04-20T08:05:21Z</time>
      </trkpt>
      <trkpt lat="43.43367" lon="-0.50736">
        <ele>193.84</ele>
        <time>2019-04-20T08:05:23Z</time>
      </trkpt>
      <trkpt lat="43.43403" lon="-0.50736">
        <ele>196.73</ele>
        <time>2019-04-20T08:05:34Z</time>
      </trkpt>
      <trkpt lat="43.43451" lon="-0.50742">
        <ele>196.73</ele>
        <time>2019-04-20T08:05:47Z</time>
      </trkpt>
      <trkpt lat="43.4349" lon="-0.50758">
        <ele>199.13</ele>
        <time>2019-04-20T08:05:59Z</time>
      </trkpt>
      <trkpt lat="43.43529" lon="-0.50784">
        <ele>204.9</ele>
        <time>2019-04-20T08:06:11Z</time>
      </trkpt>
      <trkpt lat="43.43554" lon="-0.50799">
        <ele>203.94</ele>
        <time>2019-04-20T08:06:17Z</time>
      </trkpt>
      <trkpt lat="43.43586" lon="-0.50842">
        <ele>199.13</ele>
        <time>2019-04-20T08:06:28Z</time>
      </trkpt>
      <trkpt lat="43.43607" lon="-0.50879">
        <ele>200.09</ele>
        <time>2019-04-20T08:06:37Z</time>
      </trkpt>
      <trkpt lat="43.4362" lon="-0.50905">
        <ele>200.09</ele>
        <time>2019-04-20T08:06:42Z</time>
      </trkpt>
      <trkpt lat="43.43623" lon="-0.50909">
        <ele>200.09</ele>
        <time>2019-04-20T08:06:43Z</time>
      </trkpt>
      <trkpt lat="43.43637" lon="-0.50928">
        <ele>198.65</ele>
        <time>2019-04-20T08:06:47Z</time>
      </trkpt>
      <trkpt lat="43.43641" lon="-0.50934">
        <ele>198.17</ele>
        <time>2019-04-20T08:06:48Z</time>
      </trkpt>
      <trkpt lat="43.43645" lon="-0.50944">
        <ele>197.69</ele>
        <time>2019-04-20T08:06:49Z</time>
      </trkpt>
      <trkpt lat="43.43654" lon="-0.50961">
        <ele>196.25</ele>
        <time>2019-04-20T08:06:51Z</time>
      </trkpt>
      <trkpt lat="43.43692" lon="-0.5102">
        <ele>187.11</ele>
        <time>2019-04-20T08:07:02Z</time>
      </trkpt>
      <trkpt lat="43.43724" lon="-0.51062">
        <ele>185.19</ele>
        <time>2019-04-20T08:07:16Z</time>
      </trkpt>
      <trkpt lat="43.43745" lon="-0.51085">
        <ele>187.11</ele>
        <time>2019-04-20T08:07:28Z</time>
      </trkpt>
      <trkpt lat="43.43757" lon="-0.51091">
        <ele>188.56</ele>
        <time>2019-04-20T08:07:34Z</time>
      </trkpt>
      <trkpt lat="43.43758" lon="-0.51091">
        <ele>188.56</ele>
        <time>2019-04-20T08:07:35Z</time>
      </trkpt>
      <trkpt lat="43.43761" lon="-0.51092">
        <ele>188.56</ele>
        <time>2019-04-20T08:07:36Z</time>
      </trkpt>
      <trkpt lat="43.43767" lon="-0.51093">
        <ele>188.56</ele>
        <time>2019-04-20T08:07:50Z</time>
      </trkpt>
      <trkpt lat="43.43769" lon="-0.51093">
        <ele>190</ele>
        <time>2019-04-20T08:08:13Z</time>
      </trkpt>
      <trkpt lat="43.43772" lon="-0.51094">
        <ele>190</ele>
        <time>2019-04-20T08:08:21Z</time>
      </trkpt>
      <trkpt lat="43.43773" lon="-0.51096">
        <ele>190</ele>
        <time>2019-04-20T08:08:22Z</time>
      </trkpt>
      <trkpt lat="43.43773" lon="-0.51099">
        <ele>190</ele>
        <time>2019-04-20T08:08:23Z</time>
      </trkpt>
      <trkpt lat="43.43773" lon="-0.51101">
        <ele>190</ele>
        <time>2019-04-20T08:08:24Z</time>
      </trkpt>
      <trkpt lat="43.43773" lon="-0.51103">
        <ele>190.48</ele>
        <time>2019-04-20T08:08:25Z</time>
      </trkpt>
      <trkpt lat="43.43773" lon="-0.51106">
        <ele>190.48</ele>
        <time>2019-04-20T08:08:26Z</time>
      </trkpt>
      <trkpt lat="43.43774" lon="-0.51108">
        <ele>190.96</ele>
        <time>2019-04-20T08:08:27Z</time>
      </trkpt>
      <trkpt lat="43.43774" lon="-0.51111">
        <ele>191.44</ele>
        <time>2019-04-20T08:08:28Z</time>
      </trkpt>
      <trkpt lat="43.43791" lon="-0.51149">
        <ele>190.48</ele>
        <time>2019-04-20T08:08:45Z</time>
      </trkpt>
      <trkpt lat="43.43816" lon="-0.51182">
        <ele>190</ele>
        <time>2019-04-20T08:08:59Z</time>
      </trkpt>
      <trkpt lat="43.43849" lon="-0.51239">
        <ele>188.56</ele>
        <time>2019-04-20T08:09:12Z</time>
      </trkpt>
      <trkpt lat="43.43886" lon="-0.51296">
        <ele>187.59</ele>
        <time>2019-04-20T08:09:23Z</time>
      </trkpt>
      <trkpt lat="43.43919" lon="-0.51355">
        <ele>186.15</ele>
        <time>2019-04-20T08:09:33Z</time>
      </trkpt>
      <trkpt lat="43.43921" lon="-0.51362">
        <ele>186.15</ele>
        <time>2019-04-20T08:09:34Z</time>
      </trkpt>
      <trkpt lat="43.43943" lon="-0.51443">
        <ele>187.59</ele>
        <time>2019-04-20T08:09:45Z</time>
      </trkpt>
      <trkpt lat="43.43946" lon="-0.51449">
        <ele>187.59</ele>
        <time>2019-04-20T08:09:46Z</time>
      </trkpt>
      <trkpt lat="43.43951" lon="-0.51462">
        <ele>187.11</ele>
        <time>2019-04-20T08:09:48Z</time>
      </trkpt>
      <trkpt lat="43.43987" lon="-0.51566">
        <ele>186.15</ele>
        <time>2019-04-20T08:10:04Z</time>
      </trkpt>
      <trkpt lat="43.44" lon="-0.5166">
        <ele>185.19</ele>
        <time>2019-04-20T08:10:18Z</time>
      </trkpt>
      <trkpt lat="43.44001" lon="-0.51666">
        <ele>185.67</ele>
        <time>2019-04-20T08:10:19Z</time>
      </trkpt>
      <trkpt lat="43.44002" lon="-0.51672">
        <ele>185.67</ele>
        <time>2019-04-20T08:10:20Z</time>
      </trkpt>
      <trkpt lat="43.44009" lon="-0.51744">
        <ele>186.63</ele>
        <time>2019-04-20T08:10:31Z</time>
      </trkpt>
      <trkpt lat="43.44014" lon="-0.51769">
        <ele>185.67</ele>
        <time>2019-04-20T08:10:34Z</time>
      </trkpt>
      <trkpt lat="43.44017" lon="-0.51777">
        <ele>184.71</ele>
        <time>2019-04-20T08:10:35Z</time>
      </trkpt>
      <trkpt lat="43.44021" lon="-0.51785">
        <ele>184.23</ele>
        <time>2019-04-20T08:10:36Z</time>
      </trkpt>
      <trkpt lat="43.44065" lon="-0.51855">
        <ele>181.35</ele>
        <time>2019-04-20T08:10:45Z</time>
      </trkpt>
      <trkpt lat="43.44071" lon="-0.51861">
        <ele>180.87</ele>
        <time>2019-04-20T08:10:46Z</time>
      </trkpt>
      <trkpt lat="43.44121" lon="-0.51907">
        <ele>177.02</ele>
        <time>2019-04-20T08:10:53Z</time>
      </trkpt>
      <trkpt lat="43.44127" lon="-0.51917">
        <ele>177.02</ele>
        <time>2019-04-20T08:10:54Z</time>
      </trkpt>
      <trkpt lat="43.44132" lon="-0.51928">
        <ele>176.54</ele>
        <time>2019-04-20T08:10:55Z</time>
      </trkpt>
      <trkpt lat="43.44136" lon="-0.5194">
        <ele>176.06</ele>
        <time>2019-04-20T08:10:56Z</time>
      </trkpt>
      <trkpt lat="43.4414" lon="-0.51954">
        <ele>175.58</ele>
        <time>2019-04-20T08:10:57Z</time>
      </trkpt>
      <trkpt lat="43.44151" lon="-0.51992">
        <ele>173.66</ele>
        <time>2019-04-20T08:11:00Z</time>
      </trkpt>
      <trkpt lat="43.44156" lon="-0.52004">
        <ele>173.17</ele>
        <time>2019-04-20T08:11:01Z</time>
      </trkpt>
      <trkpt lat="43.44161" lon="-0.52015">
        <ele>172.21</ele>
        <time>2019-04-20T08:11:02Z</time>
      </trkpt>
      <trkpt lat="43.44167" lon="-0.52025">
        <ele>171.25</ele>
        <time>2019-04-20T08:11:03Z</time>
      </trkpt>
      <trkpt lat="43.44174" lon="-0.52037">
        <ele>170.29</ele>
        <time>2019-04-20T08:11:04Z</time>
      </trkpt>
      <trkpt lat="43.44182" lon="-0.52046">
        <ele>169.33</ele>
        <time>2019-04-20T08:11:05Z</time>
      </trkpt>
      <trkpt lat="43.44191" lon="-0.52053">
        <ele>168.37</ele>
        <time>2019-04-20T08:11:06Z</time>
      </trkpt>
      <trkpt lat="43.442" lon="-0.52057">
        <ele>167.41</ele>
        <time>2019-04-20T08:11:07Z</time>
      </trkpt>
      <trkpt lat="43.4421" lon="-0.52062">
        <ele>166.93</ele>
        <time>2019-04-20T08:11:08Z</time>
      </trkpt>
      <trkpt lat="43.44247" lon="-0.52086">
        <ele>166.45</ele>
        <time>2019-04-20T08:11:13Z</time>
      </trkpt>
      <trkpt lat="43.44252" lon="-0.52091">
        <ele>166.93</ele>
        <time>2019-04-20T08:11:14Z</time>
      </trkpt>
      <trkpt lat="43.4426" lon="-0.52101">
        <ele>166.93</ele>
        <time>2019-04-20T08:11:16Z</time>
      </trkpt>
      <trkpt lat="43.44264" lon="-0.52108">
        <ele>167.41</ele>
        <time>2019-04-20T08:11:17Z</time>
      </trkpt>
      <trkpt lat="43.44271" lon="-0.52127">
        <ele>168.85</ele>
        <time>2019-04-20T08:11:20Z</time>
      </trkpt>
      <trkpt lat="43.44272" lon="-0.52134">
        <ele>169.33</ele>
        <time>2019-04-20T08:11:21Z</time>
      </trkpt>
      <trkpt lat="43.44273" lon="-0.52141">
        <ele>169.81</ele>
        <time>2019-04-20T08:11:22Z</time>
      </trkpt>
      <trkpt lat="43.4428" lon="-0.52182">
        <ele>171.73</ele>
        <time>2019-04-20T08:11:32Z</time>
      </trkpt>
      <trkpt lat="43.4427" lon="-0.52226">
        <ele>172.21</ele>
        <time>2019-04-20T08:11:41Z</time>
      </trkpt>
      <trkpt lat="43.44249" lon="-0.52264">
        <ele>175.58</ele>
        <time>2019-04-20T08:11:53Z</time>
      </trkpt>
      <trkpt lat="43.44229" lon="-0.52294">
        <ele>178.46</ele>
        <time>2019-04-20T08:12:05Z</time>
      </trkpt>
      <trkpt lat="43.4421" lon="-0.52329">
        <ele>182.79</ele>
        <time>2019-04-20T08:12:20Z</time>
      </trkpt>
      <trkpt lat="43.44194" lon="-0.52353">
        <ele>185.19</ele>
        <time>2019-04-20T08:12:33Z</time>
      </trkpt>
      <trkpt lat="43.44172" lon="-0.5238">
        <ele>191.44</ele>
        <time>2019-04-20T08:12:51Z</time>
      </trkpt>
      <trkpt lat="43.44149" lon="-0.52393">
        <ele>195.77</ele>
        <time>2019-04-20T08:13:06Z</time>
      </trkpt>
      <trkpt lat="43.44122" lon="-0.52392">
        <ele>198.65</ele>
        <time>2019-04-20T08:13:20Z</time>
      </trkpt>
      <trkpt lat="43.44076" lon="-0.52387">
        <ele>198.17</ele>
        <time>2019-04-20T08:13:38Z</time>
      </trkpt>
      <trkpt lat="43.44033" lon="-0.52382">
        <ele>198.65</ele>
        <time>2019-04-20T08:13:53Z</time>
      </trkpt>
      <trkpt lat="43.43998" lon="-0.52406">
        <ele>202.01</ele>
        <time>2019-04-20T08:14:09Z</time>
      </trkpt>
      <trkpt lat="43.43977" lon="-0.52434">
        <ele>203.46</ele>
        <time>2019-04-20T08:14:21Z</time>
      </trkpt>
      <trkpt lat="43.43959" lon="-0.52469">
        <ele>208.74</ele>
        <time>2019-04-20T08:14:35Z</time>
      </trkpt>
      <trkpt lat="43.43941" lon="-0.525">
        <ele>213.07</ele>
        <time>2019-04-20T08:14:48Z</time>
      </trkpt>
      <trkpt lat="43.43925" lon="-0.5253">
        <ele>217.88</ele>
        <time>2019-04-20T08:15:02Z</time>
      </trkpt>
      <trkpt lat="43.43909" lon="-0.52568">
        <ele>220.76</ele>
        <time>2019-04-20T08:15:15Z</time>
      </trkpt>
      <trkpt lat="43.43893" lon="-0.52614">
        <ele>223.64</ele>
        <time>2019-04-20T08:15:31Z</time>
      </trkpt>
      <trkpt lat="43.43877" lon="-0.52651">
        <ele>226.53</ele>
        <time>2019-04-20T08:15:45Z</time>
      </trkpt>
      <trkpt lat="43.4387" lon="-0.52665">
        <ele>226.05</ele>
        <time>2019-04-20T08:15:58Z</time>
      </trkpt>
      <trkpt lat="43.43867" lon="-0.52668">
        <ele>225.57</ele>
        <time>2019-04-20T08:16:20Z</time>
      </trkpt>
      <trkpt lat="43.43868" lon="-0.52672">
        <ele>223.16</ele>
        <time>2019-04-20T08:16:50Z</time>
      </trkpt>
      <trkpt lat="43.43868" lon="-0.52675">
        <ele>223.16</ele>
        <time>2019-04-20T08:16:51Z</time>
      </trkpt>
      <trkpt lat="43.43868" lon="-0.52677">
        <ele>223.16</ele>
        <time>2019-04-20T08:16:52Z</time>
      </trkpt>
      <trkpt lat="43.43868" lon="-0.52682">
        <ele>223.16</ele>
        <time>2019-04-20T08:16:53Z</time>
      </trkpt>
      <trkpt lat="43.43869" lon="-0.52687">
        <ele>222.68</ele>
        <time>2019-04-20T08:16:54Z</time>
      </trkpt>
      <trkpt lat="43.43869" lon="-0.52692">
        <ele>222.2</ele>
        <time>2019-04-20T08:16:55Z</time>
      </trkpt>
      <trkpt lat="43.43891" lon="-0.5277">
        <ele>221.24</ele>
        <time>2019-04-20T08:17:06Z</time>
      </trkpt>
      <trkpt lat="43.43915" lon="-0.52811">
        <ele>222.2</ele>
        <time>2019-04-20T08:17:15Z</time>
      </trkpt>
      <trkpt lat="43.43919" lon="-0.52816">
        <ele>222.2</ele>
        <time>2019-04-20T08:17:16Z</time>
      </trkpt>
      <trkpt lat="43.43939" lon="-0.52836">
        <ele>222.68</ele>
        <time>2019-04-20T08:17:22Z</time>
      </trkpt>
      <trkpt lat="43.43991" lon="-0.52878">
        <ele>224.61</ele>
        <time>2019-04-20T08:17:38Z</time>
      </trkpt>
      <trkpt lat="43.4403" lon="-0.52926">
        <ele>231.33</ele>
        <time>2019-04-20T08:17:54Z</time>
      </trkpt>
      <trkpt lat="43.44055" lon="-0.52965">
        <ele>234.7</ele>
        <time>2019-04-20T08:18:07Z</time>
      </trkpt>
      <trkpt lat="43.44072" lon="-0.53003">
        <ele>234.22</ele>
        <time>2019-04-20T08:18:16Z</time>
      </trkpt>
      <trkpt lat="43.44113" lon="-0.53093">
        <ele>230.37</ele>
        <time>2019-04-20T08:18:29Z</time>
      </trkpt>
      <trkpt lat="43.44118" lon="-0.53102">
        <ele>229.41</ele>
        <time>2019-04-20T08:18:30Z</time>
      </trkpt>
      <trkpt lat="43.44172" lon="-0.53173">
        <ele>225.57</ele>
        <time>2019-04-20T08:18:39Z</time>
      </trkpt>
      <trkpt lat="43.44192" lon="-0.53196">
        <ele>225.09</ele>
        <time>2019-04-20T08:18:43Z</time>
      </trkpt>
      <trkpt lat="43.4425" lon="-0.5328">
        <ele>224.61</ele>
        <time>2019-04-20T08:18:56Z</time>
      </trkpt>
      <trkpt lat="43.44305" lon="-0.5338">
        <ele>223.64</ele>
        <time>2019-04-20T08:19:11Z</time>
      </trkpt>
      <trkpt lat="43.44324" lon="-0.5343">
        <ele>224.12</ele>
        <time>2019-04-20T08:19:19Z</time>
      </trkpt>
      <trkpt lat="43.44343" lon="-0.53508">
        <ele>222.2</ele>
        <time>2019-04-20T08:19:31Z</time>
      </trkpt>
      <trkpt lat="43.44347" lon="-0.53525">
        <ele>222.2</ele>
        <time>2019-04-20T08:19:34Z</time>
      </trkpt>
      <trkpt lat="43.44347" lon="-0.53531">
        <ele>222.2</ele>
        <time>2019-04-20T08:19:35Z</time>
      </trkpt>
      <trkpt lat="43.44348" lon="-0.53537">
        <ele>222.2</ele>
        <time>2019-04-20T08:19:36Z</time>
      </trkpt>
      <trkpt lat="43.44364" lon="-0.53614">
        <ele>220.28</ele>
        <time>2019-04-20T08:19:49Z</time>
      </trkpt>
      <trkpt lat="43.44375" lon="-0.53664">
        <ele>221.72</ele>
        <time>2019-04-20T08:19:58Z</time>
      </trkpt>
      <trkpt lat="43.44388" lon="-0.53727">
        <ele>225.09</ele>
        <time>2019-04-20T08:20:12Z</time>
      </trkpt>
      <trkpt lat="43.444" lon="-0.53789">
        <ele>229.89</ele>
        <time>2019-04-20T08:20:28Z</time>
      </trkpt>
      <trkpt lat="43.44412" lon="-0.53855">
        <ele>231.33</ele>
        <time>2019-04-20T08:20:45Z</time>
      </trkpt>
      <trkpt lat="43.44428" lon="-0.53931">
        <ele>233.26</ele>
        <time>2019-04-20T08:21:03Z</time>
      </trkpt>
      <trkpt lat="43.44436" lon="-0.53989">
        <ele>233.74</ele>
        <time>2019-04-20T08:21:18Z</time>
      </trkpt>
      <trkpt lat="43.44447" lon="-0.54079">
        <ele>232.78</ele>
        <time>2019-04-20T08:21:36Z</time>
      </trkpt>
      <trkpt lat="43.44455" lon="-0.5413">
        <ele>232.3</ele>
        <time>2019-04-20T08:21:44Z</time>
      </trkpt>
      <trkpt lat="43.44462" lon="-0.54167">
        <ele>229.41</ele>
        <time>2019-04-20T08:21:49Z</time>
      </trkpt>
      <trkpt lat="43.44496" lon="-0.54262">
        <ele>224.12</ele>
        <time>2019-04-20T08:21:59Z</time>
      </trkpt>
      <trkpt lat="43.44509" lon="-0.54302">
        <ele>222.2</ele>
        <time>2019-04-20T08:22:03Z</time>
      </trkpt>
      <trkpt lat="43.44549" lon="-0.5437">
        <ele>217.88</ele>
        <time>2019-04-20T08:22:12Z</time>
      </trkpt>
      <trkpt lat="43.4457" lon="-0.54398">
        <ele>217.88</ele>
        <time>2019-04-20T08:22:17Z</time>
      </trkpt>
      <trkpt lat="43.44633" lon="-0.54501">
        <ele>213.07</ele>
        <time>2019-04-20T08:22:31Z</time>
      </trkpt>
      <trkpt lat="43.44636" lon="-0.54511">
        <ele>213.07</ele>
        <time>2019-04-20T08:22:32Z</time>
      </trkpt>
      <trkpt lat="43.44637" lon="-0.54521">
        <ele>212.59</ele>
        <time>2019-04-20T08:22:33Z</time>
      </trkpt>
      <trkpt lat="43.44637" lon="-0.54532">
        <ele>212.59</ele>
        <time>2019-04-20T08:22:34Z</time>
      </trkpt>
      <trkpt lat="43.44636" lon="-0.54542">
        <ele>212.59</ele>
        <time>2019-04-20T08:22:35Z</time>
      </trkpt>
      <trkpt lat="43.44635" lon="-0.54552">
        <ele>212.59</ele>
        <time>2019-04-20T08:22:36Z</time>
      </trkpt>
      <trkpt lat="43.44634" lon="-0.54562">
        <ele>212.11</ele>
        <time>2019-04-20T08:22:37Z</time>
      </trkpt>
      <trkpt lat="43.44633" lon="-0.54571">
        <ele>212.11</ele>
        <time>2019-04-20T08:22:38Z</time>
      </trkpt>
      <trkpt lat="43.44633" lon="-0.54613">
        <ele>211.63</ele>
        <time>2019-04-20T08:22:43Z</time>
      </trkpt>
      <trkpt lat="43.44634" lon="-0.54621">
        <ele>211.63</ele>
        <time>2019-04-20T08:22:44Z</time>
      </trkpt>
      <trkpt lat="43.44642" lon="-0.54699">
        <ele>212.59</ele>
        <time>2019-04-20T08:22:55Z</time>
      </trkpt>
      <trkpt lat="43.44659" lon="-0.54762">
        <ele>216.43</ele>
        <time>2019-04-20T08:23:08Z</time>
      </trkpt>
      <trkpt lat="43.44691" lon="-0.54809">
        <ele>219.32</ele>
        <time>2019-04-20T08:23:21Z</time>
      </trkpt>
      <trkpt lat="43.44722" lon="-0.54845">
        <ele>221.24</ele>
        <time>2019-04-20T08:23:32Z</time>
      </trkpt>
      <trkpt lat="43.44759" lon="-0.5491">
        <ele>219.8</ele>
        <time>2019-04-20T08:23:45Z</time>
      </trkpt>
      <trkpt lat="43.44771" lon="-0.54936">
        <ele>216.91</ele>
        <time>2019-04-20T08:23:49Z</time>
      </trkpt>
      <trkpt lat="43.44773" lon="-0.54943">
        <ele>215.95</ele>
        <time>2019-04-20T08:23:50Z</time>
      </trkpt>
      <trkpt lat="43.44774" lon="-0.54949">
        <ele>214.99</ele>
        <time>2019-04-20T08:23:51Z</time>
      </trkpt>
      <trkpt lat="43.44775" lon="-0.54955">
        <ele>214.03</ele>
        <time>2019-04-20T08:23:52Z</time>
      </trkpt>
      <trkpt lat="43.44775" lon="-0.54961">
        <ele>213.07</ele>
        <time>2019-04-20T08:23:53Z</time>
      </trkpt>
      <trkpt lat="43.44776" lon="-0.54973">
        <ele>211.15</ele>
        <time>2019-04-20T08:23:55Z</time>
      </trkpt>
      <trkpt lat="43.44779" lon="-0.5498">
        <ele>210.67</ele>
        <time>2019-04-20T08:23:56Z</time>
      </trkpt>
      <trkpt lat="43.44782" lon="-0.54986">
        <ele>210.67</ele>
        <time>2019-04-20T08:23:57Z</time>
      </trkpt>
      <trkpt lat="43.44786" lon="-0.5499">
        <ele>210.67</ele>
        <time>2019-04-20T08:23:58Z</time>
      </trkpt>
      <trkpt lat="43.4479" lon="-0.54994">
        <ele>210.67</ele>
        <time>2019-04-20T08:23:59Z</time>
      </trkpt>
      <trkpt lat="43.44793" lon="-0.54998">
        <ele>210.67</ele>
        <time>2019-04-20T08:24:00Z</time>
      </trkpt>
      <trkpt lat="43.44828" lon="-0.55051">
        <ele>209.7</ele>
        <time>2019-04-20T08:24:10Z</time>
      </trkpt>
      <trkpt lat="43.44832" lon="-0.55056">
        <ele>209.7</ele>
        <time>2019-04-20T08:24:11Z</time>
      </trkpt>
      <trkpt lat="43.44845" lon="-0.55078">
        <ele>209.7</ele>
        <time>2019-04-20T08:24:15Z</time>
      </trkpt>
      <trkpt lat="43.44848" lon="-0.55084">
        <ele>210.19</ele>
        <time>2019-04-20T08:24:16Z</time>
      </trkpt>
      <trkpt lat="43.44863" lon="-0.55109">
        <ele>211.15</ele>
        <time>2019-04-20T08:24:21Z</time>
      </trkpt>
      <trkpt lat="43.44876" lon="-0.5513">
        <ele>211.15</ele>
        <time>2019-04-20T08:24:25Z</time>
      </trkpt>
      <trkpt lat="43.44936" lon="-0.55209">
        <ele>206.82</ele>
        <time>2019-04-20T08:24:36Z</time>
      </trkpt>
      <trkpt lat="43.44992" lon="-0.55269">
        <ele>205.86</ele>
        <time>2019-04-20T08:24:47Z</time>
      </trkpt>
      <trkpt lat="43.45045" lon="-0.55325">
        <ele>208.74</ele>
        <time>2019-04-20T08:24:59Z</time>
      </trkpt>
      <trkpt lat="43.45059" lon="-0.55342">
        <ele>210.67</ele>
        <time>2019-04-20T08:25:04Z</time>
      </trkpt>
      <trkpt lat="43.45062" lon="-0.55346">
        <ele>211.15</ele>
        <time>2019-04-20T08:25:05Z</time>
      </trkpt>
      <trkpt lat="43.45101" lon="-0.55418">
        <ele>208.26</ele>
        <time>2019-04-20T08:25:17Z</time>
      </trkpt>
      <trkpt lat="43.45114" lon="-0.55467">
        <ele>204.42</ele>
        <time>2019-04-20T08:25:25Z</time>
      </trkpt>
      <trkpt lat="43.45111" lon="-0.55505">
        <ele>202.01</ele>
        <time>2019-04-20T08:25:33Z</time>
      </trkpt>
      <trkpt lat="43.45116" lon="-0.55521">
        <ele>200.09</ele>
        <time>2019-04-20T08:25:36Z</time>
      </trkpt>
      <trkpt lat="43.4513" lon="-0.55549">
        <ele>195.77</ele>
        <time>2019-04-20T08:25:41Z</time>
      </trkpt>
      <trkpt lat="43.4513" lon="-0.55591">
        <ele>193.84</ele>
        <time>2019-04-20T08:25:50Z</time>
      </trkpt>
      <trkpt lat="43.4513" lon="-0.55619">
        <ele>192.4</ele>
        <time>2019-04-20T08:25:57Z</time>
      </trkpt>
      <trkpt lat="43.45132" lon="-0.55634">
        <ele>190.96</ele>
        <time>2019-04-20T08:26:00Z</time>
      </trkpt>
      <trkpt lat="43.45128" lon="-0.55646">
        <ele>189.04</ele>
        <time>2019-04-20T08:26:05Z</time>
      </trkpt>
      <trkpt lat="43.45112" lon="-0.55661">
        <ele>188.08</ele>
        <time>2019-04-20T08:26:14Z</time>
      </trkpt>
      <trkpt lat="43.45091" lon="-0.55664">
        <ele>186.63</ele>
        <time>2019-04-20T08:26:19Z</time>
      </trkpt>
      <trkpt lat="43.45077" lon="-0.55677">
        <ele>184.23</ele>
        <time>2019-04-20T08:26:25Z</time>
      </trkpt>
      <trkpt lat="43.45073" lon="-0.55693">
        <ele>179.9</ele>
        <time>2019-04-20T08:26:30Z</time>
      </trkpt>
      <trkpt lat="43.45075" lon="-0.55699">
        <ele>177.98</ele>
        <time>2019-04-20T08:26:32Z</time>
      </trkpt>
      <trkpt lat="43.45067" lon="-0.55718">
        <ele>175.1</ele>
        <time>2019-04-20T08:26:37Z</time>
      </trkpt>
      <trkpt lat="43.45064" lon="-0.55726">
        <ele>174.14</ele>
        <time>2019-04-20T08:26:39Z</time>
      </trkpt>
      <trkpt lat="43.45056" lon="-0.55734">
        <ele>172.21</ele>
        <time>2019-04-20T08:26:42Z</time>
      </trkpt>
      <trkpt lat="43.45043" lon="-0.55736">
        <ele>172.69</ele>
        <time>2019-04-20T08:26:47Z</time>
      </trkpt>
      <trkpt lat="43.45021" lon="-0.55737">
        <ele>171.73</ele>
        <time>2019-04-20T08:27:01Z</time>
      </trkpt>
      <trkpt lat="43.45006" lon="-0.55742">
        <ele>167.89</ele>
        <time>2019-04-20T08:27:25Z</time>
      </trkpt>
      <trkpt lat="43.45001" lon="-0.55741">
        <ele>168.85</ele>
        <time>2019-04-20T08:27:50Z</time>
      </trkpt>
      <trkpt lat="43.45004" lon="-0.55742">
        <ele>165.96</ele>
        <time>2019-04-20T08:28:11Z</time>
      </trkpt>
      <trkpt lat="43.45002" lon="-0.55742">
        <ele>163.08</ele>
        <time>2019-04-20T08:28:37Z</time>
      </trkpt>
      <trkpt lat="43.45005" lon="-0.55746">
        <ele>160.68</ele>
        <time>2019-04-20T08:29:09Z</time>
      </trkpt>
      <trkpt lat="43.45011" lon="-0.55744">
        <ele>162.6</ele>
        <time>2019-04-20T08:29:33Z</time>
      </trkpt>
      <trkpt lat="43.45008" lon="-0.55742">
        <ele>160.68</ele>
        <time>2019-04-20T08:30:02Z</time>
      </trkpt>
      <trkpt lat="43.45008" lon="-0.55744">
        <ele>161.64</ele>
        <time>2019-04-20T08:30:30Z</time>
      </trkpt>
      <trkpt lat="43.45008" lon="-0.55747">
        <ele>157.79</ele>
        <time>2019-04-20T08:30:56Z</time>
      </trkpt>
      <trkpt lat="43.45009" lon="-0.55748">
        <ele>159.24</ele>
        <time>2019-04-20T08:31:26Z</time>
      </trkpt>
      <trkpt lat="43.45008" lon="-0.55747">
        <ele>160.2</ele>
        <time>2019-04-20T08:31:47Z</time>
      </trkpt>
      <trkpt lat="43.44983" lon="-0.55755">
        <ele>160.2</ele>
        <time>2019-04-20T08:31:56Z</time>
      </trkpt>
      <trkpt lat="43.4497" lon="-0.55765">
        <ele>159.72</ele>
        <time>2019-04-20T08:32:00Z</time>
      </trkpt>
      <trkpt lat="43.44968" lon="-0.55768">
        <ele>159.72</ele>
        <time>2019-04-20T08:32:01Z</time>
      </trkpt>
      <trkpt lat="43.44965" lon="-0.55772">
        <ele>159.72</ele>
        <time>2019-04-20T08:32:02Z</time>
      </trkpt>
      <trkpt lat="43.44963" lon="-0.55775">
        <ele>159.24</ele>
        <time>2019-04-20T08:32:03Z</time>
      </trkpt>
      <trkpt lat="43.44961" lon="-0.55778">
        <ele>159.24</ele>
        <time>2019-04-20T08:32:04Z</time>
      </trkpt>
      <trkpt lat="43.44931" lon="-0.55829">
        <ele>158.75</ele>
        <time>2019-04-20T08:32:18Z</time>
      </trkpt>
      <trkpt lat="43.44889" lon="-0.55843">
        <ele>160.68</ele>
        <time>2019-04-20T08:32:30Z</time>
      </trkpt>
      <trkpt lat="43.44849" lon="-0.55841">
        <ele>164.04</ele>
        <time>2019-04-20T08:32:41Z</time>
      </trkpt>
      <trkpt lat="43.44811" lon="-0.5585">
        <ele>167.41</ele>
        <time>2019-04-20T08:32:52Z</time>
      </trkpt>
      <trkpt lat="43.44767" lon="-0.5587">
        <ele>167.89</ele>
        <time>2019-04-20T08:33:03Z</time>
      </trkpt>
      <trkpt lat="43.44717" lon="-0.55896">
        <ele>168.85</ele>
        <time>2019-04-20T08:33:17Z</time>
      </trkpt>
      <trkpt lat="43.44673" lon="-0.55926">
        <ele>169.33</ele>
        <time>2019-04-20T08:33:31Z</time>
      </trkpt>
      <trkpt lat="43.4463" lon="-0.55954">
        <ele>171.25</ele>
        <time>2019-04-20T08:33:46Z</time>
      </trkpt>
      <trkpt lat="43.44594" lon="-0.5598">
        <ele>172.69</ele>
        <time>2019-04-20T08:34:00Z</time>
      </trkpt>
      <trkpt lat="43.44564" lon="-0.56003">
        <ele>174.14</ele>
        <time>2019-04-20T08:34:12Z</time>
      </trkpt>
      <trkpt lat="43.4454" lon="-0.56019">
        <ele>177.02</ele>
        <time>2019-04-20T08:34:24Z</time>
      </trkpt>
      <trkpt lat="43.4452" lon="-0.56028">
        <ele>181.83</ele>
        <time>2019-04-20T08:34:35Z</time>
      </trkpt>
      <trkpt lat="43.4452" lon="-0.56029">
        <ele>182.31</ele>
        <time>2019-04-20T08:34:36Z</time>
      </trkpt>
      <trkpt lat="43.44525" lon="-0.56054">
        <ele>183.75</ele>
        <time>2019-04-20T08:34:50Z</time>
      </trkpt>
      <trkpt lat="43.44526" lon="-0.56057">
        <ele>184.71</ele>
        <time>2019-04-20T08:34:52Z</time>
      </trkpt>
      <trkpt lat="43.44527" lon="-0.56059">
        <ele>184.71</ele>
        <time>2019-04-20T08:34:53Z</time>
      </trkpt>
      <trkpt lat="43.44535" lon="-0.56072">
        <ele>187.59</ele>
        <time>2019-04-20T08:35:05Z</time>
      </trkpt>
      <trkpt lat="43.44545" lon="-0.5609">
        <ele>188.08</ele>
        <time>2019-04-20T08:35:18Z</time>
      </trkpt>
      <trkpt lat="43.44562" lon="-0.56108">
        <ele>191.92</ele>
        <time>2019-04-20T08:35:31Z</time>
      </trkpt>
      <trkpt lat="43.44571" lon="-0.56128">
        <ele>193.36</ele>
        <time>2019-04-20T08:35:40Z</time>
      </trkpt>
      <trkpt lat="43.44577" lon="-0.56141">
        <ele>193.36</ele>
        <time>2019-04-20T08:35:46Z</time>
      </trkpt>
      <trkpt lat="43.44577" lon="-0.56143">
        <ele>192.88</ele>
        <time>2019-04-20T08:35:47Z</time>
      </trkpt>
      <trkpt lat="43.44578" lon="-0.56145">
        <ele>192.88</ele>
        <time>2019-04-20T08:35:48Z</time>
      </trkpt>
      <trkpt lat="43.44589" lon="-0.56174">
        <ele>194.8</ele>
        <time>2019-04-20T08:36:00Z</time>
      </trkpt>
      <trkpt lat="43.44604" lon="-0.56225">
        <ele>195.77</ele>
        <time>2019-04-20T08:36:12Z</time>
      </trkpt>
      <trkpt lat="43.44612" lon="-0.56239">
        <ele>195.28</ele>
        <time>2019-04-20T08:36:15Z</time>
      </trkpt>
      <trkpt lat="43.44619" lon="-0.56246">
        <ele>195.28</ele>
        <time>2019-04-20T08:36:17Z</time>
      </trkpt>
      <trkpt lat="43.44624" lon="-0.56248">
        <ele>195.28</ele>
        <time>2019-04-20T08:36:18Z</time>
      </trkpt>
      <trkpt lat="43.44628" lon="-0.5625">
        <ele>195.28</ele>
        <time>2019-04-20T08:36:19Z</time>
      </trkpt>
      <trkpt lat="43.44632" lon="-0.56253">
        <ele>194.8</ele>
        <time>2019-04-20T08:36:20Z</time>
      </trkpt>
      <trkpt lat="43.44635" lon="-0.56256">
        <ele>194.8</ele>
        <time>2019-04-20T08:36:21Z</time>
      </trkpt>
      <trkpt lat="43.44646" lon="-0.56265">
        <ele>194.8</ele>
        <time>2019-04-20T08:36:25Z</time>
      </trkpt>
      <trkpt lat="43.44649" lon="-0.56266">
        <ele>194.8</ele>
        <time>2019-04-20T08:36:26Z</time>
      </trkpt>
      <trkpt lat="43.44651" lon="-0.56268">
        <ele>194.8</ele>
        <time>2019-04-20T08:36:27Z</time>
      </trkpt>
      <trkpt lat="43.44677" lon="-0.56298">
        <ele>194.32</ele>
        <time>2019-04-20T08:36:39Z</time>
      </trkpt>
      <trkpt lat="43.44689" lon="-0.56314">
        <ele>194.8</ele>
        <time>2019-04-20T08:36:43Z</time>
      </trkpt>
      <trkpt lat="43.44694" lon="-0.56318">
        <ele>194.8</ele>
        <time>2019-04-20T08:36:44Z</time>
      </trkpt>
      <trkpt lat="43.44698" lon="-0.56321">
        <ele>194.8</ele>
        <time>2019-04-20T08:36:45Z</time>
      </trkpt>
      <trkpt lat="43.44701" lon="-0.56324">
        <ele>194.8</ele>
        <time>2019-04-20T08:36:46Z</time>
      </trkpt>
      <trkpt lat="43.44703" lon="-0.56327">
        <ele>194.8</ele>
        <time>2019-04-20T08:36:47Z</time>
      </trkpt>
      <trkpt lat="43.44705" lon="-0.5633">
        <ele>194.32</ele>
        <time>2019-04-20T08:36:48Z</time>
      </trkpt>
      <trkpt lat="43.44706" lon="-0.56334">
        <ele>194.32</ele>
        <time>2019-04-20T08:36:49Z</time>
      </trkpt>
      <trkpt lat="43.44709" lon="-0.56338">
        <ele>194.32</ele>
        <time>2019-04-20T08:36:50Z</time>
      </trkpt>
      <trkpt lat="43.44738" lon="-0.56377">
        <ele>192.4</ele>
        <time>2019-04-20T08:37:01Z</time>
      </trkpt>
      <trkpt lat="43.4476" lon="-0.564">
        <ele>190</ele>
        <time>2019-04-20T08:37:11Z</time>
      </trkpt>
      <trkpt lat="43.44762" lon="-0.56402">
        <ele>189.52</ele>
        <time>2019-04-20T08:37:12Z</time>
      </trkpt>
      <trkpt lat="43.44765" lon="-0.56405">
        <ele>189.04</ele>
        <time>2019-04-20T08:37:13Z</time>
      </trkpt>
      <trkpt lat="43.44768" lon="-0.56407">
        <ele>188.56</ele>
        <time>2019-04-20T08:37:14Z</time>
      </trkpt>
      <trkpt lat="43.44771" lon="-0.56409">
        <ele>188.56</ele>
        <time>2019-04-20T08:37:15Z</time>
      </trkpt>
      <trkpt lat="43.44774" lon="-0.56411">
        <ele>188.08</ele>
        <time>2019-04-20T08:37:16Z</time>
      </trkpt>
      <trkpt lat="43.4481" lon="-0.56447">
        <ele>183.75</ele>
        <time>2019-04-20T08:37:31Z</time>
      </trkpt>
      <trkpt lat="43.44825" lon="-0.5648">
        <ele>181.83</ele>
        <time>2019-04-20T08:37:43Z</time>
      </trkpt>
      <trkpt lat="43.44824" lon="-0.56488">
        <ele>181.35</ele>
        <time>2019-04-20T08:37:46Z</time>
      </trkpt>
      <trkpt lat="43.44823" lon="-0.5649">
        <ele>181.35</ele>
        <time>2019-04-20T08:37:47Z</time>
      </trkpt>
      <trkpt lat="43.44822" lon="-0.56492">
        <ele>181.83</ele>
        <time>2019-04-20T08:37:48Z</time>
      </trkpt>
      <trkpt lat="43.4482" lon="-0.56501">
        <ele>183.27</ele>
        <time>2019-04-20T08:37:53Z</time>
      </trkpt>
      <trkpt lat="43.44819" lon="-0.56503">
        <ele>183.75</ele>
        <time>2019-04-20T08:37:54Z</time>
      </trkpt>
      <trkpt lat="43.44818" lon="-0.56504">
        <ele>184.23</ele>
        <time>2019-04-20T08:37:55Z</time>
      </trkpt>
      <trkpt lat="43.44817" lon="-0.56506">
        <ele>184.23</ele>
        <time>2019-04-20T08:37:56Z</time>
      </trkpt>
      <trkpt lat="43.44816" lon="-0.56508">
        <ele>184.71</ele>
        <time>2019-04-20T08:37:57Z</time>
      </trkpt>
      <trkpt lat="43.44816" lon="-0.5651">
        <ele>184.71</ele>
        <time>2019-04-20T08:37:58Z</time>
      </trkpt>
      <trkpt lat="43.44814" lon="-0.56511">
        <ele>185.19</ele>
        <time>2019-04-20T08:37:59Z</time>
      </trkpt>
      <trkpt lat="43.44813" lon="-0.56513">
        <ele>185.19</ele>
        <time>2019-04-20T08:38:00Z</time>
      </trkpt>
      <trkpt lat="43.44813" lon="-0.56515">
        <ele>185.19</ele>
        <time>2019-04-20T08:38:01Z</time>
      </trkpt>
      <trkpt lat="43.44811" lon="-0.56517">
        <ele>185.19</ele>
        <time>2019-04-20T08:38:02Z</time>
      </trkpt>
      <trkpt lat="43.44811" lon="-0.56519">
        <ele>185.67</ele>
        <time>2019-04-20T08:38:03Z</time>
      </trkpt>
      <trkpt lat="43.4481" lon="-0.56521">
        <ele>185.67</ele>
        <time>2019-04-20T08:38:04Z</time>
      </trkpt>
      <trkpt lat="43.44809" lon="-0.56523">
        <ele>186.15</ele>
        <time>2019-04-20T08:38:05Z</time>
      </trkpt>
      <trkpt lat="43.44809" lon="-0.56525">
        <ele>186.15</ele>
        <time>2019-04-20T08:38:06Z</time>
      </trkpt>
      <trkpt lat="43.44808" lon="-0.56527">
        <ele>186.63</ele>
        <time>2019-04-20T08:38:07Z</time>
      </trkpt>
      <trkpt lat="43.448" lon="-0.56554">
        <ele>191.44</ele>
        <time>2019-04-20T08:38:20Z</time>
      </trkpt>
      <trkpt lat="43.44795" lon="-0.56582">
        <ele>200.57</ele>
        <time>2019-04-20T08:38:35Z</time>
      </trkpt>
      <trkpt lat="43.44794" lon="-0.56584">
        <ele>201.05</ele>
        <time>2019-04-20T08:38:36Z</time>
      </trkpt>
      <trkpt lat="43.44793" lon="-0.56586">
        <ele>201.53</ele>
        <time>2019-04-20T08:38:37Z</time>
      </trkpt>
      <trkpt lat="43.44792" lon="-0.56592">
        <ele>203.46</ele>
        <time>2019-04-20T08:38:40Z</time>
      </trkpt>
      <trkpt lat="43.44792" lon="-0.56594">
        <ele>204.42</ele>
        <time>2019-04-20T08:38:41Z</time>
      </trkpt>
      <trkpt lat="43.44785" lon="-0.56621">
        <ele>213.07</ele>
        <time>2019-04-20T08:38:55Z</time>
      </trkpt>
      <trkpt lat="43.44778" lon="-0.56633">
        <ele>216.43</ele>
        <time>2019-04-20T08:39:04Z</time>
      </trkpt>
      <trkpt lat="43.44777" lon="-0.56635">
        <ele>216.43</ele>
        <time>2019-04-20T08:39:05Z</time>
      </trkpt>
      <trkpt lat="43.4477" lon="-0.56652">
        <ele>223.16</ele>
        <time>2019-04-20T08:39:19Z</time>
      </trkpt>
      <trkpt lat="43.44753" lon="-0.56678">
        <ele>225.09</ele>
        <time>2019-04-20T08:39:35Z</time>
      </trkpt>
      <trkpt lat="43.44745" lon="-0.56692">
        <ele>225.09</ele>
        <time>2019-04-20T08:39:43Z</time>
      </trkpt>
      <trkpt lat="43.44744" lon="-0.56694">
        <ele>225.09</ele>
        <time>2019-04-20T08:39:44Z</time>
      </trkpt>
      <trkpt lat="43.44743" lon="-0.56696">
        <ele>224.61</ele>
        <time>2019-04-20T08:39:45Z</time>
      </trkpt>
      <trkpt lat="43.44742" lon="-0.56698">
        <ele>224.61</ele>
        <time>2019-04-20T08:39:46Z</time>
      </trkpt>
      <trkpt lat="43.44741" lon="-0.567">
        <ele>224.61</ele>
        <time>2019-04-20T08:39:47Z</time>
      </trkpt>
      <trkpt lat="43.44741" lon="-0.56702">
        <ele>225.09</ele>
        <time>2019-04-20T08:39:48Z</time>
      </trkpt>
      <trkpt lat="43.4474" lon="-0.56704">
        <ele>225.09</ele>
        <time>2019-04-20T08:39:49Z</time>
      </trkpt>
      <trkpt lat="43.44737" lon="-0.56713">
        <ele>225.57</ele>
        <time>2019-04-20T08:39:53Z</time>
      </trkpt>
      <trkpt lat="43.44737" lon="-0.56715">
        <ele>226.05</ele>
        <time>2019-04-20T08:39:54Z</time>
      </trkpt>
      <trkpt lat="43.44737" lon="-0.56717">
        <ele>226.05</ele>
        <time>2019-04-20T08:39:55Z</time>
      </trkpt>
      <trkpt lat="43.44734" lon="-0.56752">
        <ele>224.61</ele>
        <time>2019-04-20T08:40:10Z</time>
      </trkpt>
      <trkpt lat="43.4473" lon="-0.56779">
        <ele>225.57</ele>
        <time>2019-04-20T08:40:22Z</time>
      </trkpt>
      <trkpt lat="43.4473" lon="-0.56782">
        <ele>226.05</ele>
        <time>2019-04-20T08:40:23Z</time>
      </trkpt>
      <trkpt lat="43.44731" lon="-0.56784">
        <ele>226.05</ele>
        <time>2019-04-20T08:40:24Z</time>
      </trkpt>
      <trkpt lat="43.44732" lon="-0.56786">
        <ele>226.05</ele>
        <time>2019-04-20T08:40:25Z</time>
      </trkpt>
      <trkpt lat="43.44732" lon="-0.56788">
        <ele>226.53</ele>
        <time>2019-04-20T08:40:26Z</time>
      </trkpt>
      <trkpt lat="43.44732" lon="-0.5679">
        <ele>227.01</ele>
        <time>2019-04-20T08:40:27Z</time>
      </trkpt>
      <trkpt lat="43.44732" lon="-0.56793">
        <ele>227.01</ele>
        <time>2019-04-20T08:40:28Z</time>
      </trkpt>
      <trkpt lat="43.44732" lon="-0.56795">
        <ele>227.49</ele>
        <time>2019-04-20T08:40:29Z</time>
      </trkpt>
      <trkpt lat="43.44732" lon="-0.56797">
        <ele>227.97</ele>
        <time>2019-04-20T08:40:30Z</time>
      </trkpt>
      <trkpt lat="43.44731" lon="-0.568">
        <ele>228.45</ele>
        <time>2019-04-20T08:40:31Z</time>
      </trkpt>
      <trkpt lat="43.44731" lon="-0.56802">
        <ele>228.45</ele>
        <time>2019-04-20T08:40:32Z</time>
      </trkpt>
      <trkpt lat="43.44738" lon="-0.56844">
        <ele>225.09</ele>
        <time>2019-04-20T08:40:48Z</time>
      </trkpt>
      <trkpt lat="43.44739" lon="-0.56849">
        <ele>224.61</ele>
        <time>2019-04-20T08:40:50Z</time>
      </trkpt>
      <trkpt lat="43.4474" lon="-0.56851">
        <ele>225.09</ele>
        <time>2019-04-20T08:40:51Z</time>
      </trkpt>
      <trkpt lat="43.4476" lon="-0.56893">
        <ele>222.68</ele>
        <time>2019-04-20T08:41:04Z</time>
      </trkpt>
      <trkpt lat="43.4478" lon="-0.56946">
        <ele>220.76</ele>
        <time>2019-04-20T08:41:20Z</time>
      </trkpt>
      <trkpt lat="43.44773" lon="-0.56979">
        <ele>221.24</ele>
        <time>2019-04-20T08:41:28Z</time>
      </trkpt>
      <trkpt lat="43.44772" lon="-0.56985">
        <ele>221.24</ele>
        <time>2019-04-20T08:41:29Z</time>
      </trkpt>
      <trkpt lat="43.44772" lon="-0.56993">
        <ele>221.24</ele>
        <time>2019-04-20T08:41:30Z</time>
      </trkpt>
      <trkpt lat="43.44772" lon="-0.57001">
        <ele>221.24</ele>
        <time>2019-04-20T08:41:31Z</time>
      </trkpt>
      <trkpt lat="43.44773" lon="-0.5701">
        <ele>221.24</ele>
        <time>2019-04-20T08:41:32Z</time>
      </trkpt>
      <trkpt lat="43.44772" lon="-0.57069">
        <ele>219.32</ele>
        <time>2019-04-20T08:41:38Z</time>
      </trkpt>
      <trkpt lat="43.44764" lon="-0.57102">
        <ele>214.99</ele>
        <time>2019-04-20T08:41:45Z</time>
      </trkpt>
      <trkpt lat="43.44761" lon="-0.57104">
        <ele>214.51</ele>
        <time>2019-04-20T08:41:46Z</time>
      </trkpt>
      <trkpt lat="43.44757" lon="-0.57104">
        <ele>213.55</ele>
        <time>2019-04-20T08:41:47Z</time>
      </trkpt>
      <trkpt lat="43.44752" lon="-0.57103">
        <ele>213.07</ele>
        <time>2019-04-20T08:41:48Z</time>
      </trkpt>
      <trkpt lat="43.44749" lon="-0.57101">
        <ele>212.59</ele>
        <time>2019-04-20T08:41:49Z</time>
      </trkpt>
      <trkpt lat="43.44745" lon="-0.57098">
        <ele>212.11</ele>
        <time>2019-04-20T08:41:50Z</time>
      </trkpt>
      <trkpt lat="43.4471" lon="-0.57063">
        <ele>206.82</ele>
        <time>2019-04-20T08:41:56Z</time>
      </trkpt>
      <trkpt lat="43.44705" lon="-0.57055">
        <ele>205.86</ele>
        <time>2019-04-20T08:41:57Z</time>
      </trkpt>
      <trkpt lat="43.44667" lon="-0.56977">
        <ele>200.09</ele>
        <time>2019-04-20T08:42:06Z</time>
      </trkpt>
      <trkpt lat="43.4466" lon="-0.5697">
        <ele>199.13</ele>
        <time>2019-04-20T08:42:07Z</time>
      </trkpt>
      <trkpt lat="43.44593" lon="-0.56931">
        <ele>193.36</ele>
        <time>2019-04-20T08:42:17Z</time>
      </trkpt>
      <trkpt lat="43.44587" lon="-0.56928">
        <ele>192.88</ele>
        <time>2019-04-20T08:42:18Z</time>
      </trkpt>
      <trkpt lat="43.44582" lon="-0.56925">
        <ele>192.88</ele>
        <time>2019-04-20T08:42:19Z</time>
      </trkpt>
      <trkpt lat="43.44576" lon="-0.56921">
        <ele>192.4</ele>
        <time>2019-04-20T08:42:20Z</time>
      </trkpt>
      <trkpt lat="43.44535" lon="-0.56895">
        <ele>190.48</ele>
        <time>2019-04-20T08:42:27Z</time>
      </trkpt>
      <trkpt lat="43.4453" lon="-0.56895">
        <ele>190</ele>
        <time>2019-04-20T08:42:28Z</time>
      </trkpt>
      <trkpt lat="43.44526" lon="-0.56895">
        <ele>189.52</ele>
        <time>2019-04-20T08:42:29Z</time>
      </trkpt>
      <trkpt lat="43.44491" lon="-0.56901">
        <ele>186.15</ele>
        <time>2019-04-20T08:42:40Z</time>
      </trkpt>
      <trkpt lat="43.44467" lon="-0.569">
        <ele>187.59</ele>
        <time>2019-04-20T08:42:51Z</time>
      </trkpt>
      <trkpt lat="43.44441" lon="-0.5688">
        <ele>189.04</ele>
        <time>2019-04-20T08:43:03Z</time>
      </trkpt>
      <trkpt lat="43.44425" lon="-0.56841">
        <ele>188.08</ele>
        <time>2019-04-20T08:43:14Z</time>
      </trkpt>
      <trkpt lat="43.44413" lon="-0.56803">
        <ele>188.08</ele>
        <time>2019-04-20T08:43:22Z</time>
      </trkpt>
      <trkpt lat="43.44411" lon="-0.56798">
        <ele>188.08</ele>
        <time>2019-04-20T08:43:23Z</time>
      </trkpt>
      <trkpt lat="43.4441" lon="-0.56792">
        <ele>187.59</ele>
        <time>2019-04-20T08:43:24Z</time>
      </trkpt>
      <trkpt lat="43.44408" lon="-0.56786">
        <ele>187.59</ele>
        <time>2019-04-20T08:43:25Z</time>
      </trkpt>
      <trkpt lat="43.44407" lon="-0.5678">
        <ele>187.59</ele>
        <time>2019-04-20T08:43:26Z</time>
      </trkpt>
      <trkpt lat="43.44405" lon="-0.56774">
        <ele>186.63</ele>
        <time>2019-04-20T08:43:27Z</time>
      </trkpt>
      <trkpt lat="43.44373" lon="-0.56695">
        <ele>183.75</ele>
        <time>2019-04-20T08:43:42Z</time>
      </trkpt>
      <trkpt lat="43.44342" lon="-0.56624">
        <ele>189.04</ele>
        <time>2019-04-20T08:43:56Z</time>
      </trkpt>
      <trkpt lat="43.44309" lon="-0.56564">
        <ele>189.52</ele>
        <time>2019-04-20T08:44:11Z</time>
      </trkpt>
      <trkpt lat="43.44304" lon="-0.56557">
        <ele>189.04</ele>
        <time>2019-04-20T08:44:13Z</time>
      </trkpt>
      <trkpt lat="43.443" lon="-0.56553">
        <ele>188.56</ele>
        <time>2019-04-20T08:44:14Z</time>
      </trkpt>
      <trkpt lat="43.44297" lon="-0.56551">
        <ele>188.56</ele>
        <time>2019-04-20T08:44:15Z</time>
      </trkpt>
      <trkpt lat="43.4429" lon="-0.56546">
        <ele>188.08</ele>
        <time>2019-04-20T08:44:17Z</time>
      </trkpt>
      <trkpt lat="43.44287" lon="-0.56543">
        <ele>187.59</ele>
        <time>2019-04-20T08:44:18Z</time>
      </trkpt>
      <trkpt lat="43.44283" lon="-0.56539">
        <ele>187.59</ele>
        <time>2019-04-20T08:44:19Z</time>
      </trkpt>
      <trkpt lat="43.44246" lon="-0.56508">
        <ele>186.15</ele>
        <time>2019-04-20T08:44:29Z</time>
      </trkpt>
      <trkpt lat="43.44229" lon="-0.565">
        <ele>187.11</ele>
        <time>2019-04-20T08:44:34Z</time>
      </trkpt>
      <trkpt lat="43.44224" lon="-0.56498">
        <ele>187.59</ele>
        <time>2019-04-20T08:44:35Z</time>
      </trkpt>
      <trkpt lat="43.4421" lon="-0.56491">
        <ele>187.59</ele>
        <time>2019-04-20T08:44:38Z</time>
      </trkpt>
      <trkpt lat="43.44194" lon="-0.5648">
        <ele>187.11</ele>
        <time>2019-04-20T08:44:41Z</time>
      </trkpt>
      <trkpt lat="43.44134" lon="-0.56394">
        <ele>181.35</ele>
        <time>2019-04-20T08:44:53Z</time>
      </trkpt>
      <trkpt lat="43.44131" lon="-0.56386">
        <ele>180.87</ele>
        <time>2019-04-20T08:44:54Z</time>
      </trkpt>
      <trkpt lat="43.44128" lon="-0.56378">
        <ele>180.38</ele>
        <time>2019-04-20T08:44:55Z</time>
      </trkpt>
      <trkpt lat="43.44122" lon="-0.56353">
        <ele>179.42</ele>
        <time>2019-04-20T08:44:58Z</time>
      </trkpt>
      <trkpt lat="43.4412" lon="-0.56346">
        <ele>179.42</ele>
        <time>2019-04-20T08:44:59Z</time>
      </trkpt>
      <trkpt lat="43.44119" lon="-0.56339">
        <ele>178.94</ele>
        <time>2019-04-20T08:45:00Z</time>
      </trkpt>
      <trkpt lat="43.44118" lon="-0.56333">
        <ele>178.46</ele>
        <time>2019-04-20T08:45:01Z</time>
      </trkpt>
      <trkpt lat="43.44115" lon="-0.56325">
        <ele>177.98</ele>
        <time>2019-04-20T08:45:02Z</time>
      </trkpt>
      <trkpt lat="43.44113" lon="-0.56317">
        <ele>177.5</ele>
        <time>2019-04-20T08:45:03Z</time>
      </trkpt>
      <trkpt lat="43.4411" lon="-0.5631">
        <ele>177.5</ele>
        <time>2019-04-20T08:45:04Z</time>
      </trkpt>
      <trkpt lat="43.44107" lon="-0.56303">
        <ele>177.02</ele>
        <time>2019-04-20T08:45:05Z</time>
      </trkpt>
      <trkpt lat="43.44103" lon="-0.56296">
        <ele>176.54</ele>
        <time>2019-04-20T08:45:06Z</time>
      </trkpt>
      <trkpt lat="43.44099" lon="-0.5629">
        <ele>176.06</ele>
        <time>2019-04-20T08:45:07Z</time>
      </trkpt>
      <trkpt lat="43.44095" lon="-0.56284">
        <ele>175.58</ele>
        <time>2019-04-20T08:45:08Z</time>
      </trkpt>
      <trkpt lat="43.44071" lon="-0.56258">
        <ele>173.66</ele>
        <time>2019-04-20T08:45:13Z</time>
      </trkpt>
      <trkpt lat="43.44064" lon="-0.56254">
        <ele>172.69</ele>
        <time>2019-04-20T08:45:14Z</time>
      </trkpt>
      <trkpt lat="43.43996" lon="-0.56227">
        <ele>165.48</ele>
        <time>2019-04-20T08:45:22Z</time>
      </trkpt>
      <trkpt lat="43.43991" lon="-0.56227">
        <ele>165</ele>
        <time>2019-04-20T08:45:23Z</time>
      </trkpt>
      <trkpt lat="43.43986" lon="-0.5623">
        <ele>164.52</ele>
        <time>2019-04-20T08:45:24Z</time>
      </trkpt>
      <trkpt lat="43.43949" lon="-0.56243">
        <ele>164.52</ele>
        <time>2019-04-20T08:45:33Z</time>
      </trkpt>
      <trkpt lat="43.43938" lon="-0.56237">
        <ele>166.45</ele>
        <time>2019-04-20T08:45:37Z</time>
      </trkpt>
      <trkpt lat="43.43908" lon="-0.5622">
        <ele>173.66</ele>
        <time>2019-04-20T08:45:51Z</time>
      </trkpt>
      <trkpt lat="43.43899" lon="-0.56217">
        <ele>174.14</ele>
        <time>2019-04-20T08:45:55Z</time>
      </trkpt>
      <trkpt lat="43.43883" lon="-0.56207">
        <ele>175.58</ele>
        <time>2019-04-20T08:46:06Z</time>
      </trkpt>
      <trkpt lat="43.43865" lon="-0.56196">
        <ele>184.71</ele>
        <time>2019-04-20T08:46:21Z</time>
      </trkpt>
      <trkpt lat="43.43848" lon="-0.56182">
        <ele>191.44</ele>
        <time>2019-04-20T08:46:35Z</time>
      </trkpt>
      <trkpt lat="43.4383" lon="-0.56174">
        <ele>196.25</ele>
        <time>2019-04-20T08:46:48Z</time>
      </trkpt>
      <trkpt lat="43.43811" lon="-0.56172">
        <ele>200.57</ele>
        <time>2019-04-20T08:47:02Z</time>
      </trkpt>
      <trkpt lat="43.43796" lon="-0.56172">
        <ele>203.94</ele>
        <time>2019-04-20T08:47:13Z</time>
      </trkpt>
      <trkpt lat="43.43776" lon="-0.56165">
        <ele>209.22</ele>
        <time>2019-04-20T08:47:29Z</time>
      </trkpt>
      <trkpt lat="43.43756" lon="-0.56155">
        <ele>212.11</ele>
        <time>2019-04-20T08:47:45Z</time>
      </trkpt>
      <trkpt lat="43.4373" lon="-0.56141">
        <ele>212.59</ele>
        <time>2019-04-20T08:47:59Z</time>
      </trkpt>
      <trkpt lat="43.43721" lon="-0.56136">
        <ele>215.47</ele>
        <time>2019-04-20T08:48:06Z</time>
      </trkpt>
      <trkpt lat="43.43705" lon="-0.56127">
        <ele>215.95</ele>
        <time>2019-04-20T08:48:17Z</time>
      </trkpt>
      <trkpt lat="43.43701" lon="-0.56124">
        <ele>215.95</ele>
        <time>2019-04-20T08:48:19Z</time>
      </trkpt>
      <trkpt lat="43.43692" lon="-0.56119">
        <ele>216.43</ele>
        <time>2019-04-20T08:48:25Z</time>
      </trkpt>
      <trkpt lat="43.43682" lon="-0.56115">
        <ele>217.4</ele>
        <time>2019-04-20T08:48:31Z</time>
      </trkpt>
      <trkpt lat="43.43665" lon="-0.56107">
        <ele>218.36</ele>
        <time>2019-04-20T08:48:43Z</time>
      </trkpt>
      <trkpt lat="43.43649" lon="-0.56104">
        <ele>217.4</ele>
        <time>2019-04-20T08:48:55Z</time>
      </trkpt>
      <trkpt lat="43.43643" lon="-0.56105">
        <ele>216.91</ele>
        <time>2019-04-20T08:48:58Z</time>
      </trkpt>
      <trkpt lat="43.43639" lon="-0.56109">
        <ele>215.95</ele>
        <time>2019-04-20T08:49:02Z</time>
      </trkpt>
      <trkpt lat="43.4365" lon="-0.56127">
        <ele>214.51</ele>
        <time>2019-04-20T08:49:14Z</time>
      </trkpt>
      <trkpt lat="43.43669" lon="-0.56161">
        <ele>210.67</ele>
        <time>2019-04-20T08:49:28Z</time>
      </trkpt>
      <trkpt lat="43.43685" lon="-0.56197">
        <ele>212.11</ele>
        <time>2019-04-20T08:49:41Z</time>
      </trkpt>
      <trkpt lat="43.43701" lon="-0.56228">
        <ele>214.99</ele>
        <time>2019-04-20T08:49:53Z</time>
      </trkpt>
      <trkpt lat="43.43725" lon="-0.56265">
        <ele>214.51</ele>
        <time>2019-04-20T08:50:03Z</time>
      </trkpt>
      <trkpt lat="43.43752" lon="-0.56305">
        <ele>215.95</ele>
        <time>2019-04-20T08:50:15Z</time>
      </trkpt>
      <trkpt lat="43.43769" lon="-0.56342">
        <ele>218.84</ele>
        <time>2019-04-20T08:50:25Z</time>
      </trkpt>
      <trkpt lat="43.43793" lon="-0.56384">
        <ele>220.28</ele>
        <time>2019-04-20T08:50:36Z</time>
      </trkpt>
      <trkpt lat="43.43818" lon="-0.56444">
        <ele>218.36</ele>
        <time>2019-04-20T08:50:47Z</time>
      </trkpt>
      <trkpt lat="43.43845" lon="-0.56521">
        <ele>218.36</ele>
        <time>2019-04-20T08:51:02Z</time>
      </trkpt>
      <trkpt lat="43.43847" lon="-0.56527">
        <ele>218.36</ele>
        <time>2019-04-20T08:51:03Z</time>
      </trkpt>
      <trkpt lat="43.43852" lon="-0.56544">
        <ele>218.84</ele>
        <time>2019-04-20T08:51:06Z</time>
      </trkpt>
      <trkpt lat="43.43863" lon="-0.56574">
        <ele>220.28</ele>
        <time>2019-04-20T08:51:11Z</time>
      </trkpt>
      <trkpt lat="43.43866" lon="-0.5658">
        <ele>220.28</ele>
        <time>2019-04-20T08:51:12Z</time>
      </trkpt>
      <trkpt lat="43.43868" lon="-0.56587">
        <ele>220.28</ele>
        <time>2019-04-20T08:51:13Z</time>
      </trkpt>
      <trkpt lat="43.43879" lon="-0.56624">
        <ele>219.32</ele>
        <time>2019-04-20T08:51:18Z</time>
      </trkpt>
      <trkpt lat="43.43882" lon="-0.56632">
        <ele>219.32</ele>
        <time>2019-04-20T08:51:19Z</time>
      </trkpt>
      <trkpt lat="43.43885" lon="-0.56639">
        <ele>219.32</ele>
        <time>2019-04-20T08:51:20Z</time>
      </trkpt>
      <trkpt lat="43.43907" lon="-0.56702">
        <ele>216.91</ele>
        <time>2019-04-20T08:51:27Z</time>
      </trkpt>
      <trkpt lat="43.43922" lon="-0.56738">
        <ele>214.51</ele>
        <time>2019-04-20T08:51:31Z</time>
      </trkpt>
      <trkpt lat="43.43924" lon="-0.56747">
        <ele>214.03</ele>
        <time>2019-04-20T08:51:32Z</time>
      </trkpt>
      <trkpt lat="43.43925" lon="-0.56755">
        <ele>213.55</ele>
        <time>2019-04-20T08:51:33Z</time>
      </trkpt>
      <trkpt lat="43.4393" lon="-0.56772">
        <ele>212.11</ele>
        <time>2019-04-20T08:51:35Z</time>
      </trkpt>
      <trkpt lat="43.43932" lon="-0.5678">
        <ele>212.11</ele>
        <time>2019-04-20T08:51:36Z</time>
      </trkpt>
      <trkpt lat="43.43936" lon="-0.56786">
        <ele>211.63</ele>
        <time>2019-04-20T08:51:37Z</time>
      </trkpt>
      <trkpt lat="43.43956" lon="-0.56825">
        <ele>210.19</ele>
        <time>2019-04-20T08:51:43Z</time>
      </trkpt>
      <trkpt lat="43.43958" lon="-0.56831">
        <ele>209.7</ele>
        <time>2019-04-20T08:51:44Z</time>
      </trkpt>
      <trkpt lat="43.43959" lon="-0.56836">
        <ele>209.22</ele>
        <time>2019-04-20T08:51:45Z</time>
      </trkpt>
      <trkpt lat="43.43959" lon="-0.56841">
        <ele>208.74</ele>
        <time>2019-04-20T08:51:46Z</time>
      </trkpt>
      <trkpt lat="43.43957" lon="-0.56845">
        <ele>208.26</ele>
        <time>2019-04-20T08:51:47Z</time>
      </trkpt>
      <trkpt lat="43.43953" lon="-0.56849">
        <ele>208.26</ele>
        <time>2019-04-20T08:51:48Z</time>
      </trkpt>
      <trkpt lat="43.4395" lon="-0.56852">
        <ele>208.26</ele>
        <time>2019-04-20T08:51:49Z</time>
      </trkpt>
      <trkpt lat="43.43945" lon="-0.56857">
        <ele>207.78</ele>
        <time>2019-04-20T08:51:50Z</time>
      </trkpt>
      <trkpt lat="43.43941" lon="-0.56864">
        <ele>207.78</ele>
        <time>2019-04-20T08:51:51Z</time>
      </trkpt>
      <trkpt lat="43.43937" lon="-0.5687">
        <ele>207.78</ele>
        <time>2019-04-20T08:51:52Z</time>
      </trkpt>
      <trkpt lat="43.43932" lon="-0.56877">
        <ele>207.3</ele>
        <time>2019-04-20T08:51:53Z</time>
      </trkpt>
      <trkpt lat="43.43917" lon="-0.56899">
        <ele>204.9</ele>
        <time>2019-04-20T08:51:57Z</time>
      </trkpt>
      <trkpt lat="43.43915" lon="-0.56904">
        <ele>204.42</ele>
        <time>2019-04-20T08:51:58Z</time>
      </trkpt>
      <trkpt lat="43.43914" lon="-0.5691">
        <ele>203.46</ele>
        <time>2019-04-20T08:51:59Z</time>
      </trkpt>
      <trkpt lat="43.43911" lon="-0.56924">
        <ele>200.09</ele>
        <time>2019-04-20T08:52:01Z</time>
      </trkpt>
      <trkpt lat="43.43908" lon="-0.56929">
        <ele>199.13</ele>
        <time>2019-04-20T08:52:02Z</time>
      </trkpt>
      <trkpt lat="43.43894" lon="-0.56932">
        <ele>196.25</ele>
        <time>2019-04-20T08:52:05Z</time>
      </trkpt>
      <trkpt lat="43.43887" lon="-0.5693">
        <ele>195.77</ele>
        <time>2019-04-20T08:52:06Z</time>
      </trkpt>
      <trkpt lat="43.43882" lon="-0.56929">
        <ele>195.28</ele>
        <time>2019-04-20T08:52:07Z</time>
      </trkpt>
      <trkpt lat="43.43837" lon="-0.5692">
        <ele>193.84</ele>
        <time>2019-04-20T08:52:14Z</time>
      </trkpt>
      <trkpt lat="43.4383" lon="-0.56917">
        <ele>193.84</ele>
        <time>2019-04-20T08:52:15Z</time>
      </trkpt>
      <trkpt lat="43.43798" lon="-0.56891">
        <ele>192.88</ele>
        <time>2019-04-20T08:52:20Z</time>
      </trkpt>
      <trkpt lat="43.43793" lon="-0.56882">
        <ele>192.88</ele>
        <time>2019-04-20T08:52:21Z</time>
      </trkpt>
      <trkpt lat="43.4379" lon="-0.56873">
        <ele>192.88</ele>
        <time>2019-04-20T08:52:22Z</time>
      </trkpt>
      <trkpt lat="43.43783" lon="-0.56856">
        <ele>192.4</ele>
        <time>2019-04-20T08:52:24Z</time>
      </trkpt>
      <trkpt lat="43.43773" lon="-0.56846">
        <ele>191.92</ele>
        <time>2019-04-20T08:52:26Z</time>
      </trkpt>
      <trkpt lat="43.43767" lon="-0.56844">
        <ele>191.92</ele>
        <time>2019-04-20T08:52:27Z</time>
      </trkpt>
      <trkpt lat="43.4376" lon="-0.56842">
        <ele>191.44</ele>
        <time>2019-04-20T08:52:28Z</time>
      </trkpt>
      <trkpt lat="43.43717" lon="-0.56834">
        <ele>190</ele>
        <time>2019-04-20T08:52:33Z</time>
      </trkpt>
      <trkpt lat="43.43709" lon="-0.5683">
        <ele>190</ele>
        <time>2019-04-20T08:52:34Z</time>
      </trkpt>
      <trkpt lat="43.43701" lon="-0.56825">
        <ele>189.52</ele>
        <time>2019-04-20T08:52:35Z</time>
      </trkpt>
      <trkpt lat="43.43681" lon="-0.56814">
        <ele>187.59</ele>
        <time>2019-04-20T08:52:38Z</time>
      </trkpt>
      <trkpt lat="43.43675" lon="-0.56814">
        <ele>186.63</ele>
        <time>2019-04-20T08:52:39Z</time>
      </trkpt>
      <trkpt lat="43.43672" lon="-0.56815">
        <ele>185.67</ele>
        <time>2019-04-20T08:52:40Z</time>
      </trkpt>
      <trkpt lat="43.43671" lon="-0.56817">
        <ele>185.19</ele>
        <time>2019-04-20T08:52:41Z</time>
      </trkpt>
      <trkpt lat="43.43671" lon="-0.56818">
        <ele>185.19</ele>
        <time>2019-04-20T08:52:42Z</time>
      </trkpt>
      <trkpt lat="43.43672" lon="-0.56819">
        <ele>184.71</ele>
        <time>2019-04-20T08:52:43Z</time>
      </trkpt>
      <trkpt lat="43.43671" lon="-0.56821">
        <ele>183.75</ele>
        <time>2019-04-20T08:52:44Z</time>
      </trkpt>
      <trkpt lat="43.43678" lon="-0.56843">
        <ele>177.5</ele>
        <time>2019-04-20T08:52:55Z</time>
      </trkpt>
      <trkpt lat="43.437" lon="-0.56893">
        <ele>172.21</ele>
        <time>2019-04-20T08:53:07Z</time>
      </trkpt>
      <trkpt lat="43.43705" lon="-0.56917">
        <ele>168.85</ele>
        <time>2019-04-20T08:53:11Z</time>
      </trkpt>
      <trkpt lat="43.43706" lon="-0.56923">
        <ele>167.89</ele>
        <time>2019-04-20T08:53:12Z</time>
      </trkpt>
      <trkpt lat="43.43706" lon="-0.56929">
        <ele>166.93</ele>
        <time>2019-04-20T08:53:13Z</time>
      </trkpt>
      <trkpt lat="43.43706" lon="-0.56935">
        <ele>165.96</ele>
        <time>2019-04-20T08:53:14Z</time>
      </trkpt>
      <trkpt lat="43.43705" lon="-0.56941">
        <ele>165</ele>
        <time>2019-04-20T08:53:15Z</time>
      </trkpt>
      <trkpt lat="43.43705" lon="-0.56948">
        <ele>164.04</ele>
        <time>2019-04-20T08:53:16Z</time>
      </trkpt>
      <trkpt lat="43.4371" lon="-0.56988">
        <ele>158.75</ele>
        <time>2019-04-20T08:53:22Z</time>
      </trkpt>
      <trkpt lat="43.43715" lon="-0.57042">
        <ele>152.99</ele>
        <time>2019-04-20T08:53:29Z</time>
      </trkpt>
      <trkpt lat="43.43717" lon="-0.5705">
        <ele>152.99</ele>
        <time>2019-04-20T08:53:30Z</time>
      </trkpt>
      <trkpt lat="43.43719" lon="-0.57058">
        <ele>152.51</ele>
        <time>2019-04-20T08:53:31Z</time>
      </trkpt>
      <trkpt lat="43.43722" lon="-0.57065">
        <ele>152.51</ele>
        <time>2019-04-20T08:53:32Z</time>
      </trkpt>
      <trkpt lat="43.43725" lon="-0.57073">
        <ele>152.51</ele>
        <time>2019-04-20T08:53:33Z</time>
      </trkpt>
      <trkpt lat="43.43728" lon="-0.5708">
        <ele>152.03</ele>
        <time>2019-04-20T08:53:34Z</time>
      </trkpt>
      <trkpt lat="43.43739" lon="-0.57103">
        <ele>150.58</ele>
        <time>2019-04-20T08:53:38Z</time>
      </trkpt>
      <trkpt lat="43.4374" lon="-0.57108">
        <ele>150.1</ele>
        <time>2019-04-20T08:53:39Z</time>
      </trkpt>
      <trkpt lat="43.43763" lon="-0.57172">
        <ele>146.26</ele>
        <time>2019-04-20T08:53:53Z</time>
      </trkpt>
      <trkpt lat="43.43763" lon="-0.57171">
        <ele>145.3</ele>
        <time>2019-04-20T08:54:12Z</time>
      </trkpt>
      <trkpt lat="43.43764" lon="-0.57175">
        <ele>144.82</ele>
        <time>2019-04-20T08:54:33Z</time>
      </trkpt>
      <trkpt lat="43.43789" lon="-0.57212">
        <ele>141.93</ele>
        <time>2019-04-20T08:54:45Z</time>
      </trkpt>
      <trkpt lat="43.43829" lon="-0.57275">
        <ele>140.97</ele>
        <time>2019-04-20T08:55:00Z</time>
      </trkpt>
      <trkpt lat="43.43865" lon="-0.57357">
        <ele>143.85</ele>
        <time>2019-04-20T08:55:16Z</time>
      </trkpt>
      <trkpt lat="43.43864" lon="-0.57363">
        <ele>144.34</ele>
        <time>2019-04-20T08:55:17Z</time>
      </trkpt>
      <trkpt lat="43.43863" lon="-0.57369">
        <ele>144.82</ele>
        <time>2019-04-20T08:55:18Z</time>
      </trkpt>
      <trkpt lat="43.4386" lon="-0.57374">
        <ele>144.34</ele>
        <time>2019-04-20T08:55:19Z</time>
      </trkpt>
      <trkpt lat="43.43814" lon="-0.57435">
        <ele>140.97</ele>
        <time>2019-04-20T08:55:28Z</time>
      </trkpt>
      <trkpt lat="43.43797" lon="-0.57464">
        <ele>139.05</ele>
        <time>2019-04-20T08:55:31Z</time>
      </trkpt>
      <trkpt lat="43.43743" lon="-0.57606">
        <ele>134.72</ele>
        <time>2019-04-20T08:55:46Z</time>
      </trkpt>
      <trkpt lat="43.43722" lon="-0.5766">
        <ele>133.28</ele>
        <time>2019-04-20T08:55:53Z</time>
      </trkpt>
      <trkpt lat="43.43721" lon="-0.57668">
        <ele>132.8</ele>
        <time>2019-04-20T08:55:54Z</time>
      </trkpt>
      <trkpt lat="43.4372" lon="-0.57676">
        <ele>132.32</ele>
        <time>2019-04-20T08:55:55Z</time>
      </trkpt>
      <trkpt lat="43.43721" lon="-0.57684">
        <ele>131.36</ele>
        <time>2019-04-20T08:55:56Z</time>
      </trkpt>
      <trkpt lat="43.43723" lon="-0.57692">
        <ele>130.88</ele>
        <time>2019-04-20T08:55:57Z</time>
      </trkpt>
      <trkpt lat="43.43735" lon="-0.5774">
        <ele>128.47</ele>
        <time>2019-04-20T08:56:03Z</time>
      </trkpt>
      <trkpt lat="43.43745" lon="-0.57767">
        <ele>128.47</ele>
        <time>2019-04-20T08:56:07Z</time>
      </trkpt>
      <trkpt lat="43.43772" lon="-0.57825">
        <ele>127.99</ele>
        <time>2019-04-20T08:56:16Z</time>
      </trkpt>
      <trkpt lat="43.43782" lon="-0.57867">
        <ele>127.51</ele>
        <time>2019-04-20T08:56:22Z</time>
      </trkpt>
      <trkpt lat="43.43783" lon="-0.57875">
        <ele>127.51</ele>
        <time>2019-04-20T08:56:23Z</time>
      </trkpt>
      <trkpt lat="43.43784" lon="-0.57883">
        <ele>127.03</ele>
        <time>2019-04-20T08:56:24Z</time>
      </trkpt>
      <trkpt lat="43.43786" lon="-0.57922">
        <ele>127.03</ele>
        <time>2019-04-20T08:56:29Z</time>
      </trkpt>
      <trkpt lat="43.43787" lon="-0.5793">
        <ele>127.03</ele>
        <time>2019-04-20T08:56:30Z</time>
      </trkpt>
      <trkpt lat="43.43789" lon="-0.57937">
        <ele>127.03</ele>
        <time>2019-04-20T08:56:31Z</time>
      </trkpt>
      <trkpt lat="43.438" lon="-0.57962">
        <ele>127.51</ele>
        <time>2019-04-20T08:56:35Z</time>
      </trkpt>
      <trkpt lat="43.43844" lon="-0.58061">
        <ele>127.51</ele>
        <time>2019-04-20T08:56:50Z</time>
      </trkpt>
      <trkpt lat="43.4389" lon="-0.58163">
        <ele>126.55</ele>
        <time>2019-04-20T08:57:05Z</time>
      </trkpt>
      <trkpt lat="43.43934" lon="-0.58262">
        <ele>126.55</ele>
        <time>2019-04-20T08:57:19Z</time>
      </trkpt>
      <trkpt lat="43.43943" lon="-0.58283">
        <ele>127.03</ele>
        <time>2019-04-20T08:57:22Z</time>
      </trkpt>
      <trkpt lat="43.43946" lon="-0.5829">
        <ele>127.03</ele>
        <time>2019-04-20T08:57:23Z</time>
      </trkpt>
      <trkpt lat="43.4396" lon="-0.58323">
        <ele>128.47</ele>
        <time>2019-04-20T08:57:28Z</time>
      </trkpt>
      <trkpt lat="43.43962" lon="-0.5833">
        <ele>128.95</ele>
        <time>2019-04-20T08:57:29Z</time>
      </trkpt>
      <trkpt lat="43.43965" lon="-0.58352">
        <ele>129.43</ele>
        <time>2019-04-20T08:57:33Z</time>
      </trkpt>
      <trkpt lat="43.43964" lon="-0.58357">
        <ele>129.43</ele>
        <time>2019-04-20T08:57:34Z</time>
      </trkpt>
      <trkpt lat="43.43961" lon="-0.58361">
        <ele>129.43</ele>
        <time>2019-04-20T08:57:35Z</time>
      </trkpt>
      <trkpt lat="43.43957" lon="-0.58364">
        <ele>129.43</ele>
        <time>2019-04-20T08:57:36Z</time>
      </trkpt>
      <trkpt lat="43.43953" lon="-0.58367">
        <ele>129.43</ele>
        <time>2019-04-20T08:57:37Z</time>
      </trkpt>
      <trkpt lat="43.43949" lon="-0.5837">
        <ele>129.43</ele>
        <time>2019-04-20T08:57:38Z</time>
      </trkpt>
      <trkpt lat="43.43944" lon="-0.58374">
        <ele>128.95</ele>
        <time>2019-04-20T08:57:39Z</time>
      </trkpt>
      <trkpt lat="43.43858" lon="-0.58442">
        <ele>127.99</ele>
        <time>2019-04-20T08:57:57Z</time>
      </trkpt>
      <trkpt lat="43.43849" lon="-0.5845">
        <ele>127.99</ele>
        <time>2019-04-20T08:57:59Z</time>
      </trkpt>
      <trkpt lat="43.43815" lon="-0.58491">
        <ele>127.51</ele>
        <time>2019-04-20T08:58:08Z</time>
      </trkpt>
      <trkpt lat="43.43805" lon="-0.58507">
        <ele>127.03</ele>
        <time>2019-04-20T08:58:11Z</time>
      </trkpt>
      <trkpt lat="43.43801" lon="-0.58515">
        <ele>127.03</ele>
        <time>2019-04-20T08:58:13Z</time>
      </trkpt>
      <trkpt lat="43.43798" lon="-0.58516">
        <ele>127.03</ele>
        <time>2019-04-20T08:58:14Z</time>
      </trkpt>
      <trkpt lat="43.43793" lon="-0.58516">
        <ele>126.07</ele>
        <time>2019-04-20T08:58:15Z</time>
      </trkpt>
      <trkpt lat="43.4379" lon="-0.58514">
        <ele>125.59</ele>
        <time>2019-04-20T08:58:16Z</time>
      </trkpt>
      <trkpt lat="43.43785" lon="-0.58512">
        <ele>125.11</ele>
        <time>2019-04-20T08:58:17Z</time>
      </trkpt>
      <trkpt lat="43.43702" lon="-0.58472">
        <ele>122.71</ele>
        <time>2019-04-20T08:58:32Z</time>
      </trkpt>
      <trkpt lat="43.43621" lon="-0.58431">
        <ele>122.71</ele>
        <time>2019-04-20T08:58:47Z</time>
      </trkpt>
      <trkpt lat="43.4352" lon="-0.58383">
        <ele>123.67</ele>
        <time>2019-04-20T08:59:06Z</time>
      </trkpt>
      <trkpt lat="43.43456" lon="-0.58355">
        <ele>124.15</ele>
        <time>2019-04-20T08:59:20Z</time>
      </trkpt>
      <trkpt lat="43.4341" lon="-0.58337">
        <ele>124.15</ele>
        <time>2019-04-20T08:59:32Z</time>
      </trkpt>
      <trkpt lat="43.43368" lon="-0.58322">
        <ele>125.59</ele>
        <time>2019-04-20T08:59:44Z</time>
      </trkpt>
      <trkpt lat="43.43334" lon="-0.58294">
        <ele>130.88</ele>
        <time>2019-04-20T08:59:56Z</time>
      </trkpt>
      <trkpt lat="43.43309" lon="-0.58267">
        <ele>136.16</ele>
        <time>2019-04-20T09:00:08Z</time>
      </trkpt>
      <trkpt lat="43.43298" lon="-0.58241">
        <ele>141.93</ele>
        <time>2019-04-20T09:00:20Z</time>
      </trkpt>
      <trkpt lat="43.43286" lon="-0.58214">
        <ele>147.22</ele>
        <time>2019-04-20T09:00:35Z</time>
      </trkpt>
      <trkpt lat="43.43276" lon="-0.58195">
        <ele>151.54</ele>
        <time>2019-04-20T09:00:47Z</time>
      </trkpt>
      <trkpt lat="43.43275" lon="-0.58192">
        <ele>152.99</ele>
        <time>2019-04-20T09:00:49Z</time>
      </trkpt>
      <trkpt lat="43.43265" lon="-0.58176">
        <ele>156.35</ele>
        <time>2019-04-20T09:01:03Z</time>
      </trkpt>
      <trkpt lat="43.43252" lon="-0.58166">
        <ele>158.27</ele>
        <time>2019-04-20T09:01:17Z</time>
      </trkpt>
      <trkpt lat="43.43237" lon="-0.5817">
        <ele>155.87</ele>
        <time>2019-04-20T09:01:31Z</time>
      </trkpt>
      <trkpt lat="43.43232" lon="-0.58173">
        <ele>155.39</ele>
        <time>2019-04-20T09:01:35Z</time>
      </trkpt>
      <trkpt lat="43.43226" lon="-0.58178">
        <ele>155.87</ele>
        <time>2019-04-20T09:01:42Z</time>
      </trkpt>
      <trkpt lat="43.43226" lon="-0.58181">
        <ele>155.87</ele>
        <time>2019-04-20T09:01:43Z</time>
      </trkpt>
      <trkpt lat="43.43225" lon="-0.58183">
        <ele>155.87</ele>
        <time>2019-04-20T09:01:44Z</time>
      </trkpt>
      <trkpt lat="43.43224" lon="-0.58184">
        <ele>155.87</ele>
        <time>2019-04-20T09:01:45Z</time>
      </trkpt>
      <trkpt lat="43.43216" lon="-0.58207">
        <ele>158.75</ele>
        <time>2019-04-20T09:01:58Z</time>
      </trkpt>
      <trkpt lat="43.432" lon="-0.58218">
        <ele>160.2</ele>
        <time>2019-04-20T09:02:10Z</time>
      </trkpt>
      <trkpt lat="43.43189" lon="-0.58216">
        <ele>162.12</ele>
        <time>2019-04-20T09:02:19Z</time>
      </trkpt>
      <trkpt lat="43.43188" lon="-0.58215">
        <ele>162.12</ele>
        <time>2019-04-20T09:02:20Z</time>
      </trkpt>
      <trkpt lat="43.43171" lon="-0.58209">
        <ele>163.08</ele>
        <time>2019-04-20T09:02:33Z</time>
      </trkpt>
      <trkpt lat="43.4317" lon="-0.58208">
        <ele>163.56</ele>
        <time>2019-04-20T09:02:34Z</time>
      </trkpt>
      <trkpt lat="43.43148" lon="-0.58209">
        <ele>163.56</ele>
        <time>2019-04-20T09:02:49Z</time>
      </trkpt>
      <trkpt lat="43.43125" lon="-0.5823">
        <ele>163.08</ele>
        <time>2019-04-20T09:03:04Z</time>
      </trkpt>
      <trkpt lat="43.43103" lon="-0.58242">
        <ele>163.56</ele>
        <time>2019-04-20T09:03:17Z</time>
      </trkpt>
      <trkpt lat="43.43082" lon="-0.58233">
        <ele>163.08</ele>
        <time>2019-04-20T09:03:31Z</time>
      </trkpt>
      <trkpt lat="43.43081" lon="-0.58232">
        <ele>162.12</ele>
        <time>2019-04-20T09:03:50Z</time>
      </trkpt>
      <trkpt lat="43.4308" lon="-0.5823">
        <ele>162.12</ele>
        <time>2019-04-20T09:03:52Z</time>
      </trkpt>
      <trkpt lat="43.4308" lon="-0.58228">
        <ele>162.12</ele>
        <time>2019-04-20T09:03:53Z</time>
      </trkpt>
      <trkpt lat="43.43098" lon="-0.58198">
        <ele>164.04</ele>
        <time>2019-04-20T09:04:08Z</time>
      </trkpt>
      <trkpt lat="43.43122" lon="-0.58159">
        <ele>168.85</ele>
        <time>2019-04-20T09:04:24Z</time>
      </trkpt>
      <trkpt lat="43.43132" lon="-0.58113">
        <ele>171.73</ele>
        <time>2019-04-20T09:04:40Z</time>
      </trkpt>
      <trkpt lat="43.4314" lon="-0.58049">
        <ele>168.85</ele>
        <time>2019-04-20T09:04:52Z</time>
      </trkpt>
      <trkpt lat="43.43145" lon="-0.57978">
        <ele>167.89</ele>
        <time>2019-04-20T09:05:04Z</time>
      </trkpt>
      <trkpt lat="43.43129" lon="-0.57934">
        <ele>168.37</ele>
        <time>2019-04-20T09:05:14Z</time>
      </trkpt>
      <trkpt lat="43.43115" lon="-0.57878">
        <ele>165</ele>
        <time>2019-04-20T09:05:21Z</time>
      </trkpt>
      <trkpt lat="43.43113" lon="-0.57843">
        <ele>164.04</ele>
        <time>2019-04-20T09:05:25Z</time>
      </trkpt>
      <trkpt lat="43.43113" lon="-0.57829">
        <ele>164.04</ele>
        <time>2019-04-20T09:05:27Z</time>
      </trkpt>
      <trkpt lat="43.43113" lon="-0.57817">
        <ele>164.52</ele>
        <time>2019-04-20T09:05:29Z</time>
      </trkpt>
      <trkpt lat="43.43105" lon="-0.57776">
        <ele>165.96</ele>
        <time>2019-04-20T09:05:37Z</time>
      </trkpt>
      <trkpt lat="43.43082" lon="-0.57716">
        <ele>169.81</ele>
        <time>2019-04-20T09:05:51Z</time>
      </trkpt>
      <trkpt lat="43.43053" lon="-0.57691">
        <ele>173.66</ele>
        <time>2019-04-20T09:06:04Z</time>
      </trkpt>
      <trkpt lat="43.43027" lon="-0.57671">
        <ele>177.5</ele>
        <time>2019-04-20T09:06:19Z</time>
      </trkpt>
      <trkpt lat="43.43014" lon="-0.57646">
        <ele>180.38</ele>
        <time>2019-04-20T09:06:33Z</time>
      </trkpt>
      <trkpt lat="43.43012" lon="-0.5764">
        <ele>180.87</ele>
        <time>2019-04-20T09:06:36Z</time>
      </trkpt>
      <trkpt lat="43.43012" lon="-0.57638">
        <ele>181.35</ele>
        <time>2019-04-20T09:06:37Z</time>
      </trkpt>
      <trkpt lat="43.43012" lon="-0.57636">
        <ele>181.35</ele>
        <time>2019-04-20T09:06:38Z</time>
      </trkpt>
      <trkpt lat="43.43012" lon="-0.57634">
        <ele>181.83</ele>
        <time>2019-04-20T09:06:39Z</time>
      </trkpt>
      <trkpt lat="43.43011" lon="-0.57633">
        <ele>181.83</ele>
        <time>2019-04-20T09:06:40Z</time>
      </trkpt>
      <trkpt lat="43.43008" lon="-0.5762">
        <ele>182.31</ele>
        <time>2019-04-20T09:06:47Z</time>
      </trkpt>
      <trkpt lat="43.43007" lon="-0.57618">
        <ele>182.31</ele>
        <time>2019-04-20T09:06:48Z</time>
      </trkpt>
      <trkpt lat="43.43007" lon="-0.57616">
        <ele>182.31</ele>
        <time>2019-04-20T09:06:49Z</time>
      </trkpt>
      <trkpt lat="43.43006" lon="-0.57615">
        <ele>182.31</ele>
        <time>2019-04-20T09:06:50Z</time>
      </trkpt>
      <trkpt lat="43.43006" lon="-0.57612">
        <ele>182.31</ele>
        <time>2019-04-20T09:06:51Z</time>
      </trkpt>
      <trkpt lat="43.43005" lon="-0.5761">
        <ele>182.79</ele>
        <time>2019-04-20T09:06:52Z</time>
      </trkpt>
      <trkpt lat="43.43004" lon="-0.57609">
        <ele>183.27</ele>
        <time>2019-04-20T09:06:53Z</time>
      </trkpt>
      <trkpt lat="43.43003" lon="-0.57606">
        <ele>184.23</ele>
        <time>2019-04-20T09:06:55Z</time>
      </trkpt>
      <trkpt lat="43.43002" lon="-0.57604">
        <ele>185.19</ele>
        <time>2019-04-20T09:06:56Z</time>
      </trkpt>
      <trkpt lat="43.43002" lon="-0.57603">
        <ele>185.67</ele>
        <time>2019-04-20T09:06:57Z</time>
      </trkpt>
      <trkpt lat="43.43001" lon="-0.57601">
        <ele>186.15</ele>
        <time>2019-04-20T09:06:58Z</time>
      </trkpt>
      <trkpt lat="43.43" lon="-0.576">
        <ele>186.63</ele>
        <time>2019-04-20T09:06:59Z</time>
      </trkpt>
      <trkpt lat="43.42999" lon="-0.57598">
        <ele>187.59</ele>
        <time>2019-04-20T09:07:00Z</time>
      </trkpt>
      <trkpt lat="43.42998" lon="-0.57597">
        <ele>188.08</ele>
        <time>2019-04-20T09:07:01Z</time>
      </trkpt>
      <trkpt lat="43.42997" lon="-0.57596">
        <ele>188.56</ele>
        <time>2019-04-20T09:07:02Z</time>
      </trkpt>
      <trkpt lat="43.42996" lon="-0.57595">
        <ele>188.56</ele>
        <time>2019-04-20T09:07:03Z</time>
      </trkpt>
      <trkpt lat="43.42995" lon="-0.57594">
        <ele>189.04</ele>
        <time>2019-04-20T09:07:04Z</time>
      </trkpt>
      <trkpt lat="43.42982" lon="-0.57576">
        <ele>191.92</ele>
        <time>2019-04-20T09:07:19Z</time>
      </trkpt>
      <trkpt lat="43.42971" lon="-0.57559">
        <ele>194.32</ele>
        <time>2019-04-20T09:07:30Z</time>
      </trkpt>
      <trkpt lat="43.42971" lon="-0.57557">
        <ele>194.32</ele>
        <time>2019-04-20T09:07:31Z</time>
      </trkpt>
      <trkpt lat="43.4297" lon="-0.57555">
        <ele>194.32</ele>
        <time>2019-04-20T09:07:32Z</time>
      </trkpt>
      <trkpt lat="43.42962" lon="-0.57534">
        <ele>195.77</ele>
        <time>2019-04-20T09:07:43Z</time>
      </trkpt>
      <trkpt lat="43.42961" lon="-0.57532">
        <ele>196.25</ele>
        <time>2019-04-20T09:07:44Z</time>
      </trkpt>
      <trkpt lat="43.4295" lon="-0.5751">
        <ele>201.53</ele>
        <time>2019-04-20T09:07:55Z</time>
      </trkpt>
      <trkpt lat="43.42944" lon="-0.57495">
        <ele>202.49</ele>
        <time>2019-04-20T09:08:01Z</time>
      </trkpt>
      <trkpt lat="43.4293" lon="-0.57465">
        <ele>204.9</ele>
        <time>2019-04-20T09:08:13Z</time>
      </trkpt>
      <trkpt lat="43.4293" lon="-0.57462">
        <ele>205.38</ele>
        <time>2019-04-20T09:08:14Z</time>
      </trkpt>
      <trkpt lat="43.42929" lon="-0.57459">
        <ele>205.86</ele>
        <time>2019-04-20T09:08:15Z</time>
      </trkpt>
      <trkpt lat="43.42928" lon="-0.57455">
        <ele>205.86</ele>
        <time>2019-04-20T09:08:16Z</time>
      </trkpt>
      <trkpt lat="43.42927" lon="-0.57452">
        <ele>206.34</ele>
        <time>2019-04-20T09:08:17Z</time>
      </trkpt>
      <trkpt lat="43.42916" lon="-0.57417">
        <ele>211.63</ele>
        <time>2019-04-20T09:08:29Z</time>
      </trkpt>
      <trkpt lat="43.42915" lon="-0.57415">
        <ele>212.11</ele>
        <time>2019-04-20T09:08:30Z</time>
      </trkpt>
      <trkpt lat="43.42914" lon="-0.57413">
        <ele>212.11</ele>
        <time>2019-04-20T09:08:31Z</time>
      </trkpt>
      <trkpt lat="43.42914" lon="-0.57411">
        <ele>213.07</ele>
        <time>2019-04-20T09:08:32Z</time>
      </trkpt>
      <trkpt lat="43.42913" lon="-0.57408">
        <ele>213.55</ele>
        <time>2019-04-20T09:08:33Z</time>
      </trkpt>
      <trkpt lat="43.42912" lon="-0.57406">
        <ele>214.03</ele>
        <time>2019-04-20T09:08:34Z</time>
      </trkpt>
      <trkpt lat="43.42911" lon="-0.57404">
        <ele>214.51</ele>
        <time>2019-04-20T09:08:35Z</time>
      </trkpt>
      <trkpt lat="43.42909" lon="-0.57402">
        <ele>215.47</ele>
        <time>2019-04-20T09:08:36Z</time>
      </trkpt>
      <trkpt lat="43.42908" lon="-0.574">
        <ele>215.95</ele>
        <time>2019-04-20T09:08:37Z</time>
      </trkpt>
      <trkpt lat="43.42903" lon="-0.57384">
        <ele>222.68</ele>
        <time>2019-04-20T09:08:48Z</time>
      </trkpt>
      <trkpt lat="43.42903" lon="-0.57383">
        <ele>223.16</ele>
        <time>2019-04-20T09:08:49Z</time>
      </trkpt>
      <trkpt lat="43.429" lon="-0.57361">
        <ele>224.12</ele>
        <time>2019-04-20T09:08:59Z</time>
      </trkpt>
      <trkpt lat="43.42894" lon="-0.57321">
        <ele>222.68</ele>
        <time>2019-04-20T09:09:13Z</time>
      </trkpt>
      <trkpt lat="43.42887" lon="-0.57289">
        <ele>223.16</ele>
        <time>2019-04-20T09:09:21Z</time>
      </trkpt>
      <trkpt lat="43.42874" lon="-0.57239">
        <ele>219.32</ele>
        <time>2019-04-20T09:09:30Z</time>
      </trkpt>
      <trkpt lat="43.42873" lon="-0.57237">
        <ele>218.84</ele>
        <time>2019-04-20T09:09:31Z</time>
      </trkpt>
      <trkpt lat="43.42872" lon="-0.57229">
        <ele>215.95</ele>
        <time>2019-04-20T09:09:34Z</time>
      </trkpt>
      <trkpt lat="43.42851" lon="-0.57211">
        <ele>214.99</ele>
        <time>2019-04-20T09:09:44Z</time>
      </trkpt>
      <trkpt lat="43.42833" lon="-0.57186">
        <ele>216.43</ele>
        <time>2019-04-20T09:09:53Z</time>
      </trkpt>
      <trkpt lat="43.42818" lon="-0.57149">
        <ele>220.76</ele>
        <time>2019-04-20T09:10:04Z</time>
      </trkpt>
      <trkpt lat="43.42796" lon="-0.57102">
        <ele>224.61</ele>
        <time>2019-04-20T09:10:16Z</time>
      </trkpt>
      <trkpt lat="43.42769" lon="-0.57055">
        <ele>223.16</ele>
        <time>2019-04-20T09:10:31Z</time>
      </trkpt>
      <trkpt lat="43.4274" lon="-0.57022">
        <ele>223.16</ele>
        <time>2019-04-20T09:10:43Z</time>
      </trkpt>
      <trkpt lat="43.42729" lon="-0.57005">
        <ele>223.16</ele>
        <time>2019-04-20T09:10:48Z</time>
      </trkpt>
      <trkpt lat="43.42695" lon="-0.56951">
        <ele>222.2</ele>
        <time>2019-04-20T09:11:01Z</time>
      </trkpt>
      <trkpt lat="43.42692" lon="-0.56944">
        <ele>222.68</ele>
        <time>2019-04-20T09:11:02Z</time>
      </trkpt>
      <trkpt lat="43.42689" lon="-0.56938">
        <ele>223.16</ele>
        <time>2019-04-20T09:11:03Z</time>
      </trkpt>
      <trkpt lat="43.42687" lon="-0.5693">
        <ele>223.64</ele>
        <time>2019-04-20T09:11:04Z</time>
      </trkpt>
      <trkpt lat="43.42685" lon="-0.56922">
        <ele>224.12</ele>
        <time>2019-04-20T09:11:05Z</time>
      </trkpt>
      <trkpt lat="43.42683" lon="-0.56913">
        <ele>224.12</ele>
        <time>2019-04-20T09:11:06Z</time>
      </trkpt>
      <trkpt lat="43.42681" lon="-0.56896">
        <ele>224.61</ele>
        <time>2019-04-20T09:11:08Z</time>
      </trkpt>
      <trkpt lat="43.42681" lon="-0.5688">
        <ele>224.61</ele>
        <time>2019-04-20T09:11:10Z</time>
      </trkpt>
      <trkpt lat="43.42677" lon="-0.56833">
        <ele>220.76</ele>
        <time>2019-04-20T09:11:19Z</time>
      </trkpt>
      <trkpt lat="43.42668" lon="-0.56817">
        <ele>217.88</ele>
        <time>2019-04-20T09:11:29Z</time>
      </trkpt>
      <trkpt lat="43.42663" lon="-0.56807">
        <ele>214.99</ele>
        <time>2019-04-20T09:11:44Z</time>
      </trkpt>
      <trkpt lat="43.42662" lon="-0.56803">
        <ele>214.51</ele>
        <time>2019-04-20T09:11:45Z</time>
      </trkpt>
      <trkpt lat="43.42652" lon="-0.56776">
        <ele>213.55</ele>
        <time>2019-04-20T09:11:52Z</time>
      </trkpt>
      <trkpt lat="43.4265" lon="-0.56775">
        <ele>213.07</ele>
        <time>2019-04-20T09:11:53Z</time>
      </trkpt>
      <trkpt lat="43.42647" lon="-0.56776">
        <ele>212.59</ele>
        <time>2019-04-20T09:11:54Z</time>
      </trkpt>
      <trkpt lat="43.42609" lon="-0.568">
        <ele>208.74</ele>
        <time>2019-04-20T09:12:00Z</time>
      </trkpt>
      <trkpt lat="43.42558" lon="-0.56859">
        <ele>201.53</ele>
        <time>2019-04-20T09:12:07Z</time>
      </trkpt>
      <trkpt lat="43.42553" lon="-0.5687">
        <ele>200.57</ele>
        <time>2019-04-20T09:12:08Z</time>
      </trkpt>
      <trkpt lat="43.42545" lon="-0.56889">
        <ele>198.65</ele>
        <time>2019-04-20T09:12:10Z</time>
      </trkpt>
      <trkpt lat="43.42527" lon="-0.56928">
        <ele>194.32</ele>
        <time>2019-04-20T09:12:14Z</time>
      </trkpt>
      <trkpt lat="43.42524" lon="-0.56939">
        <ele>192.88</ele>
        <time>2019-04-20T09:12:15Z</time>
      </trkpt>
      <trkpt lat="43.4252" lon="-0.56957">
        <ele>190</ele>
        <time>2019-04-20T09:12:17Z</time>
      </trkpt>
      <trkpt lat="43.42517" lon="-0.56982">
        <ele>185.67</ele>
        <time>2019-04-20T09:12:20Z</time>
      </trkpt>
      <trkpt lat="43.42515" lon="-0.56988">
        <ele>184.71</ele>
        <time>2019-04-20T09:12:21Z</time>
      </trkpt>
      <trkpt lat="43.42512" lon="-0.56993">
        <ele>183.27</ele>
        <time>2019-04-20T09:12:22Z</time>
      </trkpt>
      <trkpt lat="43.42508" lon="-0.56998">
        <ele>181.83</ele>
        <time>2019-04-20T09:12:23Z</time>
      </trkpt>
      <trkpt lat="43.42503" lon="-0.57003">
        <ele>180.87</ele>
        <time>2019-04-20T09:12:24Z</time>
      </trkpt>
      <trkpt lat="43.42498" lon="-0.57007">
        <ele>178.94</ele>
        <time>2019-04-20T09:12:25Z</time>
      </trkpt>
      <trkpt lat="43.42487" lon="-0.57019">
        <ele>176.06</ele>
        <time>2019-04-20T09:12:27Z</time>
      </trkpt>
      <trkpt lat="43.42481" lon="-0.57027">
        <ele>174.62</ele>
        <time>2019-04-20T09:12:28Z</time>
      </trkpt>
      <trkpt lat="43.42441" lon="-0.57077">
        <ele>164.52</ele>
        <time>2019-04-20T09:12:34Z</time>
      </trkpt>
      <trkpt lat="43.42432" lon="-0.57084">
        <ele>163.56</ele>
        <time>2019-04-20T09:12:35Z</time>
      </trkpt>
      <trkpt lat="43.42423" lon="-0.5709">
        <ele>162.6</ele>
        <time>2019-04-20T09:12:36Z</time>
      </trkpt>
      <trkpt lat="43.42413" lon="-0.57095">
        <ele>161.16</ele>
        <time>2019-04-20T09:12:37Z</time>
      </trkpt>
      <trkpt lat="43.42403" lon="-0.57099">
        <ele>160.2</ele>
        <time>2019-04-20T09:12:38Z</time>
      </trkpt>
      <trkpt lat="43.42283" lon="-0.5716">
        <ele>151.54</ele>
        <time>2019-04-20T09:12:50Z</time>
      </trkpt>
      <trkpt lat="43.4213" lon="-0.57195">
        <ele>145.3</ele>
        <time>2019-04-20T09:13:06Z</time>
      </trkpt>
      <trkpt lat="43.42017" lon="-0.57194">
        <ele>136.64</ele>
        <time>2019-04-20T09:13:17Z</time>
      </trkpt>
      <trkpt lat="43.41908" lon="-0.57197">
        <ele>131.84</ele>
        <time>2019-04-20T09:13:29Z</time>
      </trkpt>
      <trkpt lat="43.41893" lon="-0.572">
        <ele>131.36</ele>
        <time>2019-04-20T09:13:31Z</time>
      </trkpt>
      <trkpt lat="43.41828" lon="-0.57224">
        <ele>130.88</ele>
        <time>2019-04-20T09:13:40Z</time>
      </trkpt>
      <trkpt lat="43.41821" lon="-0.57225">
        <ele>130.88</ele>
        <time>2019-04-20T09:13:41Z</time>
      </trkpt>
      <trkpt lat="43.41815" lon="-0.57225">
        <ele>130.88</ele>
        <time>2019-04-20T09:13:42Z</time>
      </trkpt>
      <trkpt lat="43.41759" lon="-0.57217">
        <ele>130.4</ele>
        <time>2019-04-20T09:13:52Z</time>
      </trkpt>
      <trkpt lat="43.41753" lon="-0.5722">
        <ele>130.4</ele>
        <time>2019-04-20T09:13:53Z</time>
      </trkpt>
      <trkpt lat="43.41748" lon="-0.57225">
        <ele>130.4</ele>
        <time>2019-04-20T09:13:54Z</time>
      </trkpt>
      <trkpt lat="43.41745" lon="-0.57232">
        <ele>130.4</ele>
        <time>2019-04-20T09:13:55Z</time>
      </trkpt>
      <trkpt lat="43.41742" lon="-0.57239">
        <ele>130.4</ele>
        <time>2019-04-20T09:13:56Z</time>
      </trkpt>
      <trkpt lat="43.4174" lon="-0.57247">
        <ele>130.4</ele>
        <time>2019-04-20T09:13:57Z</time>
      </trkpt>
      <trkpt lat="43.41738" lon="-0.57255">
        <ele>130.4</ele>
        <time>2019-04-20T09:13:58Z</time>
      </trkpt>
      <trkpt lat="43.41736" lon="-0.57263">
        <ele>130.4</ele>
        <time>2019-04-20T09:13:59Z</time>
      </trkpt>
      <trkpt lat="43.41734" lon="-0.57272">
        <ele>130.4</ele>
        <time>2019-04-20T09:14:00Z</time>
      </trkpt>
      <trkpt lat="43.41694" lon="-0.57427">
        <ele>128.95</ele>
        <time>2019-04-20T09:14:19Z</time>
      </trkpt>
      <trkpt lat="43.4165" lon="-0.57575">
        <ele>128.47</ele>
        <time>2019-04-20T09:14:38Z</time>
      </trkpt>
      <trkpt lat="43.41643" lon="-0.57596">
        <ele>128.95</ele>
        <time>2019-04-20T09:14:47Z</time>
      </trkpt>
      <trkpt lat="43.41629" lon="-0.57599">
        <ele>129.43</ele>
        <time>2019-04-20T09:14:57Z</time>
      </trkpt>
      <trkpt lat="43.41588" lon="-0.57572">
        <ele>130.4</ele>
        <time>2019-04-20T09:15:08Z</time>
      </trkpt>
      <trkpt lat="43.41583" lon="-0.57569">
        <ele>130.88</ele>
        <time>2019-04-20T09:15:09Z</time>
      </trkpt>
      <trkpt lat="43.41513" lon="-0.57524">
        <ele>134.24</ele>
        <time>2019-04-20T09:15:25Z</time>
      </trkpt>
      <trkpt lat="43.41485" lon="-0.5751">
        <ele>136.64</ele>
        <time>2019-04-20T09:15:32Z</time>
      </trkpt>
      <trkpt lat="43.41481" lon="-0.57508">
        <ele>136.64</ele>
        <time>2019-04-20T09:15:33Z</time>
      </trkpt>
      <trkpt lat="43.41417" lon="-0.57481">
        <ele>136.16</ele>
        <time>2019-04-20T09:15:48Z</time>
      </trkpt>
      <trkpt lat="43.41324" lon="-0.57458">
        <ele>133.28</ele>
        <time>2019-04-20T09:16:05Z</time>
      </trkpt>
      <trkpt lat="43.41268" lon="-0.57463">
        <ele>129.92</ele>
        <time>2019-04-20T09:16:12Z</time>
      </trkpt>
      <trkpt lat="43.41259" lon="-0.57467">
        <ele>129.43</ele>
        <time>2019-04-20T09:16:13Z</time>
      </trkpt>
      <trkpt lat="43.41251" lon="-0.57469">
        <ele>128.95</ele>
        <time>2019-04-20T09:16:14Z</time>
      </trkpt>
      <trkpt lat="43.4116" lon="-0.57493">
        <ele>127.99</ele>
        <time>2019-04-20T09:16:26Z</time>
      </trkpt>
      <trkpt lat="43.41118" lon="-0.57502">
        <ele>128.95</ele>
        <time>2019-04-20T09:16:33Z</time>
      </trkpt>
      <trkpt lat="43.41112" lon="-0.57501">
        <ele>128.95</ele>
        <time>2019-04-20T09:16:34Z</time>
      </trkpt>
      <trkpt lat="43.41104" lon="-0.57496">
        <ele>128.95</ele>
        <time>2019-04-20T09:16:35Z</time>
      </trkpt>
      <trkpt lat="43.411" lon="-0.57493">
        <ele>128.95</ele>
        <time>2019-04-20T09:16:36Z</time>
      </trkpt>
      <trkpt lat="43.41095" lon="-0.57488">
        <ele>128.95</ele>
        <time>2019-04-20T09:16:37Z</time>
      </trkpt>
      <trkpt lat="43.4109" lon="-0.57482">
        <ele>129.43</ele>
        <time>2019-04-20T09:16:38Z</time>
      </trkpt>
      <trkpt lat="43.41086" lon="-0.57476">
        <ele>129.92</ele>
        <time>2019-04-20T09:16:39Z</time>
      </trkpt>
      <trkpt lat="43.41082" lon="-0.57469">
        <ele>130.4</ele>
        <time>2019-04-20T09:16:40Z</time>
      </trkpt>
      <trkpt lat="43.41079" lon="-0.57461">
        <ele>130.4</ele>
        <time>2019-04-20T09:16:41Z</time>
      </trkpt>
      <trkpt lat="43.41076" lon="-0.57452">
        <ele>130.88</ele>
        <time>2019-04-20T09:16:42Z</time>
      </trkpt>
      <trkpt lat="43.41075" lon="-0.57444">
        <ele>130.88</ele>
        <time>2019-04-20T09:16:43Z</time>
      </trkpt>
      <trkpt lat="43.41073" lon="-0.57435">
        <ele>131.36</ele>
        <time>2019-04-20T09:16:44Z</time>
      </trkpt>
      <trkpt lat="43.41072" lon="-0.57427">
        <ele>131.36</ele>
        <time>2019-04-20T09:16:45Z</time>
      </trkpt>
      <trkpt lat="43.41071" lon="-0.57418">
        <ele>131.36</ele>
        <time>2019-04-20T09:16:46Z</time>
      </trkpt>
      <trkpt lat="43.4107" lon="-0.5741">
        <ele>131.36</ele>
        <time>2019-04-20T09:16:47Z</time>
      </trkpt>
      <trkpt lat="43.4106" lon="-0.57325">
        <ele>131.36</ele>
        <time>2019-04-20T09:16:58Z</time>
      </trkpt>
      <trkpt lat="43.41057" lon="-0.57312">
        <ele>131.36</ele>
        <time>2019-04-20T09:17:00Z</time>
      </trkpt>
      <trkpt lat="43.41052" lon="-0.57299">
        <ele>131.84</ele>
        <time>2019-04-20T09:17:02Z</time>
      </trkpt>
      <trkpt lat="43.41049" lon="-0.57293">
        <ele>131.84</ele>
        <time>2019-04-20T09:17:03Z</time>
      </trkpt>
      <trkpt lat="43.41046" lon="-0.57287">
        <ele>131.36</ele>
        <time>2019-04-20T09:17:04Z</time>
      </trkpt>
      <trkpt lat="43.41042" lon="-0.57283">
        <ele>131.36</ele>
        <time>2019-04-20T09:17:05Z</time>
      </trkpt>
      <trkpt lat="43.41038" lon="-0.57278">
        <ele>131.36</ele>
        <time>2019-04-20T09:17:06Z</time>
      </trkpt>
      <trkpt lat="43.41025" lon="-0.57264">
        <ele>130.88</ele>
        <time>2019-04-20T09:17:09Z</time>
      </trkpt>
      <trkpt lat="43.41018" lon="-0.57254">
        <ele>130.88</ele>
        <time>2019-04-20T09:17:11Z</time>
      </trkpt>
      <trkpt lat="43.4099" lon="-0.57214">
        <ele>129.92</ele>
        <time>2019-04-20T09:17:18Z</time>
      </trkpt>
      <trkpt lat="43.40987" lon="-0.57207">
        <ele>129.43</ele>
        <time>2019-04-20T09:17:19Z</time>
      </trkpt>
      <trkpt lat="43.40984" lon="-0.57199">
        <ele>129.43</ele>
        <time>2019-04-20T09:17:20Z</time>
      </trkpt>
      <trkpt lat="43.4095" lon="-0.57085">
        <ele>129.43</ele>
        <time>2019-04-20T09:17:35Z</time>
      </trkpt>
      <trkpt lat="43.40921" lon="-0.56958">
        <ele>129.92</ele>
        <time>2019-04-20T09:17:51Z</time>
      </trkpt>
      <trkpt lat="43.40918" lon="-0.56943">
        <ele>129.92</ele>
        <time>2019-04-20T09:17:53Z</time>
      </trkpt>
      <trkpt lat="43.40888" lon="-0.56829">
        <ele>128.95</ele>
        <time>2019-04-20T09:18:08Z</time>
      </trkpt>
      <trkpt lat="43.40878" lon="-0.56769">
        <ele>128.95</ele>
        <time>2019-04-20T09:18:16Z</time>
      </trkpt>
      <trkpt lat="43.40877" lon="-0.56763">
        <ele>129.43</ele>
        <time>2019-04-20T09:18:17Z</time>
      </trkpt>
      <trkpt lat="43.40869" lon="-0.56739">
        <ele>129.92</ele>
        <time>2019-04-20T09:18:21Z</time>
      </trkpt>
      <trkpt lat="43.40867" lon="-0.56735">
        <ele>129.92</ele>
        <time>2019-04-20T09:18:22Z</time>
      </trkpt>
      <trkpt lat="43.40864" lon="-0.56732">
        <ele>130.4</ele>
        <time>2019-04-20T09:18:23Z</time>
      </trkpt>
      <trkpt lat="43.4086" lon="-0.56732">
        <ele>130.4</ele>
        <time>2019-04-20T09:18:24Z</time>
      </trkpt>
      <trkpt lat="43.40856" lon="-0.56733">
        <ele>130.4</ele>
        <time>2019-04-20T09:18:25Z</time>
      </trkpt>
      <trkpt lat="43.40794" lon="-0.56748">
        <ele>129.43</ele>
        <time>2019-04-20T09:18:38Z</time>
      </trkpt>
      <trkpt lat="43.40724" lon="-0.56752">
        <ele>130.4</ele>
        <time>2019-04-20T09:18:52Z</time>
      </trkpt>
      <trkpt lat="43.40693" lon="-0.56758">
        <ele>130.88</ele>
        <time>2019-04-20T09:18:59Z</time>
      </trkpt>
      <trkpt lat="43.40691" lon="-0.56753">
        <ele>131.36</ele>
        <time>2019-04-20T09:19:00Z</time>
      </trkpt>
      <trkpt lat="43.4069" lon="-0.5675">
        <ele>130.88</ele>
        <time>2019-04-20T09:19:01Z</time>
      </trkpt>
      <trkpt lat="43.40688" lon="-0.56743">
        <ele>131.36</ele>
        <time>2019-04-20T09:19:02Z</time>
      </trkpt>
      <trkpt lat="43.40687" lon="-0.56736">
        <ele>131.36</ele>
        <time>2019-04-20T09:19:03Z</time>
      </trkpt>
      <trkpt lat="43.40678" lon="-0.56704">
        <ele>131.84</ele>
        <time>2019-04-20T09:19:08Z</time>
      </trkpt>
      <trkpt lat="43.40676" lon="-0.56698">
        <ele>131.84</ele>
        <time>2019-04-20T09:19:09Z</time>
      </trkpt>
      <trkpt lat="43.40673" lon="-0.56692">
        <ele>131.84</ele>
        <time>2019-04-20T09:19:10Z</time>
      </trkpt>
      <trkpt lat="43.40669" lon="-0.56687">
        <ele>132.32</ele>
        <time>2019-04-20T09:19:11Z</time>
      </trkpt>
      <trkpt lat="43.40666" lon="-0.56681">
        <ele>132.32</ele>
        <time>2019-04-20T09:19:12Z</time>
      </trkpt>
      <trkpt lat="43.40662" lon="-0.56677">
        <ele>132.32</ele>
        <time>2019-04-20T09:19:13Z</time>
      </trkpt>
      <trkpt lat="43.40657" lon="-0.56673">
        <ele>132.32</ele>
        <time>2019-04-20T09:19:14Z</time>
      </trkpt>
      <trkpt lat="43.40652" lon="-0.56669">
        <ele>132.32</ele>
        <time>2019-04-20T09:19:15Z</time>
      </trkpt>
      <trkpt lat="43.40648" lon="-0.56666">
        <ele>132.8</ele>
        <time>2019-04-20T09:19:16Z</time>
      </trkpt>
      <trkpt lat="43.40599" lon="-0.56635">
        <ele>132.32</ele>
        <time>2019-04-20T09:19:27Z</time>
      </trkpt>
      <trkpt lat="43.40594" lon="-0.56634">
        <ele>132.32</ele>
        <time>2019-04-20T09:19:28Z</time>
      </trkpt>
      <trkpt lat="43.40589" lon="-0.56635">
        <ele>132.8</ele>
        <time>2019-04-20T09:19:29Z</time>
      </trkpt>
      <trkpt lat="43.40586" lon="-0.56636">
        <ele>132.32</ele>
        <time>2019-04-20T09:19:30Z</time>
      </trkpt>
      <trkpt lat="43.40583" lon="-0.56639">
        <ele>132.32</ele>
        <time>2019-04-20T09:19:31Z</time>
      </trkpt>
      <trkpt lat="43.4058" lon="-0.56643">
        <ele>132.32</ele>
        <time>2019-04-20T09:19:32Z</time>
      </trkpt>
      <trkpt lat="43.40572" lon="-0.5665">
        <ele>132.32</ele>
        <time>2019-04-20T09:19:34Z</time>
      </trkpt>
      <trkpt lat="43.40568" lon="-0.56653">
        <ele>132.32</ele>
        <time>2019-04-20T09:19:35Z</time>
      </trkpt>
      <trkpt lat="43.40563" lon="-0.56654">
        <ele>132.32</ele>
        <time>2019-04-20T09:19:36Z</time>
      </trkpt>
      <trkpt lat="43.40516" lon="-0.56667">
        <ele>132.32</ele>
        <time>2019-04-20T09:19:46Z</time>
      </trkpt>
    </trkseg>
  </trk>
</gpx>